GFSNGP_sfc_wetblb_057.txt.gz
Wetbulb
41.82 45.08 45.71 45.74 46.23 46.69 43.24 42.06 41.26 42.74 46.86 49.89 53.55 54.46 55.74 55.09 55.27 56.77 57.24 60.21 64.53 64.68 65.01 65.72 66.70 67.04 67.46 67.42 66.73 66.05 66.16 65.80 66.05 65.47 65.87 65.34 64.92 64.57 64.88 63.75 63.53 62.68 61.90 60.02
39.32 45.98 47.09 45.92 47.49 48.15 47.67 47.26 46.24 48.32 48.32 52.06 54.38 54.07 53.86 54.52 54.47 56.23 59.15 63.58 65.75 65.61 65.57 65.42 66.34 66.61 67.51 67.51 66.57 65.79 65.56 65.38 66.32 66.10 65.65 65.54 65.19 65.65 65.17 64.16 62.80 62.48 60.16 58.32
39.98 44.12 44.49 39.33 44.73 46.66 47.56 48.78 48.38 45.67 49.55 52.62 53.03 55.11 54.92 54.70 56.53 58.18 61.15 66.20 65.73 65.38 65.58 65.34 65.57 66.30 66.46 66.99 66.50 65.01 64.92 65.66 66.15 66.50 65.35 65.53 65.98 65.70 65.33 64.32 64.21 61.87 58.82 57.26
41.00 40.41 34.21 43.00 49.47 50.81 51.20 54.25 53.60 50.51 51.31 53.30 55.25 56.74 55.73 55.70 57.08 59.05 63.24 67.67 66.40 65.36 65.36 65.32 66.03 66.12 66.46 66.70 65.70 64.86 63.79 64.02 65.55 65.89 65.55 65.61 66.26 65.54 65.81 65.26 64.54 62.78 60.21 56.84
38.18 37.08 42.11 47.92 51.46 50.73 47.33 47.90 54.97 53.08 53.35 54.66 55.22 58.23 58.57 64.13 59.43 60.57 66.00 67.20 67.51 67.07 65.56 64.39 65.75 66.41 66.59 65.70 64.97 64.46 63.90 63.83 65.15 65.53 64.63 64.50 63.80 63.34 63.93 64.31 64.92 63.31 61.40 58.86
38.65 34.82 35.12 44.63 56.28 58.07 54.27 44.66 54.67 55.20 54.54 53.91 58.54 50.65 54.77 64.61 65.85 66.15 66.97 67.61 67.65 67.01 64.86 63.84 64.52 66.37 66.03 65.14 65.07 64.19 63.60 64.19 64.07 63.57 63.44 63.51 62.22 61.25 62.22 63.60 63.66 64.74 62.84 61.19
37.87 36.80 41.59 51.87 54.49 57.09 43.44 43.32 53.48 54.57 54.23 54.78 54.73 55.67 61.12 64.17 64.91 64.29 65.30 65.82 66.34 65.28 64.03 64.34 65.69 65.74 64.00 63.06 62.83 63.09 63.49 62.72 62.39 61.96 61.49 61.80 61.97 61.16 60.32 61.64 64.15 62.87 63.32 62.48
37.61 35.42 36.32 53.82 53.96 47.74 49.86 52.36 55.10 56.18 57.43 57.23 57.65 62.78 62.37 63.45 64.46 64.95 64.70 65.07 65.35 64.36 63.89 64.39 64.70 64.00 62.01 62.78 61.62 62.60 61.49 60.68 60.50 60.75 61.51 62.29 61.77 61.65 60.58 60.73 59.90 63.43 62.50 62.18
45.31 43.93 50.88 53.82 51.59 53.37 52.30 52.94 55.99 54.48 57.37 58.63 58.40 60.74 62.58 61.89 63.66 63.66 64.14 63.53 63.62 64.03 63.93 63.84 63.74 64.19 64.08 63.65 62.74 62.31 60.96 62.14 62.53 61.17 60.47 59.87 60.21 62.18 60.49 59.76 60.33 62.91 62.69 62.73
44.98 49.46 51.01 53.84 53.82 54.04 54.59 54.51 56.55 58.75 59.37 58.78 57.67 58.45 59.95 61.59 63.14 63.32 63.86 62.14 63.06 62.88 62.72 62.73 63.97 64.32 64.00 64.48 64.87 64.35 63.08 61.52 61.95 61.29 60.72 59.96 58.72 58.77 59.33 62.07 62.23 62.87 63.23 62.66
45.85 47.98 49.58 53.12 52.69 53.02 54.35 56.15 57.62 58.51 57.45 57.47 58.58 56.84 57.40 59.25 62.93 62.97 62.43 61.86 61.94 61.61 61.39 60.47 60.44 60.67 60.80 61.32 61.30 61.23 61.58 61.51 62.03 61.63 60.61 58.70 55.25 55.51 55.51 55.99 55.02 56.99 61.12 63.07
41.68 48.01 48.48 49.48 53.00 54.23 55.30 55.70 56.41 55.25 54.94 58.44 59.07 59.45 62.91 62.16 63.20 63.21 62.40 61.23 60.30 60.04 59.92 59.74 59.59 59.65 58.93 59.55 59.82 58.91 57.75 57.76 57.42 57.30 56.67 55.85 55.73 55.12 49.80 48.88 46.36 43.46 42.72 46.16
47.64 51.97 52.06 53.60 54.06 56.30 55.79 54.49 55.49 56.95 59.19 58.86 60.26 61.40 62.93 62.90 63.48 62.45 62.66 61.66 61.20 60.98 60.89 60.25 59.47 58.47 58.73 59.13 58.65 57.73 56.75 56.35 56.17 55.89 56.67 55.81 53.94 53.76 55.25 52.56 46.16 44.49 43.40 43.48
52.80 51.88 50.27 52.77 51.09 55.16 56.69 57.27 57.28 57.21 58.14 60.93 60.82 58.42 57.13 61.96 61.74 61.49 61.56 62.06 62.15 62.07 61.49 60.86 60.05 59.23 59.32 58.77 57.79 56.97 56.11 53.83 55.29 54.81 54.97 55.83 55.37 54.99 54.06 55.41 54.94 56.17 45.40 43.54
53.72 54.12 51.50 51.65 52.69 53.57 56.66 57.93 57.15 56.95 57.30 56.88 59.12 59.59 59.54 58.54 58.39 59.10 60.49 61.42 61.39 60.42 60.60 61.02 60.27 59.82 61.05 60.15 58.75 57.47 56.53 55.91 55.75 55.29 54.81 54.55 55.21 54.95 54.97 54.91 55.97 55.97 54.24 47.45
50.57 51.93 52.38 53.04 52.49 54.29 56.43 56.17 54.98 55.75 56.81 57.17 57.79 58.33 58.64 59.21 59.35 59.24 59.26 60.58 58.25 56.49 57.44 56.75 55.14 55.81 57.31 59.57 58.49 57.39 56.63 55.91 55.75 55.97 55.43 54.85 54.83 54.93 54.81 54.66 54.28 53.76 53.24 51.91
47.37 48.00 50.41 51.53 53.80 53.96 54.39 55.40 55.49 56.18 56.51 56.63 56.66 56.86 55.88 56.13 55.94 55.61 55.86 56.41 55.08 54.57 54.55 54.51 54.48 55.89 55.48 54.94 56.11 57.66 58.18 57.92 57.46 58.02 56.75 56.13 55.19 54.83 55.01 54.77 55.33 55.17 55.23 55.98
52.04 52.70 52.00 51.76 54.27 54.49 54.67 55.52 55.43 55.28 54.55 55.76 56.01 55.54 54.45 53.71 52.68 53.20 54.11 53.75 52.93 52.39 52.72 53.80 54.70 53.43 52.95 54.00 53.27 53.24 55.01 56.13 56.99 56.55 56.93 56.07 56.01 55.17 54.97 54.79 55.53 56.29 57.11 53.94
52.24 53.83 54.76 55.50 53.53 52.97 55.32 55.56 55.50 55.79 55.63 55.24 53.63 52.46 52.76 52.26 52.09 52.45 52.81 51.42 50.17 48.98 49.65 51.22 55.21 52.45 50.90 53.05 54.41 52.04 52.92 54.26 55.09 55.89 56.37 55.33 55.69 55.11 54.35 52.43 50.79 51.10 53.07 54.10
53.08 53.99 54.21 53.99 54.25 53.88 53.61 54.43 54.41 53.82 54.16 53.73 53.02 51.94 50.50 50.62 50.92 50.57 50.81 48.68 48.19 48.71 49.42 49.50 50.64 49.78 50.12 50.82 54.10 51.65 52.04 52.55 53.98 54.73 54.89 54.75 54.65 54.11 53.36 49.19 50.09 50.71 50.25 54.03
52.04 52.63 52.85 53.66 54.28 55.00 54.08 53.49 53.15 52.52 52.70 52.16 50.84 50.18 49.09 48.82 49.24 49.61 47.59 46.63 48.01 48.89 49.41 51.10 49.83 49.72 50.77 52.49 52.22 50.72 50.57 51.45 52.88 53.90 54.29 55.97 54.70 52.23 51.32 51.93 50.14 50.78 50.88 50.41
50.63 51.10 52.09 52.59 52.21 52.10 52.78 52.09 51.80 51.29 50.18 49.36 49.12 48.43 47.25 46.69 47.28 46.91 47.19 49.32 50.52 50.35 51.80 52.14 52.22 53.45 54.50 54.74 53.29 52.41 54.41 53.58 52.33 53.78 53.31 53.54 52.38 51.32 50.15 50.07 49.87 49.77 50.57 51.49
48.95 49.70 50.69 51.28 51.16 51.01 51.45 50.83 50.36 49.56 48.61 47.97 47.30 46.54 45.44 46.25 46.65 48.11 48.63 51.73 52.18 51.30 53.35 50.59 50.64 51.47 52.79 53.66 52.83 52.81 52.60 52.85 53.49 53.02 51.55 51.13 51.08 49.74 50.07 50.53 50.66 50.97 51.23 51.75
48.94 50.01 50.36 50.56 51.06 50.52 49.08 48.55 48.88 48.67 48.51 48.24 47.86 47.41 46.47 46.15 48.24 50.98 51.92 50.49 49.33 49.33 50.02 48.70 48.87 49.19 49.88 50.56 50.30 49.52 50.07 50.74 51.40 51.85 51.84 47.37 51.29 51.85 51.74 51.49 51.53 51.93 51.93 51.17
50.26 50.23 50.17 49.62 49.30 48.87 48.95 48.84 48.29 47.39 47.28 46.93 46.78 46.55 46.55 48.10 47.81 47.85 47.47 47.77 47.93 47.12 46.80 47.73 48.22 48.45 47.18 48.01 49.63 48.69 48.15 48.98 48.57 48.37 48.91 48.91 48.95 50.81 50.70 50.88 51.07 51.08 51.53 51.51
47.98 48.56 48.67 48.24 48.57 49.38 49.10 49.23 47.23 46.57 46.93 46.41 46.46 46.49 46.51 46.94 47.01 46.65 46.76 47.19 45.95 46.53 45.52 45.23 45.64 44.99 45.19 45.57 45.57 45.80 47.79 47.97 46.25 47.74 46.94 47.47 48.82 48.86 50.23 50.12 49.70 49.88 49.88 50.39
48.95 45.51 49.03 50.18 48.87 49.26 49.34 48.06 47.34 47.09 47.27 46.93 46.57 47.50 47.05 46.93 46.26 45.77 46.24 45.78 45.38 45.30 45.50 45.65 45.83 45.86 44.96 44.69 44.87 44.92 44.43 45.57 42.96 44.58 44.67 44.47 45.00 45.91 45.84 46.35 46.69 46.73 46.91 47.14

GFSNGP_sfc_wetblb_060.txt.gz
Wetbulb
40.22 42.40 44.43 44.82 45.71 45.83 42.40 41.66 41.47 42.50 43.28 47.24 51.30 55.82 57.41 56.74 56.41 56.69 57.69 58.26 61.76 63.68 63.96 65.07 66.80 68.04 68.35 68.36 67.49 66.91 67.14 66.94 67.23 66.51 67.04 66.31 66.00 66.06 65.97 65.57 65.11 64.60 64.12 63.78
38.94 44.63 46.05 44.85 46.37 47.03 46.51 44.97 45.94 46.49 46.35 50.24 53.08 54.46 55.26 56.47 54.94 55.50 56.85 58.65 61.35 64.87 65.15 65.46 67.07 67.94 68.37 67.69 67.20 66.82 66.78 66.67 67.27 66.82 66.76 66.78 66.27 65.95 66.06 65.32 64.28 63.91 63.16 62.45
38.42 43.58 43.61 39.87 42.84 45.80 48.07 48.09 48.60 44.97 48.44 51.30 52.59 54.75 55.03 55.56 55.36 55.88 56.75 59.90 63.82 65.79 65.54 66.00 67.47 68.32 67.67 67.90 67.54 66.58 66.33 66.82 67.16 67.67 66.58 66.33 66.39 66.08 65.76 64.87 64.11 63.53 62.15 61.12
39.29 39.37 34.15 42.53 50.37 50.72 50.81 52.66 53.08 52.56 52.40 52.29 51.70 54.09 56.39 56.20 55.89 56.73 58.87 61.57 65.83 66.10 65.69 66.47 66.91 67.11 67.45 67.61 67.23 66.33 65.58 66.02 66.76 67.03 66.94 66.41 66.16 65.80 65.96 65.82 65.01 63.88 61.72 59.79
37.61 36.07 41.63 47.27 52.73 51.98 49.93 46.96 52.81 51.79 53.43 54.80 55.14 55.70 55.08 59.98 58.57 58.35 59.78 62.57 67.23 66.60 66.49 66.09 66.35 66.80 67.00 66.73 66.51 65.98 65.26 65.24 65.98 66.85 66.41 65.98 65.92 65.98 66.16 65.95 65.79 63.35 62.56 60.83
37.90 34.71 34.99 46.65 53.07 55.38 54.83 43.31 52.62 53.57 53.95 53.70 55.92 49.56 52.05 62.74 64.91 59.94 59.90 65.17 67.51 66.59 65.70 65.86 66.15 67.16 66.44 65.77 65.37 64.93 65.04 65.38 66.00 66.21 65.53 64.81 64.33 63.90 64.04 64.47 64.25 64.48 61.70 60.46
35.23 35.42 40.10 50.95 52.69 54.09 42.82 42.68 51.96 54.54 54.94 55.17 53.18 55.35 61.02 64.48 64.27 63.97 64.53 65.99 66.47 65.69 65.20 65.60 66.22 66.62 65.59 65.40 65.14 65.37 65.10 64.64 64.55 64.71 64.37 64.64 63.58 63.35 62.71 63.11 63.97 64.12 62.76 61.81
35.92 34.01 34.16 52.35 51.67 47.53 49.20 51.68 53.36 54.68 55.85 56.81 57.27 59.07 61.77 63.73 63.95 64.10 63.69 64.13 64.48 64.14 63.71 64.33 65.47 65.23 63.66 63.66 63.37 63.85 63.47 62.76 62.43 62.04 62.66 63.58 63.83 63.86 62.78 62.35 63.02 63.26 63.71 61.94
43.93 43.12 49.42 52.54 50.29 52.63 52.43 52.83 54.53 56.58 57.46 58.32 57.91 58.41 59.10 61.85 63.39 63.83 63.65 63.68 64.15 64.72 64.59 64.15 63.52 64.54 63.37 63.89 63.44 62.59 61.39 62.09 62.77 63.00 62.48 62.31 63.15 63.72 62.67 61.91 61.45 62.36 61.78 61.72
44.97 48.68 50.54 52.90 53.37 53.34 53.98 53.39 54.51 56.09 57.10 57.05 56.98 58.04 58.29 59.00 62.71 63.28 62.93 62.79 63.34 63.40 63.70 63.60 63.87 64.06 64.30 64.22 64.46 63.12 61.88 62.84 63.07 62.73 62.21 61.43 60.61 60.49 60.49 60.81 61.76 62.36 63.34 62.88
45.70 46.58 48.68 52.72 52.62 53.13 53.78 55.94 55.89 57.19 57.35 56.18 55.97 57.48 58.14 57.38 60.48 63.34 62.89 63.68 64.24 63.52 62.62 63.08 63.30 62.80 63.56 63.95 64.75 64.07 63.40 62.81 62.08 61.83 61.53 60.71 58.85 58.82 58.50 58.80 57.80 59.43 59.22 59.97
40.82 46.83 49.02 49.45 52.72 54.00 55.10 54.55 54.68 54.72 54.84 56.88 58.55 57.04 58.93 58.58 59.14 62.97 62.75 62.49 62.19 61.51 61.58 60.95 61.37 60.89 61.14 61.65 61.91 61.44 60.57 60.26 59.85 60.17 59.85 59.09 57.07 57.56 51.62 50.02 46.80 44.99 43.17 46.62
47.08 51.59 52.29 53.38 54.62 55.38 55.47 54.55 56.27 57.05 56.92 55.79 57.23 57.86 58.15 62.08 61.04 61.83 61.77 60.74 60.38 60.70 60.98 60.80 60.36 60.15 60.57 60.41 60.64 60.18 59.30 59.30 59.03 57.51 59.33 58.57 57.65 57.15 57.04 55.65 45.48 43.54 42.09 42.05
51.65 52.33 50.21 52.85 51.22 54.85 55.06 56.05 57.96 58.10 57.79 58.41 58.67 57.57 59.20 58.60 59.98 60.15 60.24 61.65 61.70 61.32 60.86 60.58 60.34 60.12 60.09 60.59 60.38 59.62 58.96 52.72 57.95 58.18 58.25 58.39 58.53 58.18 57.53 57.08 56.65 57.30 47.05 44.74
53.47 53.67 51.73 52.36 53.05 52.87 54.09 55.81 55.95 55.91 57.53 57.03 58.93 58.65 59.23 58.47 58.41 59.22 60.62 60.22 59.88 59.90 59.93 60.48 59.50 57.50 59.46 61.28 60.13 59.54 58.64 58.49 58.37 58.19 57.82 56.48 57.62 57.72 57.65 57.58 57.31 57.64 58.26 49.63
50.39 51.09 52.06 51.78 52.33 53.38 54.25 55.67 54.60 54.72 56.70 57.79 58.10 57.63 58.91 58.89 58.95 58.63 58.29 58.32 55.71 54.72 56.15 56.45 55.87 56.02 56.74 60.14 60.85 60.14 59.84 56.35 56.63 58.84 58.59 58.17 57.89 57.71 57.75 57.48 57.49 57.55 57.42 57.77
45.98 48.90 50.92 51.14 52.50 53.63 53.89 54.25 54.33 55.25 56.46 57.10 57.19 56.56 56.49 56.46 56.34 55.20 54.19 54.80 54.78 54.28 54.64 54.35 53.97 54.66 55.59 55.11 55.43 56.18 57.53 58.76 57.11 59.23 59.00 59.27 58.99 58.45 58.37 57.88 57.63 57.84 57.96 57.62
52.31 52.73 53.11 53.09 53.27 53.16 54.09 54.79 54.86 54.84 54.48 54.76 54.72 54.25 53.82 53.80 53.13 52.70 52.81 52.69 52.07 51.33 51.18 51.82 54.76 53.74 53.74 54.27 54.92 54.09 54.21 55.16 56.88 57.55 58.39 58.85 59.19 58.93 58.67 58.46 58.66 58.46 59.08 58.59
53.64 54.53 54.54 53.79 53.10 54.16 55.49 55.37 55.33 55.41 55.57 54.72 53.39 52.21 52.61 52.41 52.40 52.30 51.34 50.59 49.97 49.47 50.13 51.08 53.58 52.13 52.07 52.82 54.72 53.62 53.00 53.49 54.17 55.17 56.60 55.75 57.83 58.57 58.32 58.15 57.90 57.51 55.09 53.78
52.95 53.87 53.73 53.80 54.48 53.98 53.89 54.70 54.68 53.90 53.90 53.25 52.02 50.76 49.94 50.29 51.06 50.96 49.72 48.33 49.17 49.85 51.43 51.56 51.94 51.94 52.39 52.92 54.28 53.57 53.13 52.60 52.90 54.40 55.85 56.25 57.25 57.70 57.36 51.93 53.47 53.52 53.52 53.78
52.59 53.15 53.22 53.80 53.78 53.96 53.18 52.38 51.83 51.04 51.31 51.35 50.16 49.02 48.50 48.97 49.54 49.14 48.33 48.66 50.74 52.24 52.36 53.07 53.08 53.60 54.59 55.51 54.78 53.88 52.95 54.24 54.42 53.61 53.83 55.11 55.87 54.96 53.64 53.33 53.03 52.89 53.01 53.31
51.35 52.36 52.16 52.54 52.14 51.52 51.88 51.68 50.94 49.91 49.29 48.89 48.92 48.57 47.88 47.41 47.88 49.32 50.72 50.75 52.39 50.90 52.28 51.47 51.40 53.18 53.74 53.48 53.35 53.33 53.58 54.00 53.75 52.91 52.65 52.88 52.70 51.87 51.87 51.45 51.16 52.19 52.52 52.75
50.32 50.62 51.42 51.61 51.32 50.75 50.76 49.99 49.61 49.16 48.61 48.33 47.84 47.41 47.76 48.41 50.12 49.37 49.51 51.85 52.21 50.47 51.18 50.56 49.88 50.46 50.85 50.71 50.79 51.34 51.75 52.49 52.41 52.07 52.21 52.27 52.23 52.11 51.61 51.65 51.83 51.88 51.99 52.19
49.23 50.09 50.52 51.14 50.88 49.74 48.28 48.74 49.15 48.86 48.76 48.69 48.31 48.35 48.06 49.05 49.86 51.01 51.10 49.07 47.54 47.61 49.35 49.38 49.03 48.71 49.83 50.20 50.09 49.83 50.64 51.56 50.27 51.20 51.15 47.23 50.52 50.58 51.16 51.94 51.89 52.61 52.13 50.51
49.59 50.30 50.36 50.32 50.29 49.61 48.58 50.03 49.12 47.91 48.00 47.99 48.15 48.81 49.16 49.34 49.46 48.73 49.15 48.98 46.96 47.47 48.46 47.50 47.58 47.56 49.08 49.48 48.97 48.15 48.64 48.62 47.95 50.88 50.99 51.06 50.85 51.06 51.59 51.93 51.83 51.80 52.07 52.31
48.71 48.78 49.55 49.46 50.36 50.24 49.56 50.29 48.19 47.80 47.88 47.73 48.05 48.21 48.59 48.73 48.96 48.71 48.85 48.17 48.41 47.43 48.15 48.36 48.49 48.43 48.29 48.29 48.13 48.00 48.18 48.29 48.40 48.81 48.96 50.08 50.26 50.46 50.40 50.42 50.35 50.49 50.01 49.30
49.03 45.83 50.09 49.44 49.99 50.48 51.34 49.16 48.58 48.57 48.74 48.57 48.31 49.16 49.07 49.08 48.81 48.45 47.18 48.96 49.02 49.14 49.00 49.22 49.06 48.24 48.37 48.53 48.60 48.59 48.46 48.12 44.01 47.80 49.01 49.32 49.53 49.65 49.86 49.75 49.69 49.22 46.89 45.46

GFSNGP_sfc_wetblb_063.txt.gz
Wetbulb
48.88 48.18 49.12 49.67 50.59 49.93 49.99 51.35 49.97 51.85 51.64 56.09 57.51 58.39 61.35 63.94 65.31 63.25 63.71 65.05 67.13 70.22 71.32 71.09 70.87 71.64 72.10 73.21 73.47 73.11 72.09 71.46 71.42 71.57 71.65 71.45 70.65 70.57 70.24 70.21 69.90 69.34 68.22 69.68
49.51 49.84 50.73 48.80 49.97 50.42 50.41 49.92 51.28 52.70 52.60 57.65 59.45 60.76 60.70 61.54 63.42 62.58 63.30 64.08 64.70 68.65 69.92 69.91 70.43 71.37 72.53 73.27 73.13 72.65 71.89 71.22 71.54 71.40 71.39 71.09 70.93 70.39 70.13 69.31 68.82 67.94 65.91 67.07
46.39 50.44 49.48 47.10 48.76 49.73 52.25 53.83 53.65 51.93 54.91 59.11 59.25 60.02 59.72 60.87 61.48 62.57 63.68 64.30 64.42 65.67 69.60 70.58 70.78 72.11 72.46 73.19 73.13 72.03 71.46 71.38 71.33 71.56 71.16 71.31 71.09 70.47 69.91 69.40 68.67 67.25 66.48 64.04
48.32 49.13 42.17 48.97 57.87 56.54 55.28 54.86 56.14 56.48 57.39 58.33 59.11 61.16 62.10 64.42 62.03 61.99 62.79 63.79 65.09 66.60 69.68 71.50 71.85 72.38 73.57 73.26 72.24 71.54 71.06 70.85 71.33 71.38 71.31 71.24 71.00 70.51 70.36 70.07 69.27 69.12 64.47 63.03
46.01 46.20 47.41 52.09 55.15 55.04 54.67 52.70 55.96 56.33 57.84 59.34 61.23 61.62 61.43 65.10 66.93 67.81 64.35 64.87 67.10 70.91 72.00 71.75 71.80 73.02 72.85 72.34 72.11 71.26 70.54 70.52 70.78 71.23 70.89 70.81 69.85 68.23 68.75 69.04 68.31 67.44 66.11 62.34
46.63 43.41 41.36 51.22 54.80 56.36 57.21 51.52 56.27 57.03 57.80 58.29 60.74 56.25 59.75 64.42 65.18 65.19 68.78 65.93 68.93 71.78 71.45 71.64 72.43 72.52 72.12 71.64 71.53 71.06 71.26 70.95 70.84 71.06 70.76 68.82 68.40 67.19 67.97 67.25 68.14 66.20 64.83 66.63
45.02 43.71 46.80 54.07 55.07 56.86 49.64 50.48 56.91 57.97 58.55 58.53 58.23 60.06 62.63 65.23 65.90 65.69 65.89 68.81 69.60 71.02 70.00 70.85 70.93 71.19 70.82 70.77 70.62 71.01 70.73 70.30 70.38 70.44 70.43 70.38 69.52 68.82 68.29 68.09 67.43 67.50 65.98 65.61
44.78 43.46 41.48 55.34 54.19 52.12 54.55 56.77 56.60 58.18 58.59 58.09 60.65 61.19 62.86 64.09 66.20 65.27 64.60 66.56 67.68 66.25 65.86 66.22 66.90 69.32 69.56 69.53 69.66 70.12 69.57 69.15 68.93 68.76 68.38 68.35 68.75 67.60 67.17 67.35 66.31 65.63 65.54 64.44
51.14 49.66 54.64 56.88 54.74 55.83 56.02 55.01 56.12 56.77 58.31 58.48 59.08 59.48 60.08 61.65 64.50 65.94 66.00 66.80 67.83 65.87 63.40 62.10 62.36 65.04 65.06 65.06 67.05 67.26 67.19 66.07 65.29 65.52 65.45 65.48 65.61 65.11 64.90 66.20 65.69 64.94 63.30 64.81
50.31 53.24 54.69 55.92 56.91 56.87 56.76 56.08 57.73 58.66 58.26 58.91 58.23 59.16 59.19 60.85 62.50 65.44 65.76 66.81 65.44 62.83 60.44 59.65 61.14 64.60 64.83 64.81 65.48 65.29 64.92 64.85 66.33 66.33 66.24 66.90 66.37 66.24 66.07 64.35 64.48 64.91 63.85 63.27
49.64 52.40 53.95 55.68 56.89 57.09 56.62 57.82 57.77 58.71 58.98 58.78 59.56 59.94 60.76 61.05 62.08 63.16 65.70 66.48 65.18 63.57 62.49 62.34 64.93 65.00 65.20 65.38 66.27 65.50 65.02 65.56 65.97 65.74 65.47 65.54 65.27 64.42 63.95 64.47 61.66 63.05 63.06 62.63
47.13 52.43 54.75 54.37 56.30 57.55 56.54 56.46 57.93 58.63 58.85 59.71 59.01 59.34 59.70 61.26 63.18 64.58 64.61 65.78 64.33 63.72 64.17 64.36 64.92 65.51 65.61 66.09 66.25 66.41 65.29 65.35 64.83 64.80 64.56 64.30 63.64 63.83 52.44 51.99 47.46 45.29 44.38 50.59
53.46 56.10 56.61 58.00 58.39 58.05 57.32 57.84 58.28 59.47 59.64 58.73 60.61 60.74 59.77 60.12 61.74 61.08 64.56 65.90 64.10 63.44 64.33 64.45 64.68 63.83 64.50 64.05 65.64 65.18 64.01 64.02 63.40 61.93 63.87 63.55 63.51 63.36 62.48 57.96 46.51 44.18 42.93 42.93
56.72 56.84 55.03 55.92 55.56 57.04 57.36 57.72 57.51 60.26 60.22 59.58 59.49 61.55 60.51 59.48 60.75 59.91 59.32 59.74 60.16 60.82 61.24 61.04 61.95 61.38 63.29 63.68 63.87 63.81 63.90 54.70 63.68 63.41 63.67 63.58 63.57 64.08 63.75 62.34 62.01 62.53 47.59 47.05
56.86 58.46 58.06 58.39 57.89 57.62 58.32 58.50 58.62 58.53 59.26 59.24 60.76 60.49 61.09 58.71 58.47 59.19 59.95 59.90 59.18 58.09 57.57 57.31 57.19 57.31 61.03 64.15 63.97 64.02 63.97 64.05 64.28 64.16 63.89 61.98 63.81 63.72 63.12 62.50 62.48 62.34 63.11 51.96
55.78 54.60 55.69 55.98 56.58 57.10 58.45 58.28 57.50 58.45 58.51 58.24 59.61 59.60 58.96 57.84 57.29 56.55 56.77 58.03 57.82 56.51 56.59 55.95 56.19 57.32 59.28 63.86 64.78 64.94 65.00 58.97 58.77 64.55 64.76 64.19 64.18 63.62 63.40 63.21 62.54 62.36 62.10 62.10
53.24 54.44 56.26 56.48 57.15 57.22 57.30 57.86 57.92 58.43 58.08 57.15 58.30 59.23 57.11 55.43 55.88 54.46 53.84 54.48 54.10 53.57 54.45 55.09 54.62 56.61 58.54 59.43 59.97 61.24 62.18 63.03 56.31 62.89 63.00 63.85 64.11 63.86 63.69 63.67 62.85 62.51 62.81 61.05
55.46 58.11 58.25 57.86 57.04 57.41 57.57 57.75 58.24 58.41 57.87 58.20 58.70 58.62 58.00 57.24 55.06 53.84 53.65 53.86 53.77 53.30 53.62 54.19 55.65 55.93 56.33 56.71 57.62 57.77 58.22 59.04 59.62 59.97 60.84 61.64 61.96 62.67 63.15 63.08 62.99 62.93 62.89 61.05
57.85 57.65 57.41 57.18 58.26 58.18 57.96 57.07 57.37 56.93 56.73 57.07 56.92 55.93 56.06 55.94 55.97 55.05 55.01 54.24 53.52 52.88 53.16 55.46 54.64 56.74 57.26 56.56 56.51 57.43 56.89 56.39 56.69 57.10 57.96 56.23 60.18 62.08 62.24 62.59 62.73 62.13 60.52 59.01
56.50 57.12 57.61 57.96 58.52 58.45 57.92 58.28 57.67 55.46 55.83 55.72 55.16 54.79 54.10 54.08 54.38 53.94 53.95 50.94 50.86 51.65 53.41 54.64 56.56 56.36 55.42 55.61 55.62 55.13 55.76 57.04 57.00 56.55 56.77 58.48 60.46 60.12 59.64 52.85 57.02 56.98 57.31 57.76
55.83 56.55 56.92 57.05 57.02 57.09 56.77 56.72 56.23 55.51 55.04 54.79 53.92 53.17 52.83 53.31 53.92 53.70 50.95 49.75 51.96 53.64 54.61 54.52 55.13 55.40 55.31 54.65 55.83 55.79 55.12 55.00 54.84 54.92 55.24 56.21 56.97 57.30 56.88 55.77 56.45 56.83 56.73 56.56
53.47 54.84 55.30 56.29 56.14 55.33 55.79 55.65 54.82 53.96 53.58 53.32 53.17 53.11 51.60 51.46 51.30 52.16 52.74 52.08 53.65 50.28 53.83 54.33 52.37 51.95 53.09 53.84 54.97 54.22 54.04 53.95 54.27 54.92 54.37 54.63 54.33 53.86 53.83 53.64 53.44 53.40 53.70 53.79
54.18 54.72 55.77 56.11 55.74 55.38 54.76 54.25 53.74 53.34 53.01 53.02 52.75 50.38 50.15 50.94 51.86 50.46 49.78 52.84 53.80 51.03 54.38 52.38 50.07 50.94 51.37 53.16 54.29 54.89 54.18 53.33 53.28 52.85 52.65 52.49 52.58 53.24 53.53 53.43 54.02 54.08 54.37 54.33
55.29 56.09 56.20 56.25 56.12 54.37 52.98 53.25 53.38 53.33 53.67 52.91 52.46 52.87 52.37 51.54 51.58 53.11 53.45 49.40 47.82 50.32 52.44 51.67 50.21 49.67 50.72 52.13 51.79 52.55 52.93 52.00 53.32 54.15 53.57 48.20 51.96 52.04 53.03 53.81 53.44 53.87 54.07 52.73
54.57 55.58 56.39 55.94 52.85 52.51 53.58 52.91 53.26 52.93 53.15 53.50 53.74 53.96 53.97 54.12 52.81 53.14 53.18 52.43 47.28 51.54 52.89 48.22 48.11 49.06 53.78 52.45 51.49 51.73 51.77 51.78 53.54 53.70 53.51 53.25 52.97 52.46 52.42 52.07 51.53 51.41 51.02 51.26
54.48 55.28 55.26 54.91 54.51 53.53 52.36 53.86 52.37 52.62 52.59 51.88 52.86 53.79 53.96 54.37 53.92 53.83 53.88 51.52 53.45 50.80 53.26 53.43 53.07 53.46 53.19 53.19 53.27 53.25 53.04 53.23 52.90 52.69 51.78 52.42 52.57 52.28 52.10 51.94 51.65 50.89 50.12 50.00
55.24 48.15 54.88 52.96 55.11 54.96 52.73 53.66 52.86 52.12 52.02 52.37 51.98 53.59 53.86 54.25 53.51 53.32 50.02 54.74 54.99 54.52 54.52 54.80 54.08 51.90 53.60 53.59 53.64 54.06 54.76 54.04 48.08 53.44 53.83 53.59 53.65 53.45 53.17 53.22 52.98 52.41 51.74 50.24

GFSNGP_sfc_wetblb_069.txt.gz
Wetbulb
52.94 51.96 53.41 52.33 51.48 51.64 51.61 52.63 50.45 53.03 55.36 56.26 62.98 63.67 64.84 67.45 69.65 69.88 69.73 70.17 73.06 73.68 74.48 75.02 74.54 74.52 74.75 74.93 75.45 75.38 75.44 75.08 74.28 74.93 74.85 74.38 73.58 73.24 73.20 72.94 72.83 73.25 72.17 72.14
52.02 52.60 52.43 51.02 52.12 52.62 52.34 52.72 52.82 52.63 53.27 59.53 64.15 65.85 65.53 65.97 66.25 67.43 68.99 70.42 71.19 72.45 74.64 75.30 75.24 74.80 74.97 75.05 75.79 75.83 75.36 74.79 74.68 74.81 74.86 73.95 73.60 73.19 73.14 73.65 73.14 73.07 71.55 71.33
49.01 51.73 51.58 48.85 51.07 51.92 52.98 53.81 53.76 54.54 60.73 63.65 63.30 65.19 65.74 66.52 67.73 68.05 67.68 68.01 70.86 71.69 72.21 74.78 76.10 76.24 75.04 75.63 76.71 76.06 75.71 75.29 74.57 74.81 74.12 74.53 74.05 72.88 73.28 73.61 73.57 73.32 72.52 71.47
49.44 50.23 42.61 55.26 59.59 56.42 54.80 58.95 60.17 62.01 61.91 63.22 63.63 66.44 66.94 67.69 67.79 68.28 69.93 71.00 70.23 70.38 72.44 72.82 74.97 76.67 76.71 76.14 77.14 76.18 75.73 74.85 74.55 74.48 73.68 73.91 74.24 73.39 73.44 73.64 72.55 72.61 72.05 71.59
47.82 47.88 51.21 55.45 58.16 57.16 55.39 58.02 61.71 61.63 62.75 63.33 63.97 66.52 66.08 67.63 68.64 69.33 70.73 71.80 72.59 70.90 71.47 73.11 72.72 75.80 76.36 76.15 75.58 75.19 75.11 74.45 74.31 74.14 73.78 73.25 73.27 74.40 74.18 73.08 72.16 72.10 71.85 70.90
49.82 45.85 44.47 55.04 59.64 62.36 61.49 54.59 61.78 62.53 62.61 62.88 64.98 58.67 63.09 66.37 67.61 68.62 70.45 71.50 72.54 72.73 73.31 72.33 73.05 75.81 76.70 75.34 74.52 74.34 74.98 74.27 74.33 74.25 73.85 73.55 73.88 74.34 74.04 72.57 71.83 71.25 71.31 70.34
47.82 46.30 49.33 58.43 59.67 62.04 51.62 54.74 61.18 61.75 61.80 62.10 61.38 62.57 65.23 66.40 66.11 67.25 68.14 70.55 71.29 73.95 73.22 75.37 75.35 77.02 75.63 75.07 74.66 75.60 75.25 74.78 74.53 74.41 74.24 74.05 74.68 74.05 72.63 72.03 71.49 71.28 69.84 70.37
49.05 46.90 44.50 60.13 58.56 56.01 57.83 60.92 60.88 61.41 61.90 61.64 62.80 63.87 64.35 64.98 65.82 66.58 67.04 68.21 70.14 70.39 72.43 75.11 75.84 76.14 75.90 74.97 75.67 75.96 75.36 74.42 73.87 74.02 73.04 73.21 73.49 73.21 72.12 71.56 70.44 69.37 69.17 68.83
54.18 53.20 59.52 60.65 59.16 60.46 60.54 59.80 60.09 60.64 61.50 61.75 62.16 63.12 63.88 63.99 64.74 65.72 66.97 67.76 69.14 69.50 70.11 72.38 74.49 74.95 73.75 75.19 75.52 75.26 74.66 73.83 73.72 73.52 73.09 72.67 71.65 70.41 68.71 69.22 68.65 68.97 67.54 67.22
52.79 56.86 58.26 59.66 60.51 61.15 60.88 60.44 61.00 61.61 62.03 62.10 61.08 62.11 62.58 63.39 63.73 64.74 65.51 66.13 67.89 68.82 69.62 71.07 72.66 73.24 72.40 70.91 68.40 71.83 68.22 68.13 69.31 69.98 70.07 70.17 70.36 69.44 68.43 68.65 68.22 67.15 66.77 66.99
55.02 56.02 57.46 58.82 59.88 60.23 60.35 61.14 61.25 61.99 61.96 62.22 62.14 62.31 62.96 62.53 64.25 64.55 65.12 66.74 67.69 67.61 69.14 70.29 71.17 70.55 70.95 68.97 70.36 68.60 69.06 67.47 68.51 69.09 68.70 68.10 69.41 68.51 68.95 68.16 65.15 67.04 67.18 67.04
50.26 58.03 57.22 58.91 60.25 60.60 59.88 60.34 61.46 61.30 61.82 63.23 62.70 60.73 62.00 60.59 62.61 62.41 62.43 63.11 64.53 66.28 68.27 69.44 69.72 69.75 70.16 70.77 69.93 68.81 67.05 67.73 67.42 67.97 68.13 68.62 68.20 66.44 53.50 53.42 50.91 48.93 46.76 54.15
56.78 58.87 59.17 59.37 60.00 59.89 59.13 60.51 61.81 61.88 63.04 62.50 61.15 63.12 60.86 60.56 61.79 61.32 63.25 61.82 60.32 61.59 64.59 66.81 68.58 68.84 70.05 70.77 70.22 70.32 68.44 69.93 68.49 66.34 67.80 66.36 65.52 65.02 64.45 57.47 48.01 46.39 46.39 46.94
59.25 57.92 55.59 58.04 57.50 59.56 60.16 60.65 60.92 62.85 63.52 63.29 62.11 63.27 63.18 60.75 58.81 59.57 60.44 62.16 61.30 59.65 58.96 59.38 59.14 59.09 61.57 65.06 68.64 67.99 68.38 58.14 67.30 65.76 65.17 64.33 64.55 64.27 63.31 64.20 63.43 62.97 48.99 50.27
57.07 58.38 57.13 58.48 59.32 59.46 60.73 61.27 60.69 60.92 62.01 61.27 62.69 61.90 61.55 59.21 56.92 56.98 58.15 58.74 60.24 60.15 58.99 58.02 57.53 58.21 60.07 60.36 59.65 60.42 61.43 62.42 63.19 63.67 62.63 61.42 64.19 64.57 63.34 63.49 62.88 63.21 65.05 50.90
57.74 57.10 57.32 57.38 58.29 59.22 59.74 59.57 60.02 60.39 61.61 61.48 61.13 61.43 60.72 60.08 58.18 56.03 55.69 55.81 55.77 54.34 56.10 57.93 57.22 57.41 60.13 61.10 60.84 59.93 59.39 58.35 58.46 59.55 61.18 62.90 62.77 62.27 62.02 62.31 63.93 64.47 62.17 60.83
55.72 54.84 56.30 56.65 57.72 58.39 59.81 60.50 60.61 59.71 59.94 60.57 61.04 61.32 60.87 60.28 59.71 58.91 57.08 54.83 54.59 55.19 56.43 56.81 57.06 58.29 58.60 60.38 60.66 61.30 60.17 60.63 60.08 60.14 59.20 61.56 61.63 61.53 62.14 62.10 63.57 63.40 62.84 58.32
58.90 59.20 59.13 58.91 58.28 58.38 59.89 59.28 58.29 58.63 58.90 60.45 61.39 61.18 60.92 60.12 58.91 58.91 59.53 58.63 59.85 59.28 58.34 58.94 58.91 59.01 61.16 60.76 58.99 59.39 60.47 61.30 61.60 61.83 61.89 61.62 61.89 62.82 62.35 61.67 61.70 61.23 62.82 61.90
59.87 59.22 58.87 58.52 59.00 58.73 59.11 59.19 58.29 58.17 58.84 59.43 59.52 58.88 59.97 59.60 59.28 59.08 58.94 57.74 58.20 58.39 56.26 58.05 57.01 58.64 58.82 58.23 58.21 60.05 59.53 59.62 59.55 59.38 60.22 58.21 60.92 61.25 61.81 62.06 62.47 61.84 61.37 58.45
59.18 59.15 58.73 58.04 58.96 57.89 58.19 59.62 60.07 60.19 59.98 60.17 59.91 59.12 58.88 58.62 58.62 58.03 57.44 54.16 54.53 55.60 57.89 57.79 57.91 57.68 58.37 58.56 57.78 58.55 57.75 58.95 59.25 59.35 60.14 60.38 59.75 59.90 59.68 55.80 57.18 57.53 58.35 60.32
58.63 58.67 57.76 57.43 57.78 58.38 58.46 59.72 59.05 58.72 59.31 59.46 58.76 58.04 56.51 56.09 55.22 55.26 54.25 53.17 56.00 57.03 56.86 56.28 57.66 57.30 57.07 56.78 57.63 57.33 57.38 56.90 57.02 57.29 59.01 58.71 59.44 59.11 58.54 58.13 58.57 58.38 57.86 57.31
58.82 58.76 58.40 58.99 59.08 59.34 59.38 59.78 59.89 59.86 58.90 58.68 57.63 57.61 55.94 54.10 54.35 54.60 55.01 53.77 55.22 51.25 55.03 56.94 57.05 54.20 55.74 53.80 57.59 56.69 55.70 55.72 55.18 55.02 55.94 57.40 57.09 56.66 56.93 56.23 55.46 56.01 56.21 55.94
58.73 57.56 58.62 58.44 58.42 59.41 59.50 59.78 59.57 58.63 57.83 56.56 56.28 54.11 53.93 55.68 55.83 53.37 51.84 55.96 55.56 54.20 55.81 56.79 52.19 51.54 52.39 56.72 56.59 56.28 55.97 56.51 56.67 56.72 57.10 56.56 55.78 55.20 55.87 55.77 56.02 55.77 55.42 55.06
57.87 58.35 58.96 59.84 59.40 59.15 57.56 57.77 58.09 57.81 56.98 56.44 57.39 57.00 57.86 55.18 54.57 55.88 55.43 51.79 51.49 51.91 55.48 55.18 54.20 50.90 50.43 58.06 57.58 57.75 57.10 56.99 56.94 56.84 56.93 51.05 56.66 56.32 55.92 55.34 54.56 54.95 54.71 53.24
57.54 57.76 56.70 58.06 58.20 58.64 58.80 58.79 57.86 57.71 56.56 56.78 57.28 57.67 57.84 57.84 56.65 55.43 55.39 55.00 49.12 52.43 54.84 47.33 50.40 51.15 57.04 55.93 55.99 56.01 55.99 55.83 55.69 55.65 55.26 54.72 54.12 53.55 53.66 53.72 53.78 53.77 53.62 53.66
57.91 56.59 57.71 59.52 59.35 59.59 58.78 57.48 55.99 55.34 55.63 54.76 55.30 56.80 56.61 56.20 55.85 56.28 56.12 54.05 55.76 52.79 56.46 56.65 56.48 56.28 56.16 55.99 55.92 55.62 54.98 54.75 55.49 54.90 54.16 54.92 54.86 54.55 54.36 54.29 53.99 54.19 53.95 53.85
58.36 53.69 57.28 59.20 59.62 59.53 58.34 55.50 54.86 54.32 54.90 55.25 54.90 56.76 56.16 55.93 55.73 54.91 51.66 55.99 56.23 56.00 56.03 56.20 56.19 54.70 56.28 56.56 55.85 56.05 55.25 55.49 49.39 55.35 55.22 55.29 55.57 55.58 55.61 54.56 55.25 55.49 54.61 54.24

GFSNGP_sfc_wetblb_072.txt.gz
Wetbulb
51.72 51.36 51.16 51.34 51.44 51.64 50.56 51.69 49.33 52.21 55.53 57.76 56.56 56.34 59.71 68.29 70.97 69.66 68.38 69.79 73.03 74.13 75.26 76.02 75.64 75.01 74.67 74.97 75.14 75.80 75.48 74.81 75.01 74.24 74.57 73.31 73.86 74.39 73.94 73.45 72.52 72.39 71.27 71.14
51.13 52.78 52.86 50.24 52.10 52.88 52.30 51.49 51.33 52.50 55.58 59.88 59.64 62.50 64.47 65.92 68.64 68.75 69.70 69.80 72.30 74.89 75.23 75.45 75.61 74.92 75.10 75.15 75.60 76.38 75.45 75.07 75.84 75.59 73.50 72.54 72.84 73.92 73.89 73.54 74.07 74.11 72.83 70.57
49.23 50.26 50.60 47.74 51.68 53.99 52.55 53.87 55.32 53.15 58.99 62.30 62.17 63.61 64.36 66.65 67.45 67.28 67.50 69.00 70.76 72.39 74.41 77.08 76.40 76.11 75.42 75.74 77.07 76.62 75.77 75.02 75.26 75.27 74.78 74.18 73.84 73.80 73.22 73.11 73.97 73.48 73.01 71.26
49.29 52.46 43.92 51.83 57.45 58.72 57.19 59.86 60.75 58.65 56.45 55.35 62.49 65.85 65.89 67.96 67.47 68.05 69.40 70.45 71.31 70.63 72.66 75.89 76.36 77.01 76.94 76.62 76.57 76.46 75.89 74.59 74.90 74.76 73.60 73.33 73.10 73.17 73.61 73.99 73.66 73.16 72.72 72.47
47.60 46.79 49.99 52.27 53.49 53.71 57.28 55.51 60.72 53.54 58.00 61.74 64.17 65.02 64.46 67.36 68.13 68.62 69.49 70.73 72.35 72.85 72.45 74.07 74.70 76.78 76.78 75.63 74.50 74.65 75.45 75.09 73.98 74.80 73.61 73.13 72.91 73.14 73.61 73.98 72.99 72.51 72.84 72.17
49.49 45.07 43.25 50.63 51.87 53.53 57.17 53.56 60.40 62.08 61.43 62.05 63.51 60.01 61.68 65.93 66.08 66.35 67.82 70.48 70.49 72.55 73.71 74.73 77.06 76.47 74.62 75.37 74.45 73.82 75.11 73.99 74.19 74.67 74.06 73.25 73.38 73.59 74.17 73.46 72.30 71.74 71.80 72.05
47.79 45.28 48.49 57.63 57.46 59.87 48.14 53.21 60.63 61.25 61.06 61.32 59.86 61.90 64.32 65.53 66.02 67.08 67.93 68.72 70.03 70.31 71.78 74.30 75.37 76.27 75.77 75.72 73.61 75.98 75.47 73.43 72.70 73.94 74.22 73.89 73.74 74.05 73.36 72.62 71.90 72.17 70.94 71.41
49.90 46.92 44.47 59.50 59.48 55.63 58.98 61.00 60.28 60.96 60.83 60.76 62.40 63.48 64.06 64.50 64.55 65.50 66.41 67.12 68.56 69.59 70.90 72.52 73.76 74.49 73.34 72.39 73.32 73.96 73.07 72.37 70.91 73.28 73.38 73.13 73.21 72.79 72.78 72.01 71.56 70.51 70.44 69.81
53.93 53.42 60.16 59.57 58.63 60.37 61.28 59.83 59.82 60.27 61.31 61.52 61.01 61.34 62.35 62.95 64.00 64.10 65.72 65.77 67.51 67.42 68.68 71.48 73.40 74.07 73.27 69.81 66.22 65.83 60.42 59.99 69.71 71.63 73.01 73.56 72.98 71.85 71.40 71.59 69.91 69.12 68.24 67.31
53.48 57.64 58.28 58.65 59.67 60.19 60.40 59.69 60.73 61.20 61.31 61.58 60.50 61.68 62.05 62.74 63.26 63.80 64.49 64.86 65.86 66.75 67.95 68.92 71.80 72.74 71.39 67.48 67.97 62.44 59.84 59.67 68.24 69.49 71.16 72.16 70.01 71.31 69.67 68.32 68.30 69.59 68.72 66.77
51.96 57.48 57.69 59.05 59.61 59.91 60.42 61.79 60.99 61.15 61.38 61.24 61.60 61.65 62.19 62.58 62.48 62.34 62.03 61.67 61.46 62.12 63.78 66.56 68.43 71.67 70.22 70.38 68.06 63.78 64.80 65.98 67.43 68.80 68.08 68.12 69.71 69.64 69.41 61.55 66.04 68.28 68.76 67.31
50.03 56.83 54.87 58.54 60.02 59.70 59.18 59.39 60.41 59.75 60.55 63.04 62.41 61.95 62.00 61.86 62.46 62.09 61.09 60.24 59.63 59.53 59.53 60.81 64.47 64.82 66.14 69.94 70.01 68.10 67.32 66.56 67.00 67.47 67.45 67.97 67.79 65.27 57.08 56.46 50.68 47.12 46.49 58.42
54.68 55.07 59.47 59.08 60.15 60.27 58.66 58.58 59.89 60.07 61.57 62.03 62.82 61.54 61.89 60.99 61.54 60.05 61.57 60.58 59.05 58.58 58.51 58.72 59.15 59.41 59.98 62.28 64.40 66.25 66.65 67.26 67.36 64.75 66.20 66.09 67.72 66.28 61.22 57.31 47.78 44.68 45.60 46.69
59.52 59.45 56.99 57.65 56.14 58.24 59.03 59.65 59.66 61.28 62.57 62.84 62.58 62.82 62.22 60.86 60.65 60.73 60.03 60.82 61.15 60.04 58.85 58.03 57.94 58.12 59.50 60.19 59.56 59.21 58.60 56.76 63.74 63.07 63.70 63.11 65.34 65.02 62.59 61.02 58.93 60.09 48.25 49.17
56.90 57.39 56.21 57.90 58.98 58.89 59.58 59.37 58.82 60.05 61.81 61.94 62.77 61.50 60.91 59.88 58.97 59.19 59.68 58.77 57.94 57.81 56.89 56.95 55.94 55.96 59.19 60.26 58.64 58.32 57.56 57.02 57.44 57.90 58.77 59.80 61.93 61.78 60.66 60.53 63.31 63.57 59.06 50.91
57.41 56.43 56.46 57.11 57.04 58.54 59.47 60.62 59.96 60.08 61.04 60.81 61.26 60.48 59.53 59.46 59.11 59.11 59.26 59.06 57.16 55.14 55.07 56.24 56.40 57.08 58.58 60.36 59.61 58.95 58.77 55.82 55.66 56.42 56.44 57.21 58.49 60.39 60.61 60.75 60.20 61.42 61.85 60.51
54.41 54.34 56.45 54.22 56.99 57.66 59.11 60.09 60.16 59.05 59.28 60.01 60.07 60.26 60.18 59.74 59.40 59.23 59.18 59.09 58.74 58.55 58.01 58.92 57.61 59.00 61.21 60.89 60.65 61.23 60.22 59.05 56.36 57.21 56.76 57.06 59.17 59.85 60.15 60.32 60.80 61.30 60.17 58.25
57.19 57.40 58.16 58.89 58.45 58.77 58.24 58.39 58.02 57.12 55.45 58.22 58.70 59.40 60.12 59.76 59.44 59.76 59.84 59.86 59.44 58.46 58.48 58.23 57.15 58.46 59.82 59.10 58.10 58.57 59.16 60.89 60.10 58.41 58.87 58.86 58.85 59.60 60.32 59.75 60.39 60.86 59.72 55.59
58.30 59.21 59.02 59.34 59.54 58.91 59.42 58.56 57.92 57.65 57.01 56.97 57.92 58.46 58.77 58.09 57.97 59.17 58.17 57.57 57.09 57.11 56.47 58.47 57.46 58.85 58.82 58.09 57.72 59.17 59.12 59.22 59.73 60.89 60.49 57.89 59.95 60.93 60.36 60.81 60.80 60.19 59.82 57.80
58.06 59.02 59.19 58.83 59.26 59.39 58.49 58.48 59.97 57.98 58.98 59.63 59.42 58.52 57.99 58.07 58.16 57.56 56.69 55.03 55.60 56.02 57.18 57.24 57.60 57.92 58.35 58.53 57.62 58.01 57.37 58.03 58.61 59.36 58.47 59.66 59.51 57.10 57.19 54.09 57.50 58.74 58.69 57.59
58.38 58.72 58.39 58.88 57.64 59.20 58.96 58.91 59.24 59.15 59.39 58.30 57.53 57.27 57.21 56.43 55.98 55.53 54.34 53.05 56.26 56.84 56.72 56.51 57.17 56.22 57.36 56.67 57.56 56.88 57.06 57.36 57.58 58.61 59.11 59.32 58.70 57.20 56.78 56.98 57.25 55.72 55.70 55.96
58.25 58.10 58.42 57.52 56.51 56.54 59.80 59.75 59.52 58.27 58.07 58.06 58.13 57.44 56.16 54.74 54.89 55.37 56.27 55.04 56.04 51.92 55.15 57.34 56.28 54.08 55.76 53.91 57.54 56.88 56.19 56.28 56.31 57.67 57.18 57.64 56.83 56.16 56.00 55.73 55.26 55.73 55.78 55.80
57.93 58.57 58.55 58.95 56.90 58.70 60.10 59.54 57.30 58.22 57.90 57.88 56.81 55.26 55.31 55.66 55.46 54.36 53.14 56.25 56.02 53.69 55.78 56.70 52.70 52.80 53.90 55.82 56.90 57.20 57.07 56.89 56.73 55.04 55.91 56.13 56.05 56.27 56.05 55.96 55.19 54.94 55.03 54.68
57.07 57.61 57.87 59.18 59.25 59.02 57.64 58.61 58.21 57.82 58.17 57.06 56.57 57.18 57.37 55.44 55.39 55.35 54.26 51.77 51.70 51.60 55.43 54.92 54.36 51.91 50.26 54.69 57.25 56.77 56.60 56.66 57.13 57.22 56.86 51.06 55.85 55.59 55.68 55.34 54.40 54.31 53.92 52.39
57.74 57.76 57.88 56.92 56.94 57.78 58.92 59.34 57.70 57.38 57.41 56.92 57.38 57.76 58.58 58.36 58.30 55.19 55.39 53.92 48.89 51.02 54.07 49.14 50.92 50.70 54.81 55.63 56.00 55.67 55.86 55.64 55.09 55.37 54.73 54.61 53.48 53.08 53.76 54.18 53.64 54.13 54.01 53.96
58.64 56.87 57.00 58.83 58.57 59.30 58.54 58.00 56.09 56.21 56.33 55.52 56.39 57.40 57.71 56.25 55.76 55.90 55.97 53.71 55.08 52.53 55.62 56.14 55.83 55.71 55.70 55.53 55.17 54.38 54.18 54.28 54.54 54.24 53.84 54.72 54.59 54.02 53.45 53.10 53.07 53.40 53.73 53.56
59.07 53.68 57.77 57.80 59.08 59.36 59.19 56.92 55.78 55.41 54.96 56.51 55.43 56.00 56.26 55.69 55.30 54.31 52.66 55.33 55.71 55.44 55.42 55.99 55.56 54.14 55.40 55.58 55.17 55.04 54.84 55.00 50.04 54.71 54.91 54.74 55.23 55.24 55.07 54.79 54.71 54.88 54.77 54.77

GFSNGP_sfc_wetblb_075.txt.gz
Wetbulb
48.60 50.46 50.76 49.55 49.09 49.53 47.71 46.13 45.65 46.75 51.85 52.14 54.25 56.06 62.85 63.03 60.11 63.53 65.17 66.45 67.53 68.41 68.80 70.42 69.64 70.40 71.35 71.62 72.75 72.89 72.25 71.46 71.09 70.97 70.98 70.37 69.84 69.78 69.06 68.95 69.03 69.77 69.11 68.09
48.16 51.73 50.59 50.18 52.50 52.48 53.18 53.95 52.37 53.03 53.01 55.23 56.95 58.95 62.30 59.20 62.47 65.51 66.35 68.25 69.92 71.30 70.45 70.56 70.75 70.21 71.12 71.24 71.14 72.61 72.18 72.00 71.96 71.46 71.31 70.54 69.93 69.61 69.05 68.34 68.33 67.61 66.73 66.88
43.46 49.42 49.41 45.61 53.39 55.66 55.26 53.82 55.00 50.62 54.78 59.23 60.25 61.72 61.66 62.64 65.03 66.01 67.60 69.00 67.87 67.56 68.54 71.50 71.26 70.45 70.43 71.10 71.95 72.47 72.20 72.26 72.24 71.48 70.64 69.65 69.65 70.15 68.58 67.40 67.72 67.25 67.28 67.08
43.77 46.39 39.03 48.77 54.67 57.11 53.03 54.72 55.37 53.85 55.99 58.57 60.09 61.27 62.00 63.47 64.14 65.89 67.21 68.20 68.33 68.74 69.35 67.84 69.30 72.26 71.76 73.41 72.51 72.50 72.14 71.92 71.92 72.11 69.97 70.27 69.89 69.62 68.28 68.02 68.05 68.42 67.63 67.12
41.57 41.01 46.16 52.68 50.50 51.81 50.92 47.67 55.82 54.16 53.83 58.46 57.62 58.59 59.91 63.55 64.09 63.78 65.10 67.94 67.65 68.39 69.60 71.22 72.24 73.44 72.87 72.34 73.04 72.98 72.99 72.17 72.46 72.05 71.06 69.49 68.91 68.15 68.59 68.79 68.62 67.95 67.92 67.57
44.22 40.13 39.55 50.64 52.39 55.07 53.69 46.42 56.46 58.06 53.98 58.12 53.57 50.14 55.15 62.57 64.07 64.23 64.90 65.71 67.06 67.35 67.72 68.36 69.52 71.09 71.71 70.57 71.46 71.33 73.16 72.90 72.95 72.24 70.72 69.46 69.02 68.99 69.10 69.25 68.51 68.04 67.14 66.85
43.98 41.84 48.49 54.26 54.11 55.57 45.14 48.31 58.74 58.59 58.81 58.78 51.98 55.48 61.65 63.41 62.67 62.87 63.76 63.74 64.61 64.91 66.54 67.58 68.88 69.96 70.10 69.63 68.38 69.82 71.06 67.52 62.67 61.13 61.40 68.20 69.11 69.08 68.71 68.76 67.48 66.78 67.12 65.91
44.85 41.77 39.91 57.09 55.92 52.26 54.81 56.91 58.35 58.33 58.28 58.49 59.40 60.35 60.81 62.06 60.69 61.72 61.92 62.78 63.02 63.00 64.14 66.31 68.18 69.22 68.37 67.88 65.54 65.48 63.86 62.11 61.18 60.31 63.08 62.60 62.94 66.74 68.10 66.71 66.17 66.46 65.86 66.65
46.41 47.13 54.84 56.59 55.45 57.78 57.57 56.31 57.14 57.74 58.26 58.22 58.10 59.66 60.39 59.40 60.43 60.80 59.94 59.13 59.75 59.71 61.11 63.13 65.33 65.53 66.87 64.75 64.54 62.14 61.57 59.64 60.92 60.24 62.56 61.79 61.06 62.06 66.89 67.36 66.46 65.36 65.07 64.33
48.99 53.56 54.99 55.86 57.23 57.99 58.24 57.67 58.41 59.06 59.05 59.39 58.21 58.75 59.51 59.94 59.44 58.90 58.60 57.91 58.64 59.45 58.53 59.23 62.26 62.76 68.04 65.59 62.56 60.08 58.08 57.86 59.61 61.39 63.81 59.37 60.79 63.86 66.80 66.12 65.40 64.61 64.82 63.53
49.72 53.66 55.87 54.04 56.08 58.01 59.35 59.63 58.92 58.70 60.43 59.95 59.60 59.52 59.67 59.11 59.12 58.61 58.08 57.37 57.23 56.60 57.46 58.06 58.81 58.85 60.57 63.82 61.75 59.44 58.72 58.32 58.99 59.84 60.74 65.55 65.46 64.42 65.28 61.29 62.33 63.99 63.53 63.66
46.98 52.31 51.12 50.52 55.77 58.48 56.48 56.39 57.83 56.32 59.41 61.26 60.69 59.22 59.31 58.12 58.79 58.78 57.15 56.87 55.84 56.10 56.34 56.46 57.88 58.10 58.58 59.80 61.89 65.02 63.41 62.21 62.21 61.68 64.72 64.65 61.38 60.08 53.54 55.55 51.95 50.96 53.34 56.82
53.95 54.68 53.45 53.67 55.59 58.57 56.80 57.39 58.14 56.59 59.59 59.92 60.30 59.25 58.94 57.30 57.55 57.96 57.97 57.11 56.20 55.42 55.18 55.80 56.64 57.87 58.32 59.07 58.93 58.10 57.52 60.46 62.61 61.09 62.86 62.31 62.47 60.38 59.15 56.18 47.74 44.66 44.26 47.16
56.78 56.27 55.15 55.28 52.72 56.02 57.13 58.59 58.26 59.63 60.94 59.88 59.53 60.15 59.10 58.02 57.87 57.19 56.42 57.04 57.05 55.90 55.66 55.58 55.27 54.86 58.24 59.12 58.56 57.80 57.12 53.97 57.20 57.02 59.29 60.55 60.91 61.42 59.67 58.19 55.71 55.32 47.16 47.18
56.14 56.41 53.36 55.44 56.38 57.84 59.49 59.54 58.74 58.52 59.34 59.54 59.25 59.33 58.59 56.44 56.02 55.82 56.14 56.29 55.49 54.61 54.63 55.41 55.39 55.23 57.02 59.54 58.28 57.70 57.16 57.24 57.16 57.28 56.78 56.92 58.32 59.75 60.15 59.48 58.09 57.73 53.52 49.12
54.81 54.79 55.57 55.82 57.00 57.59 58.03 58.75 56.86 56.77 58.10 58.19 57.45 57.79 57.23 56.95 56.14 55.94 55.82 56.03 53.71 53.17 56.28 55.12 54.13 55.60 58.97 59.07 58.75 58.36 57.08 55.86 56.06 57.08 57.59 58.25 58.85 58.89 58.84 59.24 59.52 59.89 58.28 58.02
50.95 51.45 53.71 55.22 56.30 56.48 56.29 57.38 57.03 55.99 56.57 56.30 56.86 57.37 57.94 57.55 57.00 57.35 56.22 56.45 55.67 54.75 54.85 54.32 53.84 55.56 56.75 55.32 54.57 56.34 58.49 57.97 56.08 55.82 57.40 58.39 58.81 58.82 58.87 58.83 59.19 59.46 58.89 56.22
54.06 54.13 56.18 57.26 56.26 54.95 56.06 56.36 55.68 55.34 54.46 55.50 56.30 56.78 56.94 57.54 56.56 56.38 55.89 56.32 55.72 56.11 56.12 56.67 54.28 55.24 56.51 55.04 54.46 54.58 55.45 56.50 57.92 56.70 55.76 57.05 57.27 58.30 58.72 58.87 59.26 59.19 58.29 57.14
58.11 57.22 57.75 58.04 57.60 57.27 56.70 56.09 55.42 55.43 56.71 56.35 55.46 54.84 55.57 56.59 56.49 55.29 54.38 53.35 51.96 51.85 53.37 54.77 56.45 57.20 55.58 56.15 56.21 55.20 55.11 55.69 56.16 57.06 58.34 56.50 56.72 57.95 58.53 58.10 57.68 56.98 56.96 56.78
57.91 58.29 57.97 57.73 58.01 54.03 53.48 55.49 57.76 56.70 57.09 56.89 56.33 55.63 54.81 54.48 54.64 53.56 52.55 51.32 51.44 52.54 53.33 53.97 55.75 55.75 55.38 56.29 56.98 54.24 54.54 55.71 55.71 55.54 56.17 55.22 55.28 55.35 54.86 52.42 55.15 55.12 54.58 54.41
57.43 57.89 57.41 56.89 55.14 54.88 55.65 56.76 55.04 56.67 56.98 57.28 55.17 54.50 52.70 52.82 53.01 52.01 50.83 50.57 52.73 54.92 51.63 55.06 55.21 55.20 55.38 53.40 54.55 53.79 53.87 54.03 54.17 55.39 56.16 54.91 53.82 54.09 54.97 54.82 55.05 54.97 54.43 54.45
56.72 56.51 56.58 55.23 53.50 53.48 53.99 53.44 54.22 56.83 56.23 56.36 55.84 54.74 52.96 51.84 52.11 53.32 54.31 52.86 53.71 52.15 53.56 54.99 54.25 53.38 53.54 53.33 53.35 53.44 54.35 53.88 54.31 54.97 54.81 54.33 52.75 52.65 53.17 53.34 52.99 52.78 51.55 50.93
56.00 56.61 56.87 56.79 55.84 55.24 54.12 56.97 54.39 56.58 56.21 55.01 53.44 52.24 51.56 52.42 51.61 50.83 50.13 52.63 53.22 52.13 51.34 53.20 51.50 52.88 52.41 50.97 53.11 53.85 53.29 54.61 53.36 53.58 53.66 53.37 53.48 53.61 52.60 51.73 50.38 50.19 50.04 49.89
54.67 55.21 54.67 55.40 56.21 56.34 54.47 55.77 56.22 56.14 55.16 54.98 53.48 53.47 52.87 52.86 53.92 51.17 49.76 49.34 50.35 49.10 50.68 51.15 51.61 51.30 50.63 51.52 52.18 53.56 53.12 53.27 53.05 52.42 52.24 48.61 50.36 50.29 50.42 49.83 47.64 46.89 46.23 46.20
56.19 55.45 55.76 55.18 54.22 55.14 55.62 56.23 55.85 55.20 55.48 54.55 54.30 54.70 54.88 55.92 53.67 52.35 50.89 49.48 48.58 48.10 50.05 50.07 49.94 49.73 49.22 51.53 52.47 51.51 50.06 49.61 50.69 52.09 49.36 48.97 47.82 47.91 48.42 48.30 48.07 47.89 47.80 47.90
56.25 55.87 55.60 55.82 55.97 56.29 56.24 56.16 54.75 55.18 55.24 53.71 54.61 55.41 54.97 54.35 51.22 52.00 51.92 51.38 51.25 49.50 50.13 51.26 51.03 50.64 50.38 49.57 49.18 48.62 48.48 49.03 48.91 47.81 48.87 48.30 47.63 47.27 46.94 46.61 46.63 47.75 47.76 48.07
57.51 53.22 55.87 55.60 57.55 57.57 56.65 54.91 53.39 53.15 53.96 54.02 52.48 54.06 54.95 52.61 51.77 51.80 50.69 51.41 51.18 51.40 50.97 50.66 50.70 50.08 51.88 50.15 49.73 49.78 49.96 48.67 46.93 48.50 49.43 49.42 49.38 49.19 49.33 49.50 49.19 49.68 48.97 50.05

GFSNGP_sfc_wetblb_078.txt.gz
Wetbulb
45.98 49.24 49.77 48.55 48.35 52.09 47.47 47.42 42.34 42.74 47.86 50.69 54.97 53.58 54.82 57.76 60.65 62.03 60.82 61.28 64.21 65.64 66.54 68.82 68.77 69.81 71.33 71.40 70.68 71.89 71.07 70.89 70.54 70.39 69.82 69.77 69.63 68.90 68.42 67.61 67.95 67.42 67.41 68.06
44.28 50.04 54.30 53.01 55.04 54.75 52.06 51.40 52.26 50.92 49.02 55.54 56.08 56.35 56.45 57.32 58.52 59.87 61.42 65.08 64.65 64.58 65.20 63.14 66.37 68.48 70.77 71.02 70.93 71.70 71.06 70.75 70.67 70.25 69.90 69.58 68.79 68.57 68.18 67.29 67.35 67.29 67.71 67.63
40.32 46.88 48.31 46.87 52.12 52.12 52.45 53.29 51.50 49.44 52.26 57.22 58.29 59.41 60.16 61.60 61.85 64.43 65.94 63.08 61.82 64.07 63.28 64.02 60.52 63.87 69.15 69.95 71.62 71.37 71.23 71.14 70.96 70.62 69.95 69.88 69.40 68.73 67.61 66.68 66.40 66.31 65.53 65.56
40.62 42.52 38.08 49.27 54.91 54.49 51.65 52.18 54.84 52.58 54.02 56.54 57.75 58.62 60.38 60.91 61.47 63.46 65.27 65.69 66.02 64.71 64.92 67.19 68.25 70.47 71.13 71.12 70.79 70.98 71.14 71.19 71.28 71.50 69.02 68.51 67.79 66.04 67.80 66.66 66.63 65.71 65.64 65.85
40.02 40.33 46.27 50.10 51.71 50.91 51.66 49.66 55.36 55.33 56.35 55.76 56.99 57.10 57.36 61.17 62.01 61.99 62.81 63.26 64.56 65.00 67.16 66.56 67.07 69.29 70.35 69.58 70.84 71.05 71.18 71.01 71.24 69.46 63.10 63.57 63.07 62.22 63.68 65.47 66.02 66.58 66.65 66.20
41.13 39.43 37.82 48.19 52.52 54.75 53.63 46.47 55.83 57.08 54.88 54.84 55.66 49.81 51.59 57.67 61.99 61.74 62.05 61.89 62.25 63.20 64.46 64.87 65.87 67.63 68.60 67.79 66.69 66.30 67.88 70.79 67.66 65.78 64.42 61.12 58.20 60.83 61.68 60.93 60.69 67.52 67.07 66.80
39.92 39.65 46.43 52.40 53.55 54.78 41.64 44.06 54.44 55.36 55.77 55.97 53.30 52.68 55.31 61.20 61.10 60.79 59.67 58.80 59.74 60.05 60.77 62.11 64.32 64.54 66.17 65.94 64.02 64.66 65.16 64.08 63.06 65.11 64.87 61.70 60.85 61.30 60.34 60.40 60.68 66.56 66.35 65.79
40.50 39.81 39.14 54.77 54.61 50.59 51.97 54.82 54.56 55.67 57.64 58.00 55.34 57.16 58.61 60.73 58.95 58.02 57.36 58.14 59.18 58.74 59.23 60.70 62.05 62.87 62.80 64.73 63.90 63.12 61.61 60.92 61.32 62.44 64.16 62.90 61.54 61.36 58.92 60.16 60.12 65.72 65.24 65.22
43.12 44.06 52.18 53.68 53.33 57.40 55.92 54.90 55.37 55.75 57.36 58.33 56.81 59.56 59.84 58.81 57.90 57.28 57.24 57.21 57.86 57.57 57.19 59.05 59.77 60.35 60.97 64.20 63.77 60.84 58.78 58.58 58.03 60.00 62.19 62.03 60.91 60.52 59.99 59.54 63.67 65.64 65.19 64.33
46.18 50.81 52.57 52.81 55.78 57.51 57.56 55.92 56.97 57.77 58.10 58.11 56.95 58.86 58.32 58.00 57.17 56.59 56.61 56.39 56.45 55.45 56.09 56.49 58.48 59.01 59.05 60.42 63.86 58.92 57.52 56.60 57.71 58.19 58.84 58.32 60.31 59.90 59.38 60.22 60.70 64.26 64.37 63.95
47.43 52.92 52.79 53.94 54.41 56.18 57.36 58.03 58.03 59.27 59.33 58.54 58.48 58.35 57.62 57.17 56.23 56.07 55.57 55.67 55.47 54.60 54.86 55.45 57.48 57.12 57.57 58.91 60.45 61.42 57.97 56.92 58.24 58.03 61.22 59.22 59.00 58.06 59.42 62.73 64.33 64.86 65.16 64.57
45.45 52.43 52.83 51.84 54.64 57.09 56.14 56.22 56.48 58.46 58.31 59.68 59.35 57.78 57.39 56.75 56.75 56.66 54.82 54.62 54.09 53.82 54.16 55.59 56.13 56.76 57.25 57.63 58.41 58.08 61.93 62.18 60.85 62.42 61.39 62.76 60.84 58.70 51.62 49.95 51.29 51.31 52.40 59.71
50.72 53.43 52.32 53.69 54.62 56.41 55.57 55.03 56.86 55.40 59.02 58.39 57.61 57.40 56.71 55.95 56.05 56.69 58.02 56.86 54.07 53.96 53.78 53.31 53.27 53.79 56.01 57.47 56.45 56.53 56.19 57.33 58.12 59.95 60.27 61.22 61.14 59.51 56.61 53.41 47.81 46.04 46.40 47.69
53.42 53.72 52.32 53.46 51.83 55.01 56.05 59.40 58.67 59.94 59.28 58.76 58.26 57.76 57.01 56.77 55.27 55.33 54.33 55.36 54.00 53.30 53.33 53.47 53.15 53.38 54.91 58.07 58.07 57.25 57.31 53.53 56.73 57.17 58.34 58.74 60.45 61.46 59.76 58.46 55.91 53.86 43.95 44.10
53.29 54.36 52.08 53.81 55.96 56.98 57.85 57.85 56.71 56.47 57.08 56.94 57.38 56.71 56.13 54.53 53.49 53.52 54.10 54.14 53.65 53.10 53.49 53.34 52.35 53.44 55.65 57.15 57.75 56.83 56.35 56.91 57.29 57.69 57.47 56.43 59.32 60.08 60.08 59.37 56.85 52.61 49.90 46.49
52.22 53.67 53.61 54.74 55.27 56.05 56.12 55.81 54.84 54.72 55.51 55.37 55.38 55.79 55.48 54.98 54.66 54.21 54.56 54.34 52.08 51.20 52.74 52.49 51.57 52.95 54.44 53.71 54.27 56.97 56.85 55.26 55.43 57.54 57.78 58.16 57.95 58.75 59.42 59.30 57.95 57.07 57.07 53.80
46.65 48.79 51.93 52.73 54.02 54.03 54.90 55.12 54.80 54.68 54.88 54.84 55.41 56.22 57.02 56.91 56.01 56.05 55.63 55.44 53.91 53.30 52.91 51.74 52.07 53.02 54.38 53.51 51.52 52.08 54.03 57.75 55.41 56.53 57.53 58.14 58.21 57.76 58.02 59.24 59.50 58.24 58.46 56.71
48.95 49.58 53.71 54.72 52.79 54.08 54.90 54.32 53.78 53.53 52.70 53.75 53.65 53.16 52.43 54.65 55.42 54.61 53.55 52.50 53.52 51.85 52.28 53.27 52.48 53.50 54.21 53.33 52.93 52.36 52.85 52.97 54.95 55.28 55.41 56.64 56.96 58.28 58.43 58.29 59.30 58.78 58.00 54.46
56.01 56.20 56.11 56.22 54.83 54.00 53.28 53.06 52.87 53.12 53.76 53.90 52.39 51.56 52.59 53.72 54.15 53.02 52.54 51.00 50.13 48.56 50.03 52.15 55.91 55.94 53.37 54.55 55.42 52.65 53.49 53.83 53.63 54.12 54.66 54.68 56.72 57.05 58.04 58.22 58.62 58.64 58.15 56.91
55.37 55.27 54.22 53.90 54.15 54.11 53.79 54.49 54.55 54.21 54.51 53.80 53.67 53.23 51.91 51.37 51.49 51.54 50.83 49.18 49.63 51.12 50.69 52.50 54.75 54.78 51.90 52.65 55.90 52.53 52.74 53.24 53.70 53.21 52.84 53.51 53.90 53.21 52.30 51.01 54.04 54.92 55.00 54.82
54.61 55.04 53.94 53.46 52.69 53.76 52.81 53.37 54.27 54.51 55.53 55.09 53.49 51.59 50.36 50.12 49.89 49.11 49.18 48.57 50.48 51.88 51.65 54.55 54.24 53.86 52.68 51.93 52.03 51.66 52.12 52.28 54.56 52.80 51.77 51.64 52.91 53.14 53.47 54.15 53.59 54.00 53.94 53.52
53.48 52.62 51.70 51.67 51.55 51.16 51.94 51.62 52.80 54.73 55.03 53.84 53.08 51.98 50.29 48.74 48.30 48.76 50.12 49.85 50.67 51.74 52.39 53.70 51.71 52.79 51.45 52.50 51.73 53.84 54.09 53.96 53.94 53.92 53.49 53.34 53.15 52.92 53.06 53.15 53.06 53.40 52.87 52.42
52.41 52.86 53.67 51.84 50.59 50.48 51.66 52.96 51.93 52.90 53.47 53.74 51.70 50.46 49.30 48.70 48.58 47.68 47.56 50.48 49.08 49.08 48.62 51.10 51.14 52.35 51.78 49.16 48.91 50.48 51.85 52.08 53.04 52.95 52.78 52.75 52.72 52.12 51.78 51.16 50.44 50.04 49.35 48.88
50.38 50.72 50.41 51.19 53.11 52.41 50.99 52.33 53.43 53.51 53.40 52.74 51.37 50.34 49.59 49.22 50.19 49.72 48.05 48.48 48.78 47.69 47.93 50.23 50.34 50.93 50.12 49.99 49.50 48.67 49.83 51.30 50.23 50.31 50.80 46.98 48.89 48.36 47.77 47.59 46.85 45.35 45.22 45.25
50.60 50.91 51.39 50.97 49.83 51.42 51.28 52.30 52.39 52.41 51.83 50.77 51.20 51.47 51.90 51.86 51.40 47.38 46.84 47.41 48.25 46.78 46.99 48.63 49.40 49.05 47.50 49.27 50.32 51.31 48.55 49.55 53.82 51.66 49.58 46.52 46.08 46.27 45.81 45.45 44.98 44.61 44.62 45.24
51.31 51.16 53.12 53.25 53.32 53.52 54.10 52.18 51.14 51.15 51.80 51.78 50.96 51.90 53.66 54.45 49.23 48.34 47.27 46.91 47.27 47.60 46.99 47.18 48.05 48.25 46.39 46.25 45.50 45.85 46.15 47.98 46.62 45.80 45.26 45.78 45.35 45.43 45.35 45.19 45.41 45.67 45.85 46.23
52.23 49.37 52.67 51.04 53.16 53.86 53.88 52.38 51.25 50.81 51.26 52.35 50.82 50.49 51.85 50.14 48.05 48.36 47.32 48.21 48.56 48.17 47.93 47.82 47.84 47.30 46.73 46.46 46.48 47.26 46.49 46.19 45.96 46.81 46.54 45.96 45.39 45.24 45.19 45.35 45.96 46.10 45.81 45.92

GFSNGP_sfc_wetblb_084.txt.gz
Wetbulb
43.23 44.91 47.05 47.86 50.01 51.27 44.70 40.58 40.00 42.08 46.85 52.84 54.01 55.82 58.45 61.24 60.06 60.36 61.95 62.64 62.46 62.98 63.46 62.85 62.53 64.90 66.60 68.52 69.83 69.94 69.08 68.90 68.54 69.36 70.41 70.00 69.46 68.92 68.54 67.96 67.71 67.64 67.50 67.80
42.22 46.35 46.84 48.19 47.79 48.20 51.11 51.46 52.15 51.99 50.70 57.30 58.16 59.48 60.24 61.50 60.65 59.51 59.49 59.67 60.55 61.86 63.16 63.67 63.82 64.26 66.16 67.15 65.36 65.56 64.57 64.46 64.10 68.45 69.40 69.15 67.57 67.46 67.55 67.69 67.66 67.48 67.17 66.76
35.95 42.95 44.94 43.89 48.81 49.47 51.13 51.55 51.00 47.25 53.04 56.82 56.23 56.75 58.82 58.94 59.74 60.45 61.74 60.88 61.40 61.64 61.98 62.16 63.72 63.62 66.10 67.32 65.99 64.50 63.34 63.16 64.33 64.48 68.00 67.53 66.95 66.72 66.97 66.45 66.61 66.90 67.21 66.79
35.84 39.15 32.66 45.67 52.22 53.01 51.55 52.76 53.83 54.50 54.26 54.01 54.35 55.62 57.79 59.51 59.46 59.76 60.71 61.30 62.27 62.44 62.76 65.43 66.23 66.54 68.09 69.64 64.72 64.08 61.98 62.02 63.74 64.56 67.49 66.02 65.53 65.99 66.45 66.38 65.58 66.08 66.57 65.79
34.70 34.98 41.26 49.25 48.88 47.57 47.64 49.69 54.67 53.08 54.30 54.10 54.85 55.49 55.27 58.71 60.87 59.61 59.93 60.42 61.43 62.56 63.47 63.00 62.05 62.97 66.43 66.97 67.22 66.07 62.65 61.70 63.59 67.98 66.40 64.97 64.64 64.50 64.85 65.44 65.44 65.80 65.03 64.07
36.99 35.17 36.29 45.60 51.47 53.44 53.27 45.20 55.26 54.62 54.12 54.73 55.64 49.14 51.79 57.62 61.06 58.87 58.88 59.23 59.33 59.92 59.98 59.59 60.28 61.29 62.74 63.84 63.69 63.36 64.51 64.99 66.07 69.15 66.22 65.10 65.16 64.91 65.58 64.58 64.02 63.40 63.50 62.24
39.11 37.69 44.17 51.97 53.23 54.84 42.19 42.88 54.73 54.85 54.77 55.05 51.29 52.39 56.77 59.80 58.37 58.17 58.20 57.87 58.60 57.97 57.12 57.93 59.91 60.68 60.43 60.66 59.81 61.71 63.99 63.16 63.60 66.22 66.11 65.75 63.65 62.35 61.08 62.42 62.38 61.17 60.87 61.10
37.93 38.25 36.82 52.21 53.19 47.84 50.05 53.25 54.36 54.99 55.08 54.30 57.02 57.96 57.47 57.20 56.90 56.90 56.14 56.32 57.75 56.76 56.82 57.54 57.62 56.93 56.82 56.66 59.02 60.70 62.93 61.46 60.82 60.69 63.33 64.17 62.95 62.43 61.72 61.09 60.30 60.96 59.95 59.85
40.99 42.10 49.95 51.69 51.65 54.12 54.83 55.25 55.77 55.50 56.97 56.07 57.60 56.66 56.22 55.15 55.41 55.62 55.90 55.80 56.42 55.82 55.51 56.14 56.56 56.29 55.26 56.14 57.48 58.60 60.78 60.95 59.29 59.01 59.23 60.04 60.91 61.25 60.73 59.84 59.15 59.65 59.47 59.75
45.04 48.05 50.21 52.23 53.64 54.88 55.19 54.68 56.77 57.33 57.43 58.49 57.29 56.99 55.58 54.89 54.37 54.24 54.70 54.30 55.48 55.27 55.07 55.23 56.22 56.44 56.92 57.12 57.16 56.62 56.88 58.88 60.37 59.03 58.17 60.58 59.45 59.96 60.60 59.25 58.83 59.53 60.49 61.69
45.73 49.86 51.30 52.53 53.36 53.67 54.28 55.77 58.17 58.39 58.13 58.40 57.71 56.54 55.66 54.52 54.04 53.99 54.04 53.99 54.41 54.28 53.97 53.63 54.45 54.83 55.86 56.58 56.70 55.84 56.00 56.52 57.86 58.79 60.32 61.17 61.26 56.92 57.57 59.97 56.66 59.89 60.69 62.27
43.78 49.00 48.92 49.24 52.79 55.88 54.25 54.58 54.81 56.29 57.36 58.76 57.85 56.88 56.22 54.98 55.15 54.66 53.72 53.65 52.80 52.88 52.85 53.34 53.94 54.47 55.48 56.10 56.70 56.00 55.70 56.40 56.34 57.16 58.39 60.50 61.33 57.08 47.25 46.18 44.02 42.59 45.54 54.75
49.80 52.88 52.57 52.76 54.43 55.83 54.11 54.64 55.51 57.01 58.21 57.37 57.74 57.16 56.48 55.20 55.40 54.98 54.61 53.42 52.77 52.79 52.89 52.69 52.79 53.58 54.65 55.58 55.17 54.87 55.38 56.18 55.86 56.52 58.21 58.03 58.71 60.06 58.99 51.32 44.17 42.16 40.94 43.55
53.67 53.98 52.29 53.66 52.09 55.49 55.56 58.91 57.81 58.38 57.98 57.31 57.02 56.81 56.08 55.20 55.42 55.23 54.61 54.12 53.83 53.92 53.86 53.83 52.99 52.80 54.02 54.85 53.95 53.08 54.25 51.98 56.36 57.46 58.29 58.49 58.21 60.18 59.11 56.94 56.34 51.99 45.51 44.07
53.71 55.02 53.15 54.02 56.65 57.11 57.95 56.99 55.62 55.80 56.09 55.76 56.52 55.82 55.64 54.37 53.65 53.43 54.08 54.06 53.81 53.60 54.00 53.90 53.24 52.69 53.58 54.53 53.83 52.66 53.54 54.84 55.78 57.44 58.25 57.16 58.91 58.65 56.52 54.46 52.44 51.61 52.32 46.92
52.45 53.18 53.20 52.95 54.95 55.23 54.89 54.67 53.87 54.16 54.69 55.21 55.34 55.48 55.05 54.22 53.24 53.48 54.10 54.58 53.80 53.28 53.76 53.62 53.01 53.49 53.47 53.91 53.47 53.75 53.88 53.16 53.57 56.10 57.40 57.52 58.37 57.76 56.52 56.32 55.44 54.91 54.39 53.52
50.53 50.36 52.32 52.73 53.09 52.65 53.18 53.20 53.46 53.89 54.20 54.20 54.68 55.01 55.15 55.07 54.91 54.71 55.43 56.28 56.08 55.18 54.37 53.35 52.99 53.40 53.50 54.16 53.21 53.90 53.51 53.67 53.56 55.05 56.74 57.46 58.64 58.55 57.28 57.50 57.08 56.38 55.94 54.00
51.47 51.94 53.79 53.83 53.24 51.67 53.67 54.24 54.20 54.42 53.61 54.07 52.99 52.74 52.49 53.77 53.35 53.72 53.01 52.60 53.35 52.86 52.76 52.31 52.66 53.71 53.93 53.40 54.50 53.98 53.09 53.34 54.33 54.54 55.74 56.58 57.69 59.33 58.31 58.02 57.84 57.30 56.08 51.99
52.03 50.03 53.47 54.34 53.66 53.92 54.38 53.52 53.85 54.05 53.58 53.19 52.40 52.13 52.29 53.47 53.31 52.67 51.65 50.84 50.31 49.98 51.52 52.53 53.71 54.65 53.38 53.50 55.35 53.43 52.95 53.04 54.11 54.55 55.20 54.41 56.72 57.55 58.63 58.22 58.03 57.20 57.04 55.96
53.96 53.79 53.52 53.89 54.61 53.96 52.90 53.50 53.95 53.09 53.42 54.02 53.69 52.69 53.58 52.66 52.09 50.79 50.09 49.08 49.68 51.12 52.29 52.66 53.64 54.05 53.33 53.15 54.24 53.95 53.09 53.54 53.89 53.50 54.05 55.09 55.43 55.50 56.64 53.30 57.02 56.66 55.92 55.02
52.62 53.00 52.84 53.21 53.04 53.33 53.35 53.27 53.44 53.17 53.99 54.52 53.28 53.36 53.87 52.37 50.84 49.93 49.25 48.48 51.22 51.48 52.06 53.23 54.06 53.14 52.71 53.33 52.36 51.84 53.72 54.73 54.08 53.60 53.95 53.58 53.98 54.20 55.19 55.01 54.58 54.39 54.04 53.65
51.88 51.52 51.50 51.44 51.04 50.74 51.55 52.77 51.75 51.39 53.34 53.71 53.77 53.28 51.88 50.68 49.64 49.09 49.92 49.63 51.75 49.54 50.46 51.28 52.57 52.90 53.22 52.94 50.42 50.26 52.72 53.63 53.83 54.05 54.36 54.81 54.54 53.94 53.97 53.77 53.40 53.73 53.51 53.81
51.33 51.11 51.11 51.11 50.84 50.79 50.97 51.45 51.82 53.08 53.26 52.99 52.48 51.84 50.71 50.72 50.12 49.49 49.26 50.98 51.24 50.35 49.49 50.68 50.70 51.17 51.21 50.88 49.77 50.41 52.56 52.90 52.85 52.70 52.88 53.00 54.25 54.41 54.03 54.17 53.79 53.45 53.53 51.72
49.59 50.66 50.84 51.66 51.36 51.20 51.05 51.78 51.95 52.24 52.19 52.73 52.27 51.69 50.70 50.25 50.59 50.97 51.46 49.61 47.68 47.43 48.64 49.06 49.69 48.35 48.11 49.97 50.22 51.16 52.81 53.11 52.25 51.99 51.69 47.59 52.77 52.97 53.48 53.02 51.13 52.26 51.85 50.35
49.71 49.60 49.89 49.86 49.41 50.03 50.44 51.84 51.81 52.07 51.94 51.89 51.57 51.76 51.48 51.27 51.70 52.57 50.57 48.23 46.44 47.75 48.75 47.37 47.34 47.55 49.06 47.91 50.37 50.77 50.56 52.81 53.65 52.54 51.83 51.70 51.59 52.25 52.36 51.92 51.75 51.19 51.08 51.57
51.50 50.12 50.27 50.74 51.02 52.42 52.17 51.22 51.20 51.97 51.46 51.47 52.01 52.02 52.28 52.02 52.21 51.58 50.92 47.75 49.08 47.02 48.74 49.13 49.34 49.77 49.43 48.94 48.72 48.77 48.84 49.41 52.57 52.87 51.39 51.71 51.45 51.26 51.31 50.62 50.56 50.45 50.65 50.71
50.31 46.79 50.84 51.68 52.46 50.86 51.75 51.61 51.46 51.50 51.59 51.97 51.74 53.11 52.67 53.05 52.86 51.03 47.93 49.77 49.60 49.60 49.98 50.20 49.80 49.19 50.09 49.85 49.80 49.79 49.75 49.44 46.53 52.92 52.03 50.98 50.96 50.61 50.65 50.42 50.30 51.28 50.41 50.30

GFSNGP_sfc_wetblb_087.txt.gz
Wetbulb
47.98 48.85 48.93 48.36 49.59 51.49 50.28 52.02 47.66 49.16 49.17 54.33 55.71 58.91 60.05 61.10 61.81 62.68 63.20 63.87 63.40 63.66 63.81 63.25 61.86 62.19 62.82 68.39 71.79 71.93 71.72 72.07 71.10 71.52 73.12 73.77 73.51 74.17 74.36 74.46 73.71 73.50 72.87 72.74
46.46 48.43 48.62 47.82 50.07 50.43 50.30 50.81 52.20 53.38 51.64 57.27 57.83 59.99 60.05 61.28 62.12 61.78 62.22 62.51 62.95 63.22 63.13 62.87 62.87 60.67 64.69 67.19 66.50 70.32 70.96 68.46 70.00 70.08 69.77 69.51 70.31 71.56 74.01 73.79 73.32 72.58 72.14 72.28
43.19 47.47 47.22 44.92 50.37 51.18 48.38 50.59 52.16 49.39 55.02 57.83 57.49 58.16 58.02 58.94 60.20 60.28 60.96 61.45 62.30 64.69 64.27 63.24 64.52 64.88 64.53 68.11 68.05 66.75 66.81 66.56 67.63 67.63 67.57 67.03 67.19 68.52 70.42 72.87 73.32 72.50 72.62 72.46
43.54 46.15 38.51 50.16 53.98 51.54 50.49 52.25 54.00 54.87 57.24 58.67 58.78 60.42 61.23 62.37 61.28 61.66 62.44 62.81 61.53 62.29 62.60 62.76 63.73 65.24 68.07 69.76 68.30 66.60 66.18 65.63 66.06 66.58 66.11 65.65 65.16 66.08 67.50 70.17 72.50 72.87 72.45 72.50
42.75 42.77 45.52 50.73 50.63 48.70 48.81 49.29 52.99 53.58 54.49 54.84 57.03 58.33 57.98 60.33 62.10 61.50 61.75 60.85 60.88 61.04 61.07 61.43 62.03 64.18 66.25 65.74 67.58 66.55 66.25 67.04 66.56 66.46 66.00 65.70 65.78 66.30 67.66 69.43 71.46 72.22 70.88 70.31
45.33 40.94 38.63 49.55 51.88 55.06 53.78 45.13 52.88 56.05 55.72 56.23 58.01 53.69 56.80 60.85 60.84 60.24 60.72 60.89 59.48 61.24 61.26 60.28 60.48 63.40 63.23 62.36 63.59 63.25 64.91 66.58 66.81 67.00 68.63 68.51 66.93 67.26 67.91 69.35 69.94 69.56 68.38 68.14
45.07 43.59 48.08 53.56 54.75 55.77 44.80 46.95 55.44 56.56 56.25 57.12 55.98 56.65 60.14 60.49 59.26 58.85 59.17 59.86 60.45 60.41 58.17 58.34 59.63 60.56 60.07 60.50 61.11 62.91 65.08 66.65 65.92 65.04 66.70 66.92 66.99 66.38 65.21 64.13 64.87 65.48 65.96 66.98
45.33 43.61 41.65 54.46 53.90 49.62 53.96 57.62 57.34 57.85 57.79 57.90 59.32 60.29 59.56 58.76 58.37 57.90 58.02 57.93 58.77 58.92 58.00 58.76 58.34 58.55 58.50 57.48 58.99 61.26 63.02 65.27 65.31 64.75 64.24 66.17 65.22 64.25 63.38 63.55 63.24 62.78 63.06 64.08
47.91 48.61 53.83 54.96 54.82 57.36 58.61 57.60 59.09 60.15 59.51 60.63 59.32 58.58 58.44 58.00 58.17 57.98 57.85 57.66 58.38 58.70 58.85 59.17 59.41 59.26 57.52 57.79 58.74 59.61 60.47 60.97 63.07 64.77 64.19 64.50 64.45 64.49 63.89 65.21 64.15 64.03 64.10 64.31
50.31 52.67 54.31 54.62 56.67 56.87 57.34 59.58 61.05 61.45 60.86 61.48 59.97 59.34 58.39 58.14 57.51 57.53 57.53 57.30 58.22 58.60 58.53 58.37 59.92 60.01 60.10 60.32 59.76 59.24 58.81 58.45 59.54 60.00 60.43 64.43 64.65 64.62 63.46 63.06 62.84 61.23 60.15 60.14
51.30 53.98 55.45 55.91 56.49 56.88 58.45 60.87 60.83 61.49 61.62 61.12 60.59 59.09 58.83 58.38 57.45 57.75 57.81 58.36 58.28 57.98 58.11 58.48 59.82 59.60 60.27 60.35 60.29 59.36 61.21 60.93 59.78 58.63 59.94 61.63 63.02 62.87 61.73 62.67 60.01 61.16 60.55 62.18
49.71 53.99 54.86 53.88 56.97 57.91 57.62 57.62 59.06 60.25 60.53 61.63 61.24 59.84 59.50 58.73 58.76 58.68 57.72 58.30 58.11 57.73 57.87 58.02 58.46 58.68 59.39 60.33 59.73 58.72 58.10 59.79 58.98 58.97 60.29 60.52 61.06 61.70 48.87 48.30 44.85 43.62 42.89 48.76
54.08 56.74 56.33 56.81 57.34 57.82 57.22 58.24 59.25 59.70 60.74 60.74 61.16 61.59 60.64 59.96 59.77 57.85 58.15 57.69 57.45 57.30 58.41 58.94 58.68 58.36 58.91 59.58 59.60 58.54 57.75 59.14 59.17 58.94 60.96 59.98 59.72 60.60 61.05 47.08 43.50 42.61 42.71 42.10
56.65 56.50 55.79 56.23 56.52 58.88 58.36 60.91 60.42 61.15 61.20 60.89 60.81 61.25 60.81 60.27 59.45 59.64 58.60 57.96 57.97 58.53 58.79 59.11 58.92 58.41 58.74 59.04 59.24 58.30 58.41 52.68 59.01 59.72 60.34 60.76 59.73 60.57 59.53 58.37 57.03 54.74 47.33 43.73
56.21 57.41 57.31 58.29 60.12 59.91 60.30 58.92 58.05 58.35 58.60 59.11 60.29 59.75 59.99 59.43 59.28 59.03 59.18 58.57 58.62 58.51 58.77 59.60 58.88 58.49 59.04 58.98 58.68 58.13 57.79 57.92 58.36 59.58 60.62 59.41 61.89 60.43 60.15 58.30 56.13 55.89 54.55 48.37
56.66 56.96 57.39 56.70 58.22 58.72 57.00 57.03 56.69 57.60 58.43 59.22 59.47 59.17 58.94 58.50 57.71 58.05 58.57 59.58 59.21 58.98 59.79 59.34 58.47 58.03 58.61 58.62 58.32 58.11 58.42 55.63 55.28 59.31 60.24 60.87 61.40 59.19 59.12 57.93 57.70 57.57 56.83 56.27
54.81 54.25 55.73 55.94 57.85 57.69 56.43 56.69 57.03 57.84 58.47 58.28 58.25 58.58 58.48 59.08 59.41 59.43 59.83 59.36 59.24 59.03 59.17 58.43 56.83 58.11 58.15 58.21 58.18 58.27 58.06 58.01 55.36 59.61 60.20 60.89 61.21 59.15 58.17 57.82 57.47 57.17 56.99 54.50
56.80 56.54 58.05 58.17 58.59 57.07 57.11 57.33 57.97 58.29 58.37 58.12 57.38 57.24 57.02 57.68 58.38 58.85 58.26 58.15 57.48 56.82 57.26 57.07 57.59 57.49 57.71 58.17 57.99 58.36 58.29 58.11 58.73 59.41 60.05 60.59 61.66 61.76 59.10 58.95 58.43 58.01 56.73 53.85
57.66 56.71 57.58 58.88 58.91 57.73 58.08 57.73 57.80 58.33 58.47 57.72 56.74 56.16 56.90 58.17 57.83 58.33 57.39 56.14 55.38 54.68 55.99 57.51 56.08 56.21 57.44 57.12 56.35 58.03 58.50 58.72 59.39 59.77 60.32 57.77 61.35 61.52 60.98 58.65 58.29 57.31 56.49 55.71
56.60 57.23 58.12 58.22 58.62 58.21 57.51 57.74 58.25 58.03 58.59 58.23 57.85 57.39 56.06 57.16 57.03 56.85 55.64 55.12 55.75 55.61 57.37 57.23 56.10 56.25 55.77 55.87 55.38 57.63 58.93 58.97 58.88 59.47 59.09 59.06 57.15 57.62 58.90 53.47 57.11 56.35 55.55 54.87
56.67 57.27 57.37 57.51 56.79 57.09 57.27 57.12 56.62 56.20 57.02 58.25 58.34 58.19 58.03 58.59 57.53 56.24 55.21 53.66 56.28 56.78 55.87 54.80 55.94 55.49 55.91 55.27 54.34 55.06 56.54 57.29 57.90 58.73 58.68 58.77 58.48 56.04 56.37 57.21 57.06 55.06 54.42 55.23
56.43 56.09 55.95 55.94 55.98 55.88 56.40 57.61 57.57 56.30 57.95 57.94 57.86 58.05 57.73 57.49 56.67 56.26 56.54 55.17 55.71 51.08 54.89 56.21 56.89 55.23 56.07 52.94 56.43 57.55 55.39 56.31 56.40 56.12 55.72 55.78 58.32 57.56 55.50 55.20 56.01 56.90 56.12 54.64
56.70 56.73 56.69 56.89 56.96 57.00 57.43 58.27 57.82 57.90 58.29 58.39 57.58 57.04 56.35 56.04 56.84 55.10 54.11 57.23 56.81 53.90 55.44 56.04 52.97 50.98 50.68 55.35 57.15 57.86 58.21 55.02 55.02 55.80 55.31 55.81 55.60 55.33 55.74 56.65 56.50 56.22 54.07 54.09
55.76 56.32 56.43 56.69 56.89 57.23 57.21 58.23 58.15 58.20 58.42 58.17 58.38 58.07 56.65 55.81 56.75 57.51 57.84 53.20 49.78 50.00 53.80 54.05 52.08 48.05 47.45 56.36 57.38 58.07 58.56 58.07 57.02 57.04 57.37 50.08 58.42 58.36 58.24 56.99 54.11 53.98 53.72 52.22
55.52 56.22 56.29 56.33 55.96 56.30 56.88 55.85 56.54 58.02 58.24 58.45 58.75 58.80 58.34 57.62 56.16 57.85 58.13 57.33 48.44 49.45 54.96 49.68 47.58 48.09 55.85 55.91 56.31 55.86 55.61 57.14 58.06 58.50 57.94 57.67 57.27 56.46 56.71 56.92 54.78 52.93 55.07 56.23
55.52 55.72 56.64 56.51 56.15 56.46 57.50 57.56 56.74 57.32 57.32 57.14 57.98 58.59 58.92 58.72 58.22 56.91 57.76 54.40 55.84 51.29 54.28 55.57 55.87 56.02 56.16 56.20 56.10 56.45 55.66 55.51 55.50 57.49 56.12 58.01 57.92 57.65 56.72 56.36 55.88 55.34 55.13 55.48
56.09 49.35 56.22 56.56 54.27 53.57 56.53 57.60 56.91 57.01 56.88 57.37 56.17 55.79 56.29 58.69 56.53 54.95 53.82 57.83 56.07 55.59 55.76 56.22 56.12 54.17 55.67 55.89 55.93 56.38 56.50 56.31 50.81 56.27 57.75 57.76 57.70 57.32 57.01 56.74 56.69 56.51 55.99 55.56

GFSNGP_sfc_wetblb_093.txt.gz
Wetbulb
51.54 51.65 51.01 50.64 49.94 50.04 49.95 49.89 45.44 49.22 48.15 53.11 51.26 52.23 60.89 64.24 65.37 64.37 64.14 66.05 64.76 64.32 65.05 65.42 65.98 66.02 65.56 66.60 66.36 68.59 69.35 66.71 65.69 66.02 66.14 67.54 73.86 75.29 75.95 75.93 75.95 75.95 75.72 74.68
49.40 51.03 50.62 49.16 50.33 50.54 50.86 50.80 52.47 52.47 51.61 59.80 61.67 62.87 62.47 62.98 63.56 63.17 63.15 63.59 65.59 65.29 66.90 65.88 66.27 66.17 67.07 67.66 67.39 67.43 69.58 68.35 65.79 66.02 66.02 66.16 72.88 74.27 75.12 76.31 76.60 76.27 75.55 74.69
46.54 50.60 50.03 47.19 49.99 51.45 51.48 54.67 53.89 51.11 56.67 60.10 60.05 60.67 60.13 60.17 60.69 61.27 62.48 63.91 64.38 64.41 64.14 66.51 67.48 67.82 66.69 66.36 67.12 68.19 69.84 70.03 67.98 67.20 66.04 66.65 72.85 74.04 74.27 75.30 76.71 76.42 75.44 75.35
47.55 50.04 42.06 51.15 57.08 55.11 52.83 53.96 56.28 57.43 57.68 57.74 58.61 58.56 57.51 62.34 62.61 62.58 62.41 63.07 64.70 65.65 65.75 64.32 66.24 69.70 69.78 67.98 67.58 67.82 68.09 69.28 70.23 70.42 70.65 72.12 72.47 73.86 74.64 75.99 74.96 74.14 74.75 76.33
45.23 45.89 49.71 52.15 52.54 55.46 53.72 53.18 58.24 56.60 56.05 55.80 57.90 55.62 52.20 61.88 62.85 62.09 63.21 64.01 64.90 65.47 64.41 64.20 65.17 66.44 68.58 68.65 68.27 67.80 67.03 67.65 67.99 68.48 69.21 70.31 71.27 71.20 72.34 73.08 72.86 72.60 74.08 74.96
48.90 44.48 42.42 52.27 57.71 59.90 58.46 50.52 58.38 56.64 55.03 52.31 53.55 47.90 52.63 61.74 63.22 63.57 64.10 64.76 64.27 64.73 65.07 65.04 66.11 66.46 65.57 64.63 64.89 65.66 67.36 68.28 69.11 69.28 69.64 70.35 70.54 68.64 69.79 71.77 71.71 71.13 72.76 74.40
48.46 46.00 49.60 55.78 58.10 60.23 48.55 50.44 58.06 57.42 57.47 55.88 51.44 54.66 58.59 62.25 63.06 63.85 63.96 63.69 64.51 64.03 63.62 64.06 64.86 64.87 64.36 63.25 62.71 63.99 65.67 67.82 68.75 69.38 69.50 70.11 70.12 71.75 72.16 71.62 70.37 70.93 71.85 72.95
49.81 46.38 43.71 57.94 57.90 52.21 57.54 59.25 58.73 58.01 58.95 58.56 59.17 60.06 60.94 61.41 62.23 62.74 62.93 63.14 63.58 63.23 63.25 64.50 65.53 64.87 63.64 63.12 64.72 65.37 65.35 65.09 65.58 66.63 67.70 68.67 69.48 69.18 69.55 69.63 69.03 68.38 68.72 69.31
51.07 50.76 58.31 59.70 59.47 61.07 60.98 58.26 59.01 59.40 60.42 60.59 60.20 60.18 60.82 60.59 61.99 62.40 62.94 63.04 63.68 63.33 63.31 63.94 64.13 64.13 62.82 63.69 64.71 65.48 65.51 65.14 65.09 65.56 65.22 67.01 66.62 67.41 67.84 69.86 68.78 67.74 67.29 67.05
52.20 55.18 56.51 58.20 59.13 61.16 60.25 59.95 61.23 61.28 60.85 60.44 59.65 61.48 61.20 61.83 61.95 62.09 62.63 62.81 63.51 62.75 62.15 62.46 63.57 63.38 63.44 63.75 64.30 64.21 63.58 64.94 65.72 65.39 63.58 65.12 65.47 66.37 66.32 66.15 66.50 66.36 65.31 64.53
51.14 54.87 57.08 58.61 59.07 60.04 59.29 60.91 60.09 60.71 60.01 59.62 60.30 60.30 61.18 61.64 61.89 62.61 62.81 62.84 62.72 62.30 62.23 62.51 63.34 63.28 63.59 63.62 63.59 62.48 62.93 63.12 64.60 63.98 65.33 64.46 64.74 64.23 64.23 66.43 63.05 63.16 64.21 64.98
49.08 56.99 57.44 57.38 58.26 59.96 57.35 59.45 60.33 58.73 59.13 60.23 60.57 60.27 61.72 61.94 62.56 62.80 62.19 62.68 62.24 62.46 62.70 63.41 63.51 63.62 63.78 63.73 63.37 62.54 61.62 61.34 61.30 61.57 62.93 64.67 63.51 64.55 56.11 54.56 50.79 46.82 44.80 50.19
53.90 59.25 59.56 58.43 55.88 57.72 58.02 58.89 59.76 59.37 60.15 60.13 61.52 62.05 61.58 62.56 63.14 59.82 61.87 61.21 62.37 62.03 62.91 62.18 62.75 62.39 63.30 63.09 62.97 62.24 61.52 61.79 60.54 59.45 61.58 62.59 62.95 62.38 62.16 59.78 48.07 45.18 44.11 43.36
57.65 60.69 58.09 60.66 57.60 59.63 58.23 60.52 59.93 61.34 61.99 61.69 61.33 62.61 62.22 62.78 62.44 62.76 61.01 61.86 62.54 62.43 62.06 61.82 61.47 61.21 62.38 62.59 62.43 62.00 61.89 56.54 61.22 61.37 60.86 61.41 62.79 62.96 62.75 62.70 61.07 61.64 49.70 48.58
58.07 61.62 59.86 59.77 61.23 60.18 60.99 59.22 58.70 59.18 59.93 60.71 61.92 61.37 61.57 61.20 61.08 61.22 62.26 62.69 61.59 61.60 62.23 61.97 61.37 61.42 62.33 62.09 61.53 61.24 61.12 61.29 61.24 60.42 60.50 60.27 62.07 63.64 63.16 62.54 62.26 62.09 63.25 54.00
59.71 60.51 59.51 59.03 58.86 59.51 58.97 58.75 57.81 59.00 59.74 59.74 60.18 60.42 60.68 61.39 61.88 61.51 61.28 61.81 61.11 60.00 60.85 60.85 60.85 61.54 61.92 61.38 61.34 61.12 61.55 59.28 56.76 60.69 60.45 60.89 61.89 62.65 62.83 62.58 62.17 61.82 61.28 61.05
58.20 56.51 57.85 58.02 58.65 59.72 59.27 59.70 59.35 59.83 59.83 59.76 59.67 60.22 60.77 60.63 60.66 61.57 61.60 60.85 61.42 60.94 60.75 61.01 60.33 61.28 60.18 60.89 59.43 60.11 60.09 60.88 60.35 60.65 61.05 61.37 60.81 61.24 64.17 62.94 62.05 60.87 60.91 58.38
60.69 61.33 60.16 59.96 59.04 60.69 59.61 59.77 59.94 60.27 60.95 60.27 60.47 60.31 60.00 59.64 60.80 60.47 61.21 61.26 61.50 60.46 60.25 60.44 60.28 59.23 60.32 59.91 59.79 59.92 60.50 60.96 60.82 61.08 61.43 61.24 61.68 61.51 63.10 63.12 62.39 60.83 60.70 59.49
59.48 60.58 60.00 59.92 59.87 59.60 60.04 61.10 61.85 62.03 62.04 61.78 61.09 60.33 60.66 60.44 61.03 61.40 62.05 60.81 60.10 58.91 58.76 59.49 56.65 58.15 60.27 59.47 58.19 59.97 59.72 59.71 60.20 59.94 60.82 58.20 60.49 62.31 62.51 62.68 61.69 61.22 59.07 59.00
59.78 60.32 60.73 60.04 61.03 60.50 60.48 61.27 61.93 61.17 61.49 61.18 60.77 60.64 60.21 61.19 62.08 61.51 60.95 60.05 60.38 60.08 59.76 60.04 59.45 60.47 60.11 60.63 58.18 58.86 59.78 59.28 58.55 59.07 60.53 61.15 61.44 60.26 60.07 56.14 59.66 60.13 57.87 56.09
59.96 60.23 60.33 60.58 60.97 61.15 61.02 61.48 60.07 59.06 59.44 60.27 60.03 60.22 60.26 61.15 61.36 61.07 60.00 58.08 60.54 59.97 58.50 56.96 59.94 59.78 60.73 57.10 57.19 59.21 59.47 58.99 58.85 58.32 58.05 59.07 60.42 59.48 59.07 58.13 57.35 59.22 58.16 57.80
58.93 58.85 58.90 58.94 59.67 58.81 59.07 59.80 59.90 60.77 60.11 60.01 59.65 59.60 59.42 59.30 59.62 60.29 61.59 59.76 60.91 50.96 57.07 58.38 60.40 54.47 56.34 52.91 58.48 58.97 58.97 58.35 58.38 57.66 57.71 58.59 59.26 59.69 60.66 60.21 60.44 59.67 59.82 57.55
58.21 58.70 58.65 58.47 59.04 59.95 59.82 60.90 60.37 59.94 59.45 59.56 59.53 59.97 59.54 59.36 59.42 57.75 56.98 61.30 59.77 52.73 57.35 56.89 53.58 52.19 52.55 56.74 58.14 58.26 57.96 57.75 57.56 57.75 58.13 57.15 58.40 61.12 59.42 58.55 60.09 59.04 57.84 56.87
58.33 59.11 59.54 59.97 59.77 59.42 59.17 58.25 60.14 60.30 60.30 60.80 60.92 61.30 60.64 59.06 58.93 60.51 60.37 55.95 52.92 54.60 57.39 55.21 55.05 51.09 47.81 56.92 57.86 57.72 57.46 57.11 57.27 57.68 57.62 47.23 57.25 58.82 60.42 59.98 60.94 59.61 57.53 55.73
56.14 59.18 59.49 59.39 58.88 56.83 59.74 60.19 59.93 59.56 59.64 61.41 62.10 62.51 62.71 61.26 59.59 59.64 60.47 59.75 51.30 55.30 59.13 51.73 52.58 51.45 56.15 56.89 57.66 57.15 56.90 56.70 56.95 56.54 56.20 57.34 57.39 57.07 57.88 58.18 57.95 58.94 58.04 55.19
58.73 57.55 59.47 60.08 58.85 58.85 58.51 58.86 57.66 57.75 58.20 57.70 58.44 59.47 60.00 60.32 60.10 58.64 61.57 57.49 59.51 57.07 59.22 58.30 58.01 58.10 58.04 58.00 57.66 57.21 56.35 57.00 56.70 56.36 55.85 57.15 57.23 57.50 56.99 57.43 57.38 57.65 57.97 59.07
58.89 53.96 57.62 57.96 57.24 57.60 58.42 57.52 56.85 56.78 57.43 58.09 57.20 57.99 59.41 60.35 59.98 57.93 55.13 57.67 59.45 58.85 59.22 59.15 58.37 56.38 58.13 57.59 57.39 57.15 57.05 57.56 53.58 57.64 57.24 57.27 56.76 56.95 57.30 57.15 57.73 57.26 57.49 57.34

GFSNGP_sfc_wetblb_096.txt.gz
Wetbulb
50.20 50.96 50.85 50.17 49.50 49.79 48.72 49.26 47.36 48.83 50.64 51.49 54.03 55.28 55.39 57.48 61.17 61.68 63.88 64.04 64.90 64.69 65.01 65.95 66.31 67.17 66.83 67.63 67.00 68.66 68.30 66.62 66.24 65.83 65.12 65.37 65.85 68.97 71.53 72.96 73.37 74.00 73.81 74.66
49.04 51.30 51.29 49.29 50.90 51.03 50.62 50.62 49.64 51.77 51.63 55.31 57.91 59.22 58.53 60.84 61.47 61.29 62.35 63.41 64.36 64.72 65.84 66.25 66.93 66.76 67.99 67.95 67.56 69.56 68.39 67.56 66.33 66.06 64.91 64.10 65.08 68.50 71.49 72.31 73.44 73.79 73.96 73.56
45.67 50.47 49.96 46.60 51.38 52.33 52.60 51.87 52.22 50.61 54.54 57.21 56.74 59.08 60.38 61.27 61.95 61.74 61.95 62.98 64.00 64.34 64.55 65.63 66.43 68.72 66.69 66.92 67.55 67.72 68.30 69.87 67.52 67.68 67.57 67.71 68.35 69.61 71.05 72.61 74.37 73.41 72.94 72.28
46.53 49.04 41.28 51.25 55.82 54.15 53.46 55.63 57.03 56.49 54.90 55.46 55.62 58.29 59.72 59.04 59.81 60.98 62.04 62.87 64.52 63.64 63.70 65.04 66.96 68.12 67.81 67.63 68.19 68.67 68.59 69.61 69.95 69.02 68.89 68.25 69.16 69.43 70.25 72.18 71.88 70.90 71.03 71.05
45.58 45.21 49.15 48.02 49.56 49.72 51.64 52.87 57.11 55.87 56.54 57.12 56.68 56.67 56.54 56.83 59.68 60.53 63.01 63.46 65.01 65.27 64.55 65.38 65.68 66.64 65.99 64.80 68.07 68.46 68.25 69.00 69.45 69.93 69.43 68.31 67.36 68.90 69.38 69.80 68.64 69.61 72.10 74.09
47.92 41.21 41.24 48.16 50.98 54.25 56.34 49.44 56.89 56.47 56.44 56.95 56.16 50.62 52.88 57.52 58.70 58.87 63.30 63.81 63.22 63.91 64.01 64.51 65.07 65.20 64.00 63.46 63.87 64.31 65.68 66.59 69.57 70.22 69.28 69.31 70.16 68.79 68.20 69.43 68.64 69.56 69.46 72.26
47.21 44.21 48.40 54.27 56.83 59.06 47.35 49.76 57.37 57.14 56.53 56.64 53.46 54.26 57.02 58.48 60.62 61.99 63.07 63.04 63.88 63.71 63.56 65.17 65.53 65.75 64.43 64.07 63.59 65.61 66.06 66.28 65.79 66.98 68.43 69.77 69.56 70.39 69.31 69.20 69.00 70.72 71.20 71.90
48.27 45.25 42.30 58.04 56.60 51.79 55.61 58.95 58.02 58.29 57.61 56.57 57.69 56.73 58.80 59.94 60.81 61.89 62.47 62.36 63.07 62.98 63.51 64.81 65.63 65.08 64.06 62.58 65.07 66.15 66.82 65.77 65.21 65.22 65.51 66.91 68.41 69.03 70.22 70.31 69.37 69.35 68.57 67.49
50.31 49.98 58.10 59.29 58.53 60.26 60.31 59.59 59.59 59.89 59.26 57.56 58.51 59.34 60.64 60.65 61.33 61.94 62.28 63.56 63.66 62.69 63.30 64.45 65.15 64.95 63.32 64.28 65.34 65.50 65.81 66.76 66.67 64.40 63.39 66.19 67.09 67.85 67.04 69.24 68.66 68.58 67.49 67.74
52.82 55.22 55.55 58.02 59.71 60.35 61.23 59.59 59.42 56.84 59.26 60.07 59.55 59.97 60.95 60.97 61.77 61.91 62.73 62.34 62.89 62.44 62.41 63.12 64.81 64.64 64.60 65.07 65.29 64.77 64.34 65.14 66.78 67.84 64.55 66.00 66.31 65.33 64.93 65.22 65.88 65.13 64.80 64.79
52.77 54.36 56.51 58.16 59.85 59.44 58.26 58.94 58.98 59.55 60.30 60.00 60.37 60.23 60.05 60.76 62.28 62.58 63.09 63.07 63.09 63.46 62.65 62.79 63.93 63.59 64.61 64.59 64.53 63.09 63.47 63.79 65.14 64.81 64.90 66.42 66.61 65.82 64.88 66.35 63.72 64.19 63.84 64.17
48.90 56.40 57.21 57.51 59.54 58.32 56.56 56.43 56.82 56.31 57.52 60.67 61.07 60.31 61.44 61.04 61.97 61.83 62.60 62.99 62.81 61.56 61.65 62.70 62.65 63.26 64.50 65.13 64.40 63.17 61.92 61.30 61.55 61.19 60.84 61.72 65.69 65.17 56.43 55.26 52.20 49.33 46.25 52.27
54.97 57.36 59.92 58.88 59.41 58.30 55.87 55.48 57.39 58.20 60.14 59.63 60.46 62.34 62.34 62.20 62.66 60.98 61.02 61.93 61.10 62.01 62.26 62.58 63.14 62.27 63.42 64.25 64.47 63.62 62.52 62.18 61.18 60.40 61.60 62.42 62.54 63.22 63.00 61.64 50.35 47.70 44.62 44.26
58.02 59.00 58.64 58.93 57.61 59.12 58.56 58.64 58.61 58.96 60.91 60.75 61.00 61.77 62.53 62.33 62.29 62.20 62.02 61.97 62.89 62.37 62.05 62.64 62.18 62.31 62.99 63.22 63.71 63.20 62.79 57.13 61.05 62.30 60.62 60.20 60.65 62.62 62.72 62.84 61.79 62.36 48.22 47.99
56.36 58.85 60.21 60.22 58.31 56.72 57.92 58.96 57.29 59.11 59.90 60.42 60.99 60.76 60.91 61.03 61.20 61.13 62.02 62.79 62.23 63.33 61.94 62.25 62.06 62.99 63.92 63.31 62.46 62.09 61.04 61.16 61.89 61.31 61.07 59.83 60.36 60.78 62.31 63.00 62.11 62.79 63.83 51.27
58.32 58.23 59.14 58.56 54.30 54.88 56.07 56.62 58.56 57.60 58.77 58.94 59.44 59.57 60.16 60.86 60.60 60.44 62.23 61.57 60.55 60.07 61.34 61.16 61.63 62.38 62.81 61.82 62.31 60.72 61.14 60.08 58.29 61.52 61.19 61.02 60.92 62.05 61.59 64.45 64.21 61.99 61.70 60.98
56.06 56.72 57.37 57.04 56.78 55.64 56.47 58.26 59.23 59.25 59.04 59.40 59.49 59.81 59.98 60.46 61.43 60.73 61.73 61.76 61.07 61.79 61.91 61.68 60.72 61.46 60.57 61.57 60.30 59.13 59.14 60.69 60.36 61.24 60.81 60.77 61.86 62.33 64.88 64.03 63.59 63.50 61.87 55.66
56.39 54.26 54.97 55.49 56.09 57.78 55.08 59.07 59.54 60.01 60.98 61.43 61.08 60.44 59.91 60.09 60.02 61.31 61.13 61.46 62.18 62.36 61.31 60.83 60.10 59.31 60.20 60.95 60.27 58.66 59.32 59.37 59.93 60.31 60.68 61.14 60.62 61.22 62.12 62.56 61.52 60.87 59.56 56.66
56.24 54.42 54.07 54.06 55.44 59.38 59.55 60.75 61.07 60.44 61.38 62.04 60.32 59.88 61.12 61.45 62.23 61.96 62.15 60.93 61.10 61.10 58.88 60.15 57.24 58.07 60.90 61.18 58.15 58.24 59.12 58.96 58.98 59.34 59.79 57.94 60.57 60.79 59.43 61.26 61.65 60.22 59.24 58.32
57.11 56.32 54.76 53.86 61.70 61.03 60.56 60.49 61.37 60.44 60.49 60.17 59.93 59.65 59.99 61.62 62.45 61.76 62.37 61.05 62.18 60.59 61.19 60.07 59.28 60.08 62.30 62.43 59.47 57.21 57.47 58.47 57.99 58.60 59.13 59.12 59.64 59.32 59.49 55.67 59.16 59.14 58.38 56.76
58.35 59.70 59.66 59.69 59.69 60.11 59.61 59.95 59.03 58.28 58.88 59.34 59.63 60.08 60.29 61.36 61.47 61.31 61.22 58.11 61.90 60.00 60.15 58.42 58.72 59.25 59.75 56.52 55.87 56.11 56.59 58.29 57.37 58.01 56.47 56.84 57.89 59.32 60.02 59.56 58.74 58.97 58.27 57.72
59.07 58.74 58.38 58.55 58.56 58.61 59.08 59.14 59.27 59.48 60.08 60.00 60.28 59.39 59.42 60.13 61.81 61.63 63.16 61.06 60.89 53.33 57.80 58.49 58.91 54.50 56.02 53.13 55.52 57.20 58.42 58.56 58.52 58.25 57.04 57.50 57.48 58.10 58.98 60.28 59.93 60.05 60.02 58.10
57.60 58.54 59.10 58.17 58.67 58.94 59.69 60.02 60.03 60.14 59.40 60.26 60.64 60.96 59.58 58.82 58.76 57.68 57.53 62.96 61.49 55.21 58.77 58.31 53.60 53.12 53.01 55.80 55.51 56.66 57.64 57.54 57.32 57.27 58.32 58.58 56.95 58.21 59.05 58.84 58.89 59.65 58.95 57.99
57.81 58.46 58.49 59.07 60.36 59.64 59.10 61.04 59.95 60.73 60.40 58.28 62.13 63.14 60.58 58.59 59.78 60.14 59.05 54.04 52.11 55.83 58.50 57.70 55.08 52.49 49.63 55.69 55.45 56.96 57.78 58.41 57.13 56.89 57.34 48.77 56.73 57.25 58.64 59.35 58.86 59.35 58.70 55.64
55.58 54.98 55.81 58.84 58.89 58.09 58.99 59.19 60.13 59.35 61.26 60.78 60.59 62.75 62.11 61.73 58.08 60.19 60.66 59.95 53.97 55.90 59.57 53.64 51.79 52.86 55.52 56.13 55.55 56.93 58.12 57.45 56.90 56.26 56.71 57.20 55.61 56.49 57.95 58.35 59.07 58.83 58.52 57.84
56.55 54.55 55.65 55.79 59.14 58.51 57.32 57.55 56.51 56.96 57.79 57.80 58.11 58.81 58.84 60.02 58.80 60.22 61.63 57.67 58.25 56.78 59.54 58.94 56.75 56.22 56.91 57.61 57.49 57.09 56.78 56.70 56.83 56.56 56.02 56.96 56.14 57.44 57.21 57.74 57.63 58.02 58.26 58.46
55.98 50.45 55.39 56.05 56.03 57.92 57.52 57.24 57.00 56.34 55.43 57.53 56.77 58.04 58.03 57.79 59.12 56.26 55.57 59.87 59.98 60.68 58.86 58.82 59.30 56.03 58.60 57.41 56.86 57.74 56.25 57.78 54.20 57.03 57.72 57.20 57.87 58.22 57.47 57.22 58.15 58.05 57.92 58.05

GFSNGP_sfc_wetblb_102.txt.gz
Wetbulb
41.81 44.46 45.28 45.24 45.92 48.36 43.55 43.66 40.73 44.29 44.74 48.58 51.44 52.65 56.11 58.22 58.67 55.76 56.00 56.53 59.72 61.39 62.49 64.16 65.40 65.75 64.75 64.90 65.76 66.55 66.30 66.68 65.97 65.70 66.44 65.92 65.00 65.86 65.87 64.85 64.54 65.34 64.72 69.89
38.49 44.89 45.88 45.39 49.68 49.93 49.56 49.03 49.29 48.81 47.98 52.04 52.71 52.79 54.85 56.34 55.74 56.41 58.68 60.23 62.10 62.13 62.84 64.11 64.86 65.39 66.60 65.07 65.13 65.63 64.84 64.70 64.82 65.06 65.47 65.37 65.83 65.58 65.48 65.13 64.56 65.02 68.84 69.56
34.13 42.06 43.53 40.91 46.84 48.50 49.74 49.71 49.94 45.01 48.51 53.00 51.62 52.49 52.89 53.63 55.17 56.90 59.29 61.99 61.90 61.77 62.28 63.90 64.44 63.93 63.25 64.08 64.22 64.95 65.13 64.86 64.43 63.64 63.32 63.03 64.17 64.38 64.35 65.33 67.41 68.12 68.55 68.24
36.96 39.57 34.84 43.78 51.02 51.74 50.38 50.90 52.40 53.22 53.52 54.58 53.06 52.84 54.47 55.03 55.96 55.96 59.40 61.21 61.05 62.12 62.48 63.01 64.20 63.41 64.91 64.50 64.28 64.31 64.62 64.72 64.03 63.66 63.07 62.78 63.79 63.91 65.53 65.80 65.20 66.31 67.11 67.97
38.80 37.73 42.16 47.56 49.20 49.46 46.86 47.01 53.82 51.58 54.04 52.92 52.58 54.93 53.35 55.83 57.10 57.33 59.16 59.43 61.27 63.13 63.32 63.14 62.79 63.52 63.47 63.30 63.23 62.95 62.76 63.12 64.67 64.82 63.87 63.65 63.02 63.35 63.81 64.83 65.05 65.50 67.45 67.94
42.66 37.67 35.72 44.65 52.31 54.76 53.50 43.09 53.62 54.20 52.00 50.22 50.77 46.00 50.18 56.47 58.45 58.85 60.00 59.85 59.90 60.85 61.55 60.52 60.59 61.30 61.54 61.86 61.17 60.49 62.33 62.71 63.51 64.12 64.45 63.55 63.23 63.38 63.89 64.30 64.77 66.43 66.46 66.59
43.10 39.20 42.89 50.79 54.38 55.15 41.98 43.52 53.38 52.57 51.69 49.90 48.46 50.59 55.33 58.47 58.35 60.37 60.40 59.68 59.68 60.11 58.89 58.86 59.07 58.52 57.50 57.64 57.97 60.28 61.28 61.11 62.25 61.15 62.79 63.14 63.15 63.82 63.77 63.64 63.50 64.41 65.17 65.63
39.87 36.99 36.78 54.21 54.78 48.09 48.33 51.89 54.60 54.13 54.02 54.31 53.82 55.09 57.20 58.29 58.74 59.59 58.94 59.63 59.25 57.89 58.09 58.41 58.32 57.01 55.71 56.11 57.70 58.84 59.17 60.50 60.11 59.37 61.17 62.39 61.98 63.14 63.28 63.53 63.12 63.05 64.04 65.00
42.06 41.24 48.41 52.21 54.09 55.45 55.34 54.11 54.60 54.90 56.15 55.91 56.68 56.45 57.21 57.60 58.41 58.48 58.97 58.51 58.53 57.77 57.43 57.69 57.97 56.91 55.71 55.95 57.09 57.57 56.67 56.54 57.14 60.00 60.12 60.56 59.93 59.72 60.57 61.83 62.18 61.16 61.38 60.98
44.30 47.93 49.19 53.11 56.78 56.93 55.97 54.66 56.50 56.43 56.14 57.25 55.79 56.55 58.20 57.30 57.41 57.78 58.38 57.98 57.59 57.17 56.91 56.38 57.25 57.71 56.47 56.95 56.72 56.02 55.51 55.55 55.23 57.59 58.85 59.01 59.84 59.72 58.34 59.55 59.47 59.40 58.17 57.85
42.99 45.88 47.66 53.10 55.95 55.95 54.97 57.35 56.97 57.05 57.42 57.18 56.13 56.86 55.98 56.22 57.64 57.07 57.48 57.72 58.20 58.08 57.84 56.17 57.13 56.84 56.68 56.96 56.11 55.29 55.35 55.27 54.50 54.38 52.76 53.20 57.56 59.15 58.93 58.78 58.00 57.80 57.72 57.61
41.00 47.13 47.85 51.69 55.19 55.25 53.16 53.26 55.48 57.57 56.32 58.67 57.88 56.64 58.33 56.32 56.77 57.59 57.22 57.37 58.48 58.36 57.32 55.87 56.26 55.40 55.58 55.51 56.01 54.66 54.28 54.68 54.24 54.36 53.86 53.80 52.89 53.48 54.99 54.78 49.86 49.42 48.23 52.60
47.00 50.14 51.77 55.18 54.96 55.15 51.83 53.10 55.80 56.72 57.85 57.29 59.13 58.25 58.78 56.92 56.08 56.47 57.52 57.76 55.93 56.08 56.30 56.50 56.47 56.33 56.29 55.23 55.76 54.33 53.20 53.72 53.66 53.61 53.88 53.68 51.66 51.71 55.73 56.09 48.35 45.33 44.60 45.69
50.63 54.32 52.93 54.60 53.45 56.04 54.85 57.28 56.39 56.23 57.23 57.40 58.40 58.91 58.71 57.25 56.38 56.19 57.36 56.92 57.03 56.72 55.83 55.74 55.18 55.25 54.98 54.32 52.61 52.10 53.29 52.70 52.75 52.90 53.35 52.73 52.06 51.56 52.25 54.17 54.88 55.99 44.73 46.40
52.50 53.06 53.05 53.89 54.31 54.03 54.87 56.75 55.67 55.01 55.81 56.11 57.48 58.01 57.46 56.19 56.12 55.83 57.23 57.16 56.45 55.61 54.68 53.73 54.28 53.99 53.46 52.66 51.85 53.25 52.75 52.19 52.37 52.66 52.57 52.97 53.80 53.55 52.42 51.41 55.14 55.57 53.81 48.71
53.26 53.07 53.55 53.28 53.68 54.43 54.09 55.46 54.62 55.19 55.64 55.48 55.76 56.77 57.15 58.32 55.61 56.76 57.38 57.42 54.13 53.36 54.58 53.47 53.78 53.62 52.96 51.79 52.94 52.56 51.66 53.42 53.21 52.83 54.02 55.39 56.95 57.16 56.95 57.42 57.00 55.53 54.99 53.85
51.78 50.56 51.42 50.79 52.10 52.73 54.02 54.48 55.61 55.63 55.66 54.69 53.78 55.94 56.77 55.42 53.98 54.56 55.08 55.30 55.78 55.00 55.47 54.05 53.28 53.60 52.40 52.73 52.63 52.91 51.20 51.18 53.38 52.44 53.13 53.85 54.86 56.21 58.57 58.27 57.89 57.10 53.23 51.99
53.03 53.72 53.53 51.67 52.36 53.96 53.57 54.31 55.94 55.85 55.00 56.42 55.56 55.71 55.62 55.89 54.76 55.30 56.35 55.76 55.67 53.42 52.82 53.76 53.60 52.01 51.29 52.02 52.27 53.00 51.77 51.07 50.94 51.84 53.11 52.43 54.53 54.94 55.16 55.09 55.11 54.15 52.99 52.31
54.42 53.41 55.03 54.91 54.47 53.84 54.86 55.87 56.67 56.45 57.12 56.56 55.20 54.35 54.72 54.89 55.22 56.58 56.83 55.00 54.44 53.08 53.71 53.07 55.91 55.68 51.14 53.50 56.49 54.31 52.10 51.54 49.86 49.37 51.01 52.02 53.35 54.52 53.78 54.32 54.63 54.25 53.85 54.20
53.50 55.01 53.68 56.02 56.83 55.81 55.37 56.73 56.81 56.43 56.70 55.69 53.86 53.54 54.35 56.47 57.11 56.35 55.21 53.80 54.26 54.63 54.71 53.26 53.70 52.23 50.49 51.78 55.58 48.75 47.91 47.61 47.67 49.21 49.92 50.57 50.93 52.24 53.68 51.96 53.66 54.15 53.61 51.82
53.27 53.45 55.89 55.20 57.10 58.07 57.37 56.90 56.81 55.86 55.67 54.12 52.68 53.09 55.01 52.51 53.98 51.68 51.16 50.04 53.42 55.70 55.11 54.74 53.38 52.13 50.95 51.47 50.02 48.04 47.32 47.54 47.74 48.24 49.05 50.77 50.34 50.11 52.89 53.56 53.89 53.99 53.50 52.68
55.04 55.69 55.92 56.32 55.98 55.50 55.94 54.43 54.62 54.57 53.77 53.00 53.40 53.09 52.57 51.82 52.24 52.25 52.97 53.58 54.41 53.39 53.69 54.83 51.88 53.05 52.38 54.16 48.75 47.73 48.03 48.38 47.79 47.79 48.17 49.88 48.96 48.27 52.72 53.71 53.65 53.79 54.01 53.84
53.33 54.04 54.20 54.09 54.60 55.15 56.52 56.18 55.64 54.14 53.57 53.25 53.01 52.86 52.94 53.92 53.74 51.65 52.11 54.53 55.70 53.94 53.93 51.67 52.82 53.09 53.27 50.62 48.38 48.18 48.64 48.30 48.15 48.20 48.60 48.93 50.68 49.11 52.19 54.68 54.74 54.03 53.41 53.09
51.55 51.23 50.90 53.08 54.20 54.07 55.18 54.84 55.06 55.46 53.46 53.74 55.16 54.09 54.93 55.95 53.21 53.02 54.13 53.64 51.52 51.99 51.26 51.98 52.36 51.35 50.94 49.40 47.71 47.11 47.68 48.48 49.40 49.80 51.33 47.12 49.41 47.54 48.10 51.69 52.69 54.65 53.61 50.58
50.49 50.97 50.80 52.36 52.58 53.56 53.95 53.88 53.36 52.31 51.90 51.12 52.62 53.56 54.23 54.33 52.44 52.87 53.43 55.08 52.39 52.51 53.46 52.98 52.45 51.68 50.92 50.79 51.30 53.22 52.44 53.03 52.79 51.65 50.54 48.96 48.34 48.94 49.40 50.58 53.54 54.16 53.85 53.31
49.14 50.77 52.57 53.15 53.63 54.10 54.00 53.98 53.23 51.59 51.82 50.95 51.51 51.46 51.92 52.13 52.58 52.47 52.48 51.50 52.65 52.50 53.65 53.84 53.37 53.41 53.89 54.21 55.21 55.59 54.21 54.94 54.24 53.99 53.22 54.57 52.77 52.16 51.26 50.72 51.03 51.52 52.45 53.39
52.90 49.81 51.80 53.06 53.64 54.19 54.58 54.53 52.19 51.48 49.93 49.61 48.90 51.53 52.80 52.83 52.51 51.92 51.06 52.18 52.55 53.07 53.05 52.73 52.71 52.44 52.98 52.78 53.90 53.80 53.70 54.50 52.29 54.15 54.59 55.35 54.87 54.08 53.24 51.35 51.59 50.54 50.77 50.78

GFSNGP_sfc_wetblb_105.txt.gz
Wetbulb
39.52 42.08 42.80 42.51 43.12 45.06 43.80 41.48 39.98 41.38 43.24 46.02 49.67 50.46 51.76 56.36 56.10 56.17 56.99 56.55 58.51 60.15 60.89 63.62 64.24 64.99 64.82 64.99 65.86 66.64 64.84 64.96 63.60 63.84 64.70 64.41 64.02 64.94 66.46 67.29 66.98 66.64 66.87 67.00
36.47 42.47 42.61 42.37 44.60 47.49 48.16 48.00 46.82 47.08 46.40 51.67 52.07 52.16 52.48 53.57 54.22 55.03 57.16 60.52 62.18 62.33 62.27 63.25 63.71 64.57 63.80 63.49 63.36 65.31 65.60 64.80 65.38 65.43 63.55 63.02 64.95 65.51 65.14 64.99 63.76 63.67 63.82 65.73
31.54 38.80 41.29 37.94 43.46 47.03 47.48 48.86 47.60 44.27 46.89 50.83 51.73 52.09 52.02 52.00 53.33 54.58 56.49 59.79 59.75 61.77 62.30 63.35 63.67 64.96 64.68 64.44 64.51 65.16 64.57 64.22 64.13 64.26 65.19 65.12 64.97 65.07 64.88 65.06 65.26 65.12 64.25 64.51
32.12 36.43 31.33 41.84 49.80 50.36 48.61 51.00 51.02 51.46 51.78 52.22 51.40 52.71 53.40 53.46 54.16 54.78 57.16 59.30 61.02 60.37 61.58 62.27 63.55 64.02 64.63 64.63 63.41 63.89 65.10 64.89 63.48 62.92 62.33 62.62 63.03 63.62 64.33 64.49 64.39 65.24 66.73 66.04
33.69 35.13 40.51 46.06 48.25 48.22 45.78 46.00 52.51 50.45 50.74 50.87 51.84 51.59 50.72 55.58 56.93 56.58 58.69 59.92 60.57 62.30 61.96 61.27 61.44 62.89 62.87 62.06 63.03 62.11 62.01 62.12 63.17 63.46 62.76 61.85 61.56 61.96 63.93 64.52 64.62 64.83 66.53 66.77
38.93 35.52 35.08 43.78 52.05 53.44 51.90 41.58 51.89 51.44 50.75 49.61 49.60 44.39 47.37 55.25 58.44 59.04 60.14 60.38 59.08 60.83 60.36 59.85 59.92 60.24 60.12 60.00 59.34 59.33 60.48 61.85 62.03 62.61 62.80 62.43 61.90 61.44 62.38 64.85 64.98 65.87 65.23 66.07
38.97 38.34 42.98 50.43 53.39 54.57 40.61 40.74 51.63 51.44 49.78 50.49 47.89 49.48 52.33 58.38 58.69 59.97 59.56 59.18 59.73 59.30 57.20 57.08 57.56 56.52 55.96 56.06 56.14 57.72 59.97 59.99 59.53 60.08 61.35 61.58 62.17 62.71 63.28 62.71 62.41 62.50 63.64 64.88
38.27 37.53 36.31 53.38 52.74 45.70 46.71 50.72 53.37 53.04 51.54 51.79 52.47 54.48 55.17 57.05 58.71 58.69 58.57 58.78 58.66 57.63 57.02 56.82 56.58 55.51 54.64 54.57 55.57 56.40 56.28 56.39 58.09 58.57 59.63 60.33 60.40 61.02 62.46 62.67 61.91 62.31 62.51 63.26
42.01 42.64 48.91 50.33 51.57 53.25 53.62 53.34 55.05 53.36 54.28 53.68 54.52 55.51 56.00 56.88 58.29 58.79 58.90 58.27 58.47 57.22 57.20 56.78 56.24 55.59 54.58 54.63 55.31 55.59 55.01 54.34 54.50 58.50 58.60 58.46 58.12 57.34 58.24 59.90 61.30 60.45 59.59 59.78
43.79 48.31 48.65 50.59 54.66 54.52 55.13 54.48 55.56 55.44 55.99 55.91 55.41 55.80 55.77 56.81 57.63 57.89 57.64 57.53 57.85 57.59 56.60 56.30 56.97 56.57 54.95 55.45 55.05 54.70 54.18 53.86 54.22 53.89 53.18 53.39 57.72 57.92 57.26 57.22 57.40 58.60 58.48 58.23
43.41 46.21 47.28 49.10 51.15 54.60 55.65 56.15 56.69 55.94 56.77 56.01 55.95 55.41 55.36 55.85 56.16 57.10 57.73 56.94 57.21 56.20 55.76 55.66 55.98 55.09 54.50 54.80 54.30 53.53 53.19 53.26 52.85 53.12 52.43 52.66 52.50 54.93 57.44 56.78 56.46 56.82 57.72 57.86
41.28 45.37 46.61 47.86 52.97 55.33 53.17 53.29 54.98 54.67 54.55 57.12 57.42 55.39 56.73 57.01 56.40 56.48 56.86 57.75 56.38 55.66 55.01 55.34 55.48 54.87 54.75 54.07 53.87 52.03 51.81 52.15 51.91 51.72 52.16 52.44 50.67 50.97 53.94 51.50 46.87 46.05 46.23 51.54
46.24 49.18 48.27 51.75 54.28 53.95 50.91 52.44 54.98 55.57 56.19 56.31 58.62 58.15 57.67 56.91 55.52 55.94 56.38 56.48 55.49 55.08 55.26 55.40 55.19 54.97 54.62 54.03 52.26 51.23 51.16 51.53 50.99 51.14 51.52 51.91 51.30 50.23 51.69 54.20 46.59 44.20 44.23 44.96
47.31 50.97 51.64 53.25 52.05 54.85 54.15 56.10 55.42 55.39 55.72 55.95 57.36 58.11 58.04 57.67 54.77 55.52 56.18 56.26 56.26 55.82 54.69 53.93 54.19 53.95 53.50 51.94 50.60 51.40 51.19 50.46 50.12 50.77 51.53 51.71 51.86 51.02 50.48 50.90 51.62 53.85 45.09 45.87
52.23 53.02 52.33 53.30 53.23 53.25 54.19 55.20 54.38 54.77 55.29 54.87 56.86 57.42 57.03 55.11 54.87 56.30 57.27 57.07 56.70 54.42 53.66 52.66 53.74 53.43 52.55 50.99 51.50 51.17 50.20 50.13 50.50 51.67 52.54 52.56 53.60 54.25 52.54 50.73 50.73 53.23 52.42 46.16
51.14 52.37 52.89 52.41 51.82 53.06 53.89 54.13 53.23 54.81 55.50 55.04 54.21 55.49 56.69 56.55 55.21 54.99 56.87 56.73 54.55 52.09 53.44 53.41 52.55 52.90 52.09 50.60 51.61 51.55 50.85 52.26 51.49 51.04 51.86 52.58 54.18 55.21 55.65 55.65 55.79 56.44 56.46 54.51
49.96 48.63 49.78 50.19 51.19 50.59 51.43 52.84 53.97 54.83 56.14 54.83 54.27 54.47 55.50 55.08 54.04 53.97 54.83 54.04 54.28 54.34 54.38 53.39 52.83 53.08 50.81 50.99 50.55 51.29 51.69 50.02 52.04 49.56 50.81 51.42 53.17 54.01 54.95 54.43 54.15 54.28 52.98 51.16
52.60 52.36 50.98 49.96 50.87 52.08 52.61 52.99 54.77 55.48 54.75 56.11 56.33 55.02 54.29 53.31 52.37 53.63 55.67 56.28 54.22 53.87 52.48 52.89 52.84 51.77 50.74 50.49 50.44 51.02 51.55 50.49 49.59 47.99 48.41 49.54 50.46 53.24 53.31 53.07 53.71 53.52 52.52 51.60
53.81 54.58 54.31 53.17 53.62 53.01 53.50 54.05 54.81 56.27 56.57 56.51 54.91 53.20 53.52 54.44 53.77 53.89 55.44 53.68 53.06 52.45 53.17 53.15 55.00 55.01 51.58 51.38 54.00 52.73 51.96 49.32 47.59 46.28 46.62 48.62 48.91 50.63 52.65 52.47 53.07 53.80 52.96 51.99
54.11 53.90 53.83 54.84 55.61 54.15 54.26 55.97 56.76 56.15 56.41 56.34 54.11 54.31 53.50 53.78 53.78 51.68 52.50 52.05 52.90 53.75 53.82 54.03 52.26 51.60 51.21 50.30 54.17 50.11 47.82 46.91 46.11 45.82 46.65 47.24 47.79 48.93 50.18 49.40 51.75 52.81 52.70 52.01
52.88 54.01 53.67 54.20 55.84 56.57 56.25 56.23 56.35 55.34 54.48 54.15 51.79 52.22 52.44 51.53 53.73 52.44 50.20 49.42 51.78 53.06 54.34 55.27 52.43 51.75 50.66 51.46 50.53 47.89 46.84 46.40 46.12 45.91 46.00 45.96 46.61 47.68 49.13 49.97 52.02 52.50 52.70 52.15
54.55 54.41 54.73 55.76 56.04 55.43 55.92 55.03 54.03 54.77 54.04 53.20 52.41 52.04 51.53 50.95 52.05 52.29 51.75 52.09 54.73 53.05 53.31 53.12 52.66 52.28 52.30 54.14 50.12 47.68 47.06 47.44 46.83 45.98 45.68 46.08 46.64 47.37 47.67 49.08 51.08 52.92 53.49 53.02
50.50 51.93 53.02 52.96 54.03 54.01 55.01 55.25 54.51 54.46 53.63 52.78 52.26 51.69 51.17 51.79 52.20 51.32 50.41 51.96 53.46 52.20 52.53 50.66 51.80 52.67 52.47 50.66 48.84 47.37 47.50 47.48 47.90 47.44 47.14 47.08 46.90 46.67 46.78 47.66 50.56 52.74 53.09 53.46
49.61 49.63 49.80 51.72 52.01 52.85 52.66 52.90 54.06 53.58 52.60 53.15 52.73 53.06 53.25 51.47 51.14 51.35 51.91 52.01 50.40 50.62 51.90 52.40 51.84 50.54 50.37 49.40 48.44 47.50 48.10 49.32 50.05 49.31 49.29 46.46 47.23 45.90 45.79 46.50 47.98 50.95 53.00 50.81
49.27 49.38 50.40 51.24 52.59 52.61 52.02 53.19 52.52 50.95 51.30 51.51 50.78 52.70 53.02 51.71 51.15 50.77 51.55 51.83 50.38 51.61 52.71 51.60 50.87 51.03 51.74 51.57 51.97 52.35 51.99 52.01 51.05 51.03 51.71 52.85 52.29 51.88 50.81 50.05 51.02 51.56 51.80 51.86
49.45 51.85 52.35 53.21 53.82 53.82 54.11 54.41 52.80 51.15 50.36 48.93 50.54 51.19 51.54 51.45 51.47 51.20 51.47 50.69 51.72 50.87 51.21 51.01 51.20 51.10 51.19 51.50 51.88 52.51 52.51 52.18 51.88 51.62 51.12 53.00 53.61 53.67 53.56 52.51 51.89 51.59 51.26 50.72
50.66 49.04 52.36 52.54 52.71 53.59 54.54 53.94 52.63 52.25 50.96 50.59 51.58 51.81 51.11 50.18 49.55 49.48 49.78 50.79 51.05 50.77 50.10 49.75 49.62 49.17 49.60 50.11 50.75 51.67 51.78 51.54 48.19 49.87 51.05 51.63 53.14 53.92 53.78 54.00 53.15 51.77 50.45 49.76

GFSNGP_sfc_wetblb_108.txt.gz
Wetbulb
38.57 40.94 41.68 41.12 41.36 42.21 39.54 40.26 39.38 42.76 39.34 45.31 48.18 50.34 51.45 53.77 56.07 55.12 55.48 56.41 58.99 59.70 61.01 62.52 63.47 65.14 65.33 65.35 64.90 67.60 66.82 64.45 63.89 64.24 63.65 64.10 63.87 64.17 65.26 66.45 67.33 68.61 68.55 68.70
36.56 41.57 40.89 39.75 42.28 43.17 42.89 46.18 44.14 46.00 45.42 50.58 51.93 52.78 52.53 52.68 53.30 53.19 54.59 55.67 58.39 61.36 61.97 62.34 63.82 63.61 64.55 64.27 65.13 66.11 65.22 64.62 64.82 64.26 64.41 63.84 63.76 63.79 65.43 66.90 66.52 65.65 66.32 67.13
32.30 37.49 38.97 34.83 40.32 43.65 46.51 48.09 46.94 43.39 46.95 51.16 50.93 50.90 51.56 52.19 52.83 53.43 54.47 55.96 58.99 60.80 61.56 62.43 63.11 64.53 64.48 64.49 65.42 65.38 64.86 65.04 65.13 64.50 63.84 63.52 64.46 65.22 65.13 65.50 65.55 64.98 64.71 64.99
30.53 33.90 28.49 38.28 49.64 50.00 48.45 49.38 50.69 50.35 50.85 51.78 50.62 51.57 52.57 53.94 54.43 55.34 55.79 57.11 59.01 60.90 61.32 61.59 62.60 63.21 64.03 63.72 63.33 63.72 64.23 65.07 64.48 64.23 64.52 64.78 64.94 64.81 65.14 65.51 65.34 65.59 66.23 65.72
30.80 31.05 37.24 44.56 47.96 47.50 45.49 45.27 50.35 50.43 51.43 51.22 51.09 50.71 50.98 55.28 57.97 58.18 58.29 59.13 60.67 60.60 60.39 60.04 60.29 61.68 61.87 61.67 62.21 61.27 61.30 62.61 64.21 64.59 64.34 63.54 62.68 62.92 63.70 64.64 64.78 65.07 66.37 66.46
37.23 34.08 33.55 42.20 50.68 53.01 51.40 42.05 51.04 52.07 50.25 50.08 50.01 44.60 47.76 55.36 58.06 56.43 58.83 60.12 59.62 59.79 59.70 58.76 58.72 59.22 59.19 58.72 57.93 57.81 60.61 60.99 61.99 63.27 63.17 63.72 64.04 63.32 64.13 65.02 65.74 66.05 65.67 67.42
38.22 37.47 40.90 48.22 52.29 53.88 41.68 41.82 51.40 52.14 51.05 49.84 48.21 50.16 53.45 57.52 58.47 58.87 58.74 59.16 59.15 58.33 57.48 57.91 57.88 57.77 56.25 56.56 55.94 57.09 57.85 59.92 60.55 60.94 62.03 62.52 63.65 64.24 64.68 65.29 64.96 65.20 65.40 66.06
36.99 35.29 34.41 52.35 53.24 47.26 47.32 49.98 52.39 53.36 52.70 51.08 52.00 53.38 55.75 56.72 57.77 58.09 58.10 58.68 58.82 57.87 57.76 58.28 57.45 56.51 55.34 55.13 56.18 56.83 56.89 57.13 59.18 59.73 59.59 60.46 60.89 62.56 64.27 64.14 63.76 63.89 64.13 61.76
40.44 39.88 46.55 49.88 50.66 52.86 52.97 51.86 52.95 53.73 54.57 54.27 53.67 54.98 56.80 56.89 57.80 58.36 58.11 58.76 59.04 58.28 57.98 58.41 57.89 56.62 55.80 55.64 56.15 56.58 56.12 55.71 56.17 56.56 56.39 58.96 60.16 59.96 60.48 62.04 62.18 61.85 62.12 60.92
41.96 44.66 47.43 50.22 52.37 54.05 54.66 53.71 54.81 55.47 55.20 55.61 54.79 56.87 56.49 57.11 57.65 57.96 58.51 58.11 58.61 58.66 57.73 57.42 57.72 56.55 56.17 56.58 56.18 55.83 55.46 55.16 55.30 55.50 55.73 56.11 57.05 59.71 59.67 59.49 59.36 59.53 59.54 60.11
42.21 45.60 46.31 49.06 51.38 52.35 54.37 56.16 56.16 56.12 56.50 56.22 55.95 56.39 56.44 56.43 56.74 57.76 58.12 58.10 57.99 57.45 56.95 57.25 57.67 56.93 56.37 56.15 55.57 54.66 54.74 54.47 54.12 54.56 55.33 55.34 55.00 55.54 58.89 59.79 58.14 59.12 59.19 59.18
40.57 44.40 44.51 45.73 50.03 54.31 52.62 54.02 54.37 55.04 54.22 56.57 57.37 56.44 57.14 56.92 57.51 57.65 57.35 57.90 57.39 56.87 56.69 56.78 56.92 56.82 56.55 55.84 54.24 53.67 54.06 53.55 53.19 53.34 54.25 55.23 54.31 54.91 51.33 49.87 46.56 45.48 46.75 53.49
45.24 46.47 46.37 48.53 53.28 54.85 52.91 52.28 54.28 55.41 55.69 56.79 58.61 58.24 58.12 56.98 57.11 56.34 57.52 57.31 56.94 56.42 57.56 57.11 56.47 56.80 56.07 54.68 53.67 53.98 53.44 52.86 52.82 52.72 54.25 54.61 54.58 53.90 55.18 54.50 45.66 44.57 44.57 45.66
46.90 46.47 46.81 51.07 51.36 54.38 53.84 55.40 55.40 56.30 56.21 56.52 57.61 58.82 58.13 57.74 56.85 56.47 57.05 57.16 57.01 57.35 56.51 55.72 56.04 56.16 55.70 53.48 53.90 53.52 52.92 49.94 52.84 54.34 54.84 55.26 56.38 56.31 54.57 53.94 54.38 55.47 47.16 46.46
51.37 49.95 50.33 53.15 53.79 53.99 54.84 54.96 54.22 54.27 54.84 54.59 56.24 56.89 57.26 56.26 56.00 56.21 57.43 57.46 57.19 56.60 55.88 55.54 55.04 55.75 55.64 53.93 54.48 53.63 52.54 52.53 52.54 54.41 54.63 54.86 56.95 57.93 56.76 55.41 54.71 54.75 57.23 51.21
52.06 52.47 52.73 52.65 52.65 53.04 53.77 54.24 53.13 53.77 54.73 55.25 55.11 54.75 56.83 57.35 56.73 56.65 57.70 57.41 56.15 54.68 55.64 56.37 54.84 55.70 55.37 54.02 54.71 54.05 54.19 52.58 51.91 52.96 53.91 54.67 56.12 57.10 57.68 58.09 58.26 58.16 58.26 57.83
50.02 49.90 50.97 51.44 51.86 52.16 52.45 52.95 53.54 53.92 55.13 54.76 55.18 56.27 55.93 56.54 55.08 55.36 56.08 56.47 56.04 56.01 56.44 56.14 55.57 55.73 54.26 53.53 53.67 53.34 53.84 53.51 52.41 51.20 51.27 52.70 53.68 54.86 57.05 57.26 57.19 56.93 57.36 55.58
52.36 52.77 52.84 51.37 50.93 52.01 52.62 52.99 53.82 55.17 54.57 56.30 56.51 56.67 55.49 55.69 54.70 54.94 55.52 56.65 56.34 55.76 55.93 55.55 55.47 55.02 54.24 53.67 53.16 53.26 54.40 54.16 51.92 50.58 50.17 50.67 51.42 52.25 53.80 56.22 56.90 56.37 57.13 55.24
52.89 52.66 54.42 53.40 53.03 53.22 53.17 53.81 54.65 55.16 56.16 56.78 55.72 55.42 55.21 55.22 55.30 55.63 56.59 56.62 55.04 54.36 55.22 56.48 56.02 56.30 54.91 54.76 55.58 53.62 54.47 52.39 50.71 50.05 49.77 49.00 50.49 51.02 51.94 53.82 55.86 56.18 56.60 56.58
53.73 54.18 54.29 54.71 55.40 54.91 53.81 55.54 56.66 56.51 56.82 56.33 55.02 54.44 54.50 54.57 54.07 53.66 53.88 53.62 54.35 54.21 54.91 55.49 56.13 54.79 54.74 53.69 54.28 53.70 51.77 50.61 50.33 49.79 49.61 49.69 49.71 50.11 50.69 47.75 51.65 55.33 56.02 56.34
53.45 54.79 55.24 54.62 55.70 56.03 55.66 55.96 55.90 55.83 56.34 56.03 53.57 53.49 53.85 53.08 54.37 53.79 52.84 52.45 54.62 55.23 55.02 55.40 54.74 54.87 52.90 53.60 53.34 52.45 51.57 51.35 50.57 50.06 50.06 50.13 49.79 50.53 50.75 51.25 51.89 53.55 54.89 55.49
53.20 52.68 54.28 55.55 55.66 55.07 55.83 55.12 55.49 55.62 55.14 54.07 53.86 53.54 53.09 52.75 54.16 55.14 53.97 53.42 53.94 51.32 53.78 54.01 54.19 54.02 54.21 53.76 52.80 51.81 51.04 50.61 50.24 50.58 51.11 50.90 50.34 50.24 50.68 51.20 51.49 53.05 54.51 55.53
49.36 50.47 51.95 53.28 54.80 55.14 55.77 55.22 54.89 54.82 54.51 54.07 53.41 53.21 53.16 52.84 52.93 52.39 52.59 53.71 53.34 51.17 54.61 54.20 51.86 52.13 51.82 53.12 52.62 52.19 51.69 52.07 52.48 52.46 52.20 52.50 52.31 51.35 50.38 50.14 50.42 51.85 52.68 53.83
49.18 49.92 51.25 53.90 52.91 53.29 52.30 53.23 53.34 53.21 52.01 53.50 53.96 54.26 54.10 51.99 51.72 52.55 53.47 51.33 49.80 51.57 53.21 51.98 51.30 50.57 50.85 53.40 53.69 53.92 54.04 54.12 54.00 53.98 54.08 48.45 53.77 53.99 53.85 53.44 52.78 52.97 52.81 52.10
50.15 51.09 51.90 52.04 52.75 52.69 52.71 52.48 51.90 51.45 51.95 51.87 52.17 52.48 52.66 52.20 51.82 51.90 52.72 53.03 50.02 51.50 51.96 49.79 49.39 49.78 51.95 52.29 52.64 53.45 53.86 54.02 53.53 53.32 52.90 52.68 52.62 53.20 54.18 54.36 53.54 51.92 51.65 51.09
51.51 51.80 52.92 53.88 53.53 53.93 53.46 53.54 52.64 53.02 51.63 51.91 51.37 51.31 50.78 51.00 51.75 52.21 51.51 49.75 49.26 47.34 47.19 46.40 46.13 47.21 46.78 46.70 47.68 48.02 48.31 48.58 48.39 49.64 50.12 52.06 52.53 52.76 52.87 53.61 53.61 52.99 51.19 50.54
52.77 49.35 52.19 51.44 51.74 53.10 53.59 52.98 53.07 52.04 51.08 49.56 47.38 47.75 47.30 46.55 45.79 45.82 44.92 45.31 45.11 44.67 44.41 44.26 44.12 43.39 43.88 44.24 44.52 45.07 45.68 45.96 43.51 46.41 48.72 49.18 51.27 52.50 52.67 52.18 51.33 52.20 50.92 49.71

GFSNGP_sfc_wetblb_111.txt.gz
Wetbulb
47.12 47.61 47.30 46.95 46.43 46.59 45.00 45.58 42.99 45.63 47.39 51.69 54.73 55.60 56.64 57.12 57.95 58.08 58.60 58.86 59.67 60.27 63.56 65.60 65.22 66.85 67.59 68.31 68.61 68.07 66.71 68.02 68.51 69.04 67.89 67.90 67.97 68.44 68.47 68.43 67.99 69.84 70.31 71.58
44.17 46.62 46.56 44.41 46.17 46.15 46.13 46.55 47.27 47.98 49.50 56.09 56.75 57.59 55.96 56.31 57.21 57.14 57.82 58.74 59.91 60.37 63.74 64.16 63.63 64.88 65.89 65.92 66.65 66.87 66.64 68.01 67.59 67.57 66.46 66.30 66.71 66.78 67.16 67.66 67.50 68.52 69.02 69.76
40.44 44.02 43.90 40.85 45.08 45.93 47.61 51.40 51.30 48.29 52.65 55.41 55.76 55.23 55.43 56.25 57.37 57.37 57.23 58.18 59.71 60.28 61.42 63.21 63.26 63.51 63.97 64.22 66.02 66.37 65.69 66.33 67.35 67.20 66.38 66.08 66.22 66.76 66.28 67.15 67.61 67.34 68.11 68.26
41.46 42.29 35.97 45.65 53.06 52.72 51.56 52.75 54.28 53.86 54.85 56.27 56.37 55.88 56.66 58.96 56.89 55.86 57.91 59.08 60.41 60.35 61.20 61.51 62.03 62.95 63.04 63.36 63.39 64.06 64.26 65.01 65.37 65.55 65.62 65.75 65.34 65.13 65.41 65.70 66.09 66.04 67.00 67.00
40.85 40.64 43.57 46.61 51.59 51.12 49.45 49.69 54.13 53.44 54.78 55.97 55.82 55.98 55.02 58.78 58.90 56.90 56.79 58.18 58.96 60.27 60.23 60.17 59.93 61.49 60.77 60.72 61.58 62.23 61.86 63.92 65.33 65.64 65.29 65.80 66.79 67.19 66.80 65.98 65.48 65.28 66.22 67.72
43.51 39.22 37.58 48.71 53.00 55.93 54.69 47.36 54.74 55.26 55.14 55.27 55.47 51.10 54.17 58.99 58.11 57.87 57.02 58.85 58.65 59.51 59.49 58.83 59.16 60.60 60.02 59.27 59.29 60.18 62.47 63.17 65.12 66.58 65.98 66.00 66.29 67.37 67.34 66.78 67.33 67.71 67.82 67.99
44.14 42.99 46.94 52.29 54.35 56.16 44.98 47.27 54.64 55.86 56.50 56.44 54.72 56.00 56.89 59.09 58.09 58.84 59.00 58.85 59.92 60.69 58.40 58.80 59.34 59.93 59.14 59.14 58.79 60.34 62.62 64.34 64.36 65.79 66.30 67.18 67.95 68.93 67.82 67.20 67.20 67.32 67.58 66.85
45.67 43.55 40.60 54.46 55.11 49.60 53.70 56.98 56.31 56.64 57.70 57.67 58.52 58.65 58.00 58.65 57.57 57.46 56.74 58.68 59.20 60.07 59.72 59.92 60.15 60.00 59.32 58.91 60.77 61.43 61.95 61.79 61.91 63.38 64.51 65.11 67.50 68.00 68.23 68.25 68.02 67.48 64.35 63.54
48.11 47.75 52.77 55.75 55.80 58.30 58.20 57.14 57.91 57.49 59.02 58.86 58.58 58.20 58.36 59.34 57.63 57.41 56.64 57.97 59.96 59.76 60.67 59.94 60.17 59.94 58.82 59.47 60.88 61.30 61.36 61.42 61.76 62.18 62.34 65.12 65.35 65.53 65.14 66.13 65.40 64.62 62.90 63.20
47.16 51.34 52.22 54.40 56.19 56.80 57.60 57.87 59.06 59.41 59.15 58.87 58.28 58.81 58.10 57.80 59.53 58.39 58.15 58.74 60.43 59.77 59.87 59.96 60.45 59.74 58.92 60.09 60.39 60.88 60.19 60.28 61.24 61.50 61.71 61.65 62.40 64.50 63.69 63.11 62.68 62.85 63.24 63.03
48.78 51.20 52.08 54.31 54.74 55.92 56.87 58.36 59.05 59.35 58.56 58.40 58.92 58.81 58.63 59.51 59.67 58.41 58.41 60.45 61.38 60.64 59.77 60.60 61.11 60.45 59.56 60.05 59.54 59.66 59.63 59.95 60.28 60.55 61.40 61.68 61.07 62.71 64.28 64.83 61.20 62.97 62.81 62.96
44.90 51.69 51.16 52.76 54.85 55.55 55.09 57.03 58.40 58.24 57.83 59.09 59.64 58.44 59.53 59.57 59.87 59.55 58.41 58.81 60.73 60.87 59.95 60.14 60.65 60.63 59.97 58.88 58.89 59.21 58.84 58.63 58.36 59.29 60.12 60.77 60.42 61.45 50.38 49.85 46.63 45.76 46.12 55.13
50.17 52.95 53.68 54.09 54.76 54.80 54.68 58.95 58.40 58.93 59.18 59.02 60.25 60.48 58.69 58.84 60.83 58.78 58.70 59.16 60.51 59.92 60.64 60.11 59.68 59.45 59.17 57.88 58.14 58.37 57.92 58.19 59.66 58.91 60.88 61.40 61.89 60.62 60.65 55.58 45.69 44.85 45.21 44.63
53.30 53.65 50.62 52.77 52.43 57.81 57.76 58.53 57.59 59.45 59.77 60.39 59.56 61.10 60.56 60.12 60.13 59.87 60.11 59.74 59.04 60.41 59.84 59.52 59.65 59.56 59.20 57.78 59.19 58.68 57.96 50.82 59.56 59.51 60.31 60.89 61.62 61.74 61.67 60.78 60.07 60.79 48.34 47.92
55.28 55.40 52.93 54.44 56.46 57.91 58.93 58.91 57.92 58.06 58.98 59.51 61.12 60.27 60.88 59.86 59.74 60.02 61.05 59.73 59.93 59.87 59.51 59.33 59.29 59.72 59.41 58.01 58.90 58.79 57.61 57.33 58.03 59.45 59.48 58.54 60.96 60.92 60.55 60.35 59.85 60.68 63.08 52.41
55.55 56.65 56.69 55.93 56.65 57.67 57.75 57.76 57.34 57.71 58.35 58.49 59.12 60.02 60.81 60.34 59.71 59.10 60.17 60.30 58.92 58.96 60.82 60.32 59.82 60.15 59.76 58.82 59.24 59.33 59.42 54.07 54.22 57.30 57.34 57.91 58.31 58.46 58.86 59.98 60.32 59.44 59.44 60.66
54.64 54.41 55.15 55.53 55.93 56.70 56.85 57.63 58.11 58.31 58.51 58.15 58.68 59.25 59.99 60.51 59.95 58.93 59.88 60.51 60.57 61.61 61.85 61.16 60.67 60.33 59.37 58.74 58.40 59.00 59.45 59.42 52.37 57.58 56.20 55.75 55.92 56.26 57.10 57.99 58.91 58.81 60.09 59.61
55.57 55.70 55.82 56.53 55.86 55.97 56.58 57.05 57.52 58.17 58.82 58.98 58.99 59.24 60.13 59.45 57.78 57.42 59.23 59.06 58.92 60.36 61.25 62.00 61.16 60.13 59.45 59.20 58.42 58.60 58.62 59.87 58.48 57.35 56.43 55.72 55.58 55.79 56.13 56.89 57.68 58.88 59.56 59.80
55.65 55.63 56.18 57.01 56.46 56.21 56.56 57.06 57.58 58.56 59.61 59.26 58.20 57.54 58.28 59.32 58.35 60.37 60.37 59.24 58.76 58.56 59.65 60.79 58.33 57.98 60.60 59.12 57.67 59.73 59.70 59.15 57.92 57.38 56.80 53.66 56.34 56.24 55.31 55.60 56.55 57.44 58.45 59.59
55.24 56.53 56.70 56.52 57.24 57.11 56.92 58.36 58.38 58.28 58.98 57.55 56.84 56.72 58.06 58.43 58.76 58.56 58.74 57.44 57.77 58.28 59.98 60.44 60.06 59.62 59.27 58.47 55.45 58.80 58.73 58.10 57.68 57.28 56.81 55.47 56.53 56.80 57.06 51.89 55.57 57.03 57.71 58.36
54.94 55.55 55.81 55.83 57.25 57.67 57.93 58.65 58.40 57.68 57.16 56.55 56.86 58.60 58.51 58.62 59.28 59.11 57.05 55.27 57.72 57.95 58.16 57.40 58.33 56.62 56.83 55.54 58.03 58.88 58.16 57.43 56.80 56.37 56.17 56.76 56.96 56.92 56.87 57.05 56.70 56.53 56.46 57.13
53.23 54.62 55.48 56.74 57.22 56.37 56.88 57.11 58.43 57.21 57.41 57.03 57.34 58.08 58.07 58.60 58.63 57.19 57.41 57.22 57.54 51.83 57.91 58.47 58.05 54.47 56.78 55.61 58.27 57.79 57.61 57.51 57.55 57.53 57.01 57.04 56.90 56.56 56.64 56.79 56.62 56.67 57.04 57.38
54.48 55.08 55.79 56.20 56.52 56.23 56.64 56.64 56.64 56.53 56.30 56.91 56.90 57.21 56.05 55.95 57.69 57.11 55.36 57.08 57.81 53.37 56.56 55.45 51.64 51.78 52.48 57.36 57.11 56.85 56.63 56.45 56.45 56.36 56.39 56.28 56.16 55.96 56.20 56.43 56.66 57.03 56.84 56.52
55.69 56.20 56.43 57.15 56.10 54.23 51.69 54.56 54.31 54.31 53.72 53.41 54.04 56.59 56.78 55.64 55.61 56.82 56.51 52.29 50.28 51.97 51.27 50.61 50.77 49.80 51.20 55.44 55.57 55.57 55.53 55.37 54.92 54.67 54.66 47.51 54.71 54.75 55.14 54.93 55.16 55.78 55.30 53.89
55.44 55.65 56.23 55.70 54.02 53.76 54.92 55.42 54.67 54.14 52.95 52.56 52.95 55.09 56.41 56.48 55.58 55.40 55.42 51.48 46.72 48.87 48.90 45.98 45.81 46.72 49.35 49.54 49.50 49.62 50.08 49.91 49.58 50.75 51.76 52.89 53.03 53.09 53.13 53.50 53.65 53.15 53.23 53.67
54.61 55.33 55.48 55.75 54.96 54.39 54.35 55.34 53.55 53.49 52.63 49.85 49.92 51.93 52.98 53.22 51.37 50.20 48.63 47.20 47.43 45.62 46.50 46.23 45.47 46.22 46.07 46.30 46.52 46.82 47.28 47.54 46.92 46.78 46.98 47.82 47.90 48.47 49.18 48.57 48.62 49.79 51.83 50.95
55.51 51.13 56.64 56.54 56.70 55.59 54.84 54.37 53.67 53.26 50.97 48.37 46.63 48.84 49.67 49.47 47.80 47.22 45.40 46.82 46.34 45.90 45.76 45.70 45.23 44.30 44.61 44.58 44.62 44.76 44.77 45.07 42.35 44.73 45.16 45.04 45.27 45.15 45.75 46.25 46.96 47.89 47.51 48.36

GFSNGP_sfc_wetblb_114.txt.gz
Wetbulb
50.76 50.27 49.66 49.04 49.13 49.28 48.63 49.30 46.23 48.10 47.87 51.88 56.26 58.32 59.36 59.54 60.36 60.38 60.93 61.47 62.22 62.87 63.26 64.76 65.98 67.05 67.66 69.19 70.30 70.23 70.60 70.24 70.45 70.23 69.44 70.57 70.61 70.52 70.29 71.12 70.97 71.38 71.74 72.85
47.67 49.03 48.86 47.20 48.82 48.93 48.63 49.07 48.81 48.79 49.66 58.14 59.52 59.97 59.40 59.11 59.73 59.51 59.98 61.14 62.18 61.78 61.63 63.46 63.98 65.68 65.18 67.81 68.45 69.70 69.40 69.69 70.06 70.63 68.84 69.64 69.92 70.04 70.42 70.01 70.26 70.80 70.46 70.65
44.22 47.40 47.02 44.23 47.90 48.73 49.24 51.05 51.35 49.93 54.51 57.83 57.42 58.20 58.39 58.93 59.70 59.07 59.07 59.69 61.23 60.15 62.56 62.34 63.30 63.32 62.81 64.45 66.88 67.02 66.63 67.37 69.72 69.43 69.04 69.17 68.77 69.26 69.24 68.75 69.54 70.21 70.11 70.76
44.86 46.93 39.58 49.48 54.22 54.42 52.29 53.83 55.57 55.50 55.90 56.52 57.64 59.09 59.44 60.94 60.15 59.85 59.73 59.75 59.70 58.64 58.77 60.50 61.28 62.11 62.52 63.00 63.14 65.48 66.50 66.03 67.16 67.72 67.58 67.84 68.93 68.20 68.39 69.09 69.40 68.64 68.75 70.87
44.35 44.50 47.36 48.86 52.55 52.65 52.06 51.99 55.99 55.28 55.79 56.67 57.93 58.43 59.16 61.30 60.84 59.60 59.26 59.48 60.05 60.44 59.33 59.34 59.77 61.55 61.23 61.46 61.03 61.71 64.41 64.51 65.62 66.99 66.28 67.31 67.55 68.27 69.44 69.71 68.24 66.95 67.54 68.13
47.08 42.29 40.28 51.41 55.99 57.70 56.79 48.80 56.65 56.45 56.18 56.53 57.45 52.39 56.50 61.82 61.46 60.63 60.33 61.18 60.31 59.94 60.14 59.48 59.84 61.83 60.93 60.06 60.07 60.12 62.49 64.52 66.16 67.24 67.13 67.88 68.90 68.91 70.16 70.19 69.87 69.84 69.59 68.18
45.78 44.17 47.04 55.16 56.88 57.86 47.05 50.19 57.48 57.97 57.93 57.92 56.11 58.36 61.33 62.19 61.40 61.01 59.52 61.02 60.42 59.85 59.50 59.92 60.88 62.04 60.38 60.72 60.10 61.60 64.86 63.92 65.59 67.35 68.01 68.56 68.89 69.33 69.48 70.57 70.39 69.12 65.87 65.26
47.74 45.36 42.96 57.54 56.33 51.50 56.31 59.20 59.05 59.82 59.73 59.86 60.16 61.59 61.59 61.44 60.91 59.72 58.18 58.96 59.71 58.88 58.97 61.30 61.29 60.98 60.25 59.78 62.39 63.71 64.61 64.61 64.57 66.76 66.83 69.07 69.43 69.70 69.95 70.31 69.38 66.90 65.21 62.91
49.11 50.17 56.62 57.30 56.10 58.66 59.43 58.82 59.90 60.50 60.94 61.15 60.47 60.86 60.88 61.20 62.04 58.64 58.98 58.20 60.28 59.11 58.91 59.45 61.87 61.88 59.81 60.64 62.90 64.33 64.36 65.07 65.31 65.30 65.79 68.23 68.26 68.10 67.02 68.53 68.69 66.15 64.98 64.85
50.39 53.13 54.35 55.90 57.41 57.27 58.79 59.60 61.31 61.57 61.57 61.16 60.36 61.12 61.12 61.50 61.58 61.33 59.99 59.13 60.96 60.48 59.51 59.18 59.52 62.26 61.62 61.87 62.74 63.42 63.31 63.88 64.83 64.49 64.24 65.88 67.37 66.79 65.16 64.52 64.38 64.68 65.21 65.23
51.66 53.96 55.58 56.14 56.29 57.13 57.76 59.03 59.67 62.03 61.78 60.83 60.94 60.89 61.25 61.49 62.17 62.03 60.69 60.16 61.23 60.63 61.12 61.01 61.90 61.71 61.90 60.82 62.37 62.53 62.78 62.99 62.97 62.64 63.50 64.46 64.92 64.82 65.11 64.17 59.39 64.07 64.41 64.67
47.93 53.80 53.43 54.13 56.19 57.54 56.94 56.60 58.43 61.04 60.66 61.40 61.72 60.59 61.15 61.60 61.78 61.76 60.59 60.93 60.48 61.36 61.61 61.16 61.74 61.66 61.61 60.82 62.06 62.42 61.98 61.98 61.07 62.58 63.05 63.10 62.19 63.85 49.69 49.09 46.57 44.85 45.56 54.98
51.70 54.38 54.65 55.53 56.87 57.67 57.72 59.93 60.15 61.63 61.48 60.94 61.17 62.04 61.33 60.84 60.97 59.91 60.18 60.50 61.31 61.22 61.55 61.98 61.21 61.24 61.86 60.70 61.36 61.05 61.56 62.61 62.37 60.84 62.25 62.58 63.21 62.74 63.02 56.23 46.61 45.79 45.63 45.81
55.41 55.55 54.06 55.29 54.99 57.27 58.65 59.74 59.83 61.93 62.32 62.46 61.30 61.05 61.32 61.50 61.20 61.22 60.96 60.99 61.15 61.46 62.16 63.02 62.01 61.57 61.50 60.88 61.43 61.21 61.41 51.87 61.92 61.72 61.21 61.58 62.31 62.26 62.48 62.79 62.42 62.23 48.87 49.91
55.44 59.06 58.00 58.81 59.42 58.19 60.13 61.51 60.60 60.84 61.89 61.96 62.68 61.39 61.28 60.39 60.36 60.97 61.93 62.58 62.53 61.29 62.48 63.13 62.50 62.12 61.29 61.00 61.45 61.31 60.05 59.09 59.95 60.23 60.11 58.74 60.64 60.99 60.97 61.07 60.46 60.82 62.86 51.57
57.69 57.65 58.40 58.98 59.57 60.22 60.88 60.98 60.50 60.63 61.07 61.52 61.62 61.71 61.48 61.89 60.88 61.42 62.92 63.81 62.19 60.79 61.62 61.96 61.33 61.30 61.51 61.64 61.42 61.12 61.11 54.73 56.07 59.64 59.60 58.93 58.99 58.88 58.84 59.35 60.16 60.56 60.46 60.22
55.36 54.49 56.67 57.05 58.31 59.08 60.13 61.31 61.42 60.89 61.17 61.15 61.57 61.72 61.43 62.17 61.07 61.28 62.11 63.30 62.15 62.03 63.28 63.00 61.39 62.60 62.52 62.17 61.12 61.04 60.67 61.43 55.63 59.46 58.79 58.02 58.10 57.84 58.23 58.47 58.67 59.22 59.71 60.67
57.93 58.16 58.29 58.34 58.50 58.98 59.74 60.55 60.94 61.26 61.37 61.87 61.53 62.27 60.97 60.56 60.08 60.77 59.95 62.20 61.67 62.63 63.25 64.05 64.54 63.21 62.73 62.37 61.30 61.12 61.16 60.92 60.22 59.09 59.04 58.78 58.33 58.27 57.94 57.24 58.01 58.53 59.21 59.64
58.27 57.59 58.06 58.34 59.11 59.47 59.75 60.13 60.47 60.63 61.16 61.77 61.52 60.11 59.91 59.71 61.23 60.77 61.20 60.46 60.95 60.51 62.16 64.11 58.43 59.45 63.19 59.70 58.54 60.77 60.71 60.60 60.18 60.08 60.05 57.27 59.31 59.57 59.47 59.52 58.27 57.43 58.22 58.90
57.70 58.42 58.80 58.79 59.65 59.60 59.37 60.57 60.80 60.74 61.57 61.72 61.02 59.19 57.20 57.68 60.70 60.99 61.46 60.86 61.40 60.24 63.03 62.72 63.34 63.05 62.09 59.46 57.65 58.20 58.47 59.97 59.43 59.54 59.56 58.65 59.30 59.32 59.47 54.76 58.64 59.29 59.01 58.71
56.79 57.62 57.03 56.99 57.43 59.37 60.56 61.06 60.83 59.91 59.91 60.28 58.76 57.23 57.36 59.79 61.44 61.21 61.09 58.40 58.99 60.47 60.84 59.45 60.73 60.95 57.03 57.13 60.14 61.00 60.16 59.91 59.53 59.20 59.21 59.18 59.16 59.10 58.87 59.02 59.02 59.20 59.48 59.61
56.97 57.85 56.01 56.80 56.75 56.14 57.89 60.21 59.91 58.31 56.97 56.54 57.49 59.89 58.98 59.69 59.61 60.35 61.10 59.61 60.11 52.39 58.88 59.06 57.94 54.58 57.47 54.75 60.17 59.55 59.10 58.63 58.33 58.26 57.93 57.84 57.62 57.36 57.44 57.82 57.17 56.91 57.49 57.73
58.25 58.61 58.65 56.88 55.34 56.22 56.72 59.58 59.23 57.33 56.30 56.20 57.00 59.10 60.12 60.58 60.28 59.02 56.52 58.58 58.29 53.18 57.83 55.86 50.43 50.95 51.83 58.67 58.46 58.14 57.61 56.93 56.49 56.20 55.86 55.93 55.51 55.54 55.56 55.74 54.40 55.03 55.12 55.62
57.55 57.97 58.04 58.69 58.33 57.28 55.04 55.08 55.06 55.22 54.92 54.98 55.41 55.77 58.14 56.88 58.16 58.47 57.49 52.24 48.98 50.19 50.17 49.78 49.23 47.66 49.05 54.56 54.32 54.13 54.04 54.23 53.81 53.36 53.74 48.06 54.56 55.00 54.88 54.71 54.73 54.40 53.62 52.96
57.68 57.57 58.04 58.11 56.50 53.26 55.41 55.81 56.00 53.53 53.54 52.43 53.31 55.92 56.00 57.19 57.36 56.11 54.38 52.34 47.51 51.31 51.74 45.41 46.12 46.99 50.94 50.63 50.65 50.53 50.71 51.15 50.56 49.54 50.18 50.34 51.03 51.11 51.63 51.73 52.76 52.89 51.71 50.91
58.12 57.22 57.43 57.87 57.66 56.65 55.50 55.09 52.77 51.88 51.06 49.36 50.53 52.24 52.96 53.87 53.12 52.50 51.37 49.63 50.43 47.99 49.27 48.99 47.75 48.04 48.16 47.97 47.62 47.77 47.74 47.75 47.83 47.68 46.31 47.56 47.90 47.80 47.96 48.10 48.26 48.54 48.75 48.82
58.48 53.95 58.78 58.84 57.61 57.64 57.54 54.42 52.37 50.22 49.11 49.16 49.68 51.78 51.27 51.97 50.56 50.04 47.81 50.05 49.72 49.23 48.98 48.68 48.40 46.69 46.55 46.65 47.22 47.21 47.35 47.52 44.65 46.73 47.05 47.53 47.65 47.61 47.58 47.64 47.67 47.62 47.73 47.57

GFSNGP_sfc_wetblb_117.txt.gz
Wetbulb
52.20 51.99 51.89 50.90 50.28 50.22 49.88 51.07 48.38 49.80 49.59 52.48 54.76 58.94 60.19 61.48 61.66 61.42 62.14 62.28 62.90 63.25 63.78 64.91 65.86 66.30 67.22 68.09 69.33 70.25 70.35 70.66 71.08 72.36 72.57 72.65 72.63 72.58 72.58 72.79 72.91 73.01 72.84 73.36
49.29 50.58 50.53 48.83 49.75 50.12 50.23 50.39 50.16 49.86 49.90 56.24 60.47 60.88 60.40 60.78 60.76 60.54 61.22 61.69 62.55 62.43 62.21 62.15 63.70 65.13 66.05 66.16 67.54 69.19 68.92 69.41 70.77 71.81 70.55 71.08 71.06 70.84 71.27 71.10 71.42 71.77 71.66 71.62
46.10 49.49 49.13 46.26 49.36 49.85 50.54 51.45 50.76 48.47 54.46 58.76 58.34 58.86 59.44 60.04 60.61 60.83 61.30 61.71 61.37 60.08 60.05 61.44 59.77 61.62 61.72 63.08 63.87 67.08 67.64 68.53 69.27 70.36 69.75 70.51 70.43 70.44 70.55 70.75 71.33 70.78 70.95 71.18
46.38 48.30 41.42 50.56 54.49 53.46 51.79 53.06 54.92 55.67 56.91 58.62 58.51 59.51 60.35 61.28 61.78 62.15 61.55 61.09 61.03 60.40 60.22 60.75 59.27 60.47 61.96 62.88 62.82 63.26 65.51 66.98 67.96 67.49 68.18 70.45 70.38 70.58 70.79 71.15 70.74 70.93 70.67 71.43
45.64 46.48 48.90 50.25 53.61 52.91 52.22 52.99 56.33 56.25 56.91 57.83 58.83 59.14 59.86 63.16 63.27 62.40 61.27 61.95 62.26 62.73 62.48 61.12 59.33 60.75 61.58 62.31 62.44 63.04 62.40 64.67 65.63 65.80 66.45 67.76 67.87 68.74 70.44 69.57 70.99 71.00 70.85 70.48
48.20 44.29 42.82 52.11 57.06 58.38 56.99 48.13 58.47 58.04 57.55 57.56 58.24 53.33 55.67 62.85 62.59 62.23 62.63 62.86 62.47 61.73 60.87 60.12 61.47 61.32 62.45 61.50 61.74 61.60 61.26 62.72 63.53 65.26 65.95 67.71 68.67 69.69 70.28 71.18 70.77 71.02 70.12 70.11
47.05 45.22 48.15 53.40 58.78 58.41 46.91 51.09 58.78 58.80 58.86 58.57 57.07 58.47 61.61 63.37 63.07 63.54 62.62 62.11 62.00 61.34 58.99 59.53 61.99 60.97 60.73 61.56 60.41 62.14 64.62 64.89 65.52 66.34 65.73 66.58 69.97 70.29 70.34 70.25 70.06 69.01 67.65 66.45
48.99 46.52 43.98 58.95 57.15 52.44 57.00 59.65 59.52 59.62 60.10 59.49 60.37 60.98 61.95 62.19 62.87 62.91 61.26 61.17 61.04 59.99 59.31 59.25 60.87 61.15 60.42 59.79 62.39 64.82 65.35 65.66 66.40 67.04 67.95 68.22 68.90 69.22 69.84 67.77 67.93 66.66 64.70 63.73
50.97 51.30 57.74 59.17 57.96 58.75 59.50 59.13 59.57 60.22 60.68 60.26 60.02 60.46 61.87 62.23 63.12 63.02 61.86 60.35 60.95 58.85 58.99 58.22 59.65 61.20 61.26 62.49 63.15 65.12 65.92 65.61 66.12 67.63 67.10 68.51 69.12 70.21 67.37 68.36 68.31 66.19 67.02 67.32
52.77 55.08 55.35 57.49 59.00 58.68 59.00 58.94 60.04 61.13 61.01 60.80 59.72 61.00 61.42 62.59 62.92 62.85 62.22 60.64 61.29 60.89 59.16 59.34 59.09 59.47 62.60 62.47 63.49 64.86 64.91 64.71 65.61 65.68 65.20 68.00 67.24 66.91 65.97 65.16 66.21 65.76 66.28 66.26
52.97 55.15 55.54 57.13 58.34 59.09 58.54 59.00 59.04 59.73 61.05 61.65 61.20 61.43 61.98 62.12 62.72 63.19 62.53 61.57 61.27 60.74 60.52 60.68 62.09 60.94 62.21 62.21 62.64 63.31 63.70 63.79 63.64 63.33 63.89 65.38 65.33 64.41 64.29 60.01 57.23 64.09 63.48 64.77
49.37 55.23 55.58 56.22 57.85 58.43 57.44 57.62 58.56 59.21 59.53 61.94 61.83 61.81 61.50 62.28 62.14 62.29 61.17 61.10 60.87 61.40 61.80 60.33 61.91 62.40 62.02 62.42 62.73 63.39 62.95 61.84 62.15 62.99 63.19 62.85 63.36 64.14 49.80 49.97 47.27 45.36 44.78 54.45
53.47 56.16 56.37 56.94 57.77 58.04 57.56 57.93 59.64 61.02 61.51 61.52 62.15 62.40 62.05 61.63 62.55 59.76 60.77 60.63 60.16 60.29 61.45 62.10 62.86 62.62 62.23 61.90 62.27 62.79 62.72 63.62 62.48 60.78 62.25 62.10 62.66 62.49 63.66 57.83 47.86 46.96 45.74 44.82
56.20 56.15 54.64 55.93 55.74 57.99 58.33 58.52 59.69 61.48 63.20 63.11 62.90 62.13 62.05 62.29 62.04 61.83 61.36 61.69 61.66 61.80 62.21 62.59 62.74 62.27 61.82 61.88 62.89 63.20 63.41 54.52 62.11 61.41 60.93 61.27 61.28 61.42 61.61 61.38 61.89 62.07 49.90 49.21
56.36 57.21 56.70 58.78 59.48 59.59 59.83 58.58 58.69 60.70 62.06 62.56 63.40 62.55 62.06 60.54 60.65 61.61 62.66 62.70 62.35 62.19 63.34 62.81 61.89 61.52 62.21 62.63 62.56 62.17 60.60 59.93 60.86 60.57 59.92 59.39 60.57 60.59 60.38 60.61 60.41 60.37 62.19 53.26
57.80 58.00 58.09 57.65 58.69 59.90 59.62 59.26 59.38 60.72 61.63 62.01 61.88 62.30 61.81 62.37 62.52 62.20 62.66 63.52 60.86 59.59 61.50 61.77 61.31 61.96 62.49 62.55 62.55 62.37 61.66 56.40 58.11 60.27 60.48 59.57 59.01 58.47 58.55 59.27 59.62 60.12 60.25 61.20
55.88 55.19 56.33 57.11 58.31 58.95 59.72 60.38 60.63 61.14 61.18 61.59 61.74 63.14 61.57 61.04 58.78 62.02 62.01 63.12 62.26 62.19 62.78 62.32 62.11 62.98 62.85 62.81 62.19 62.31 61.69 61.48 59.48 60.29 59.49 59.64 59.50 58.83 58.61 58.01 58.03 58.48 59.41 59.28
58.94 59.33 59.51 59.17 58.53 58.96 60.19 61.28 61.95 62.30 61.82 62.65 62.82 62.79 61.58 61.63 59.21 61.74 61.53 62.45 61.84 61.12 61.47 62.68 63.91 63.84 63.21 62.69 62.04 61.66 60.36 60.28 60.04 59.91 60.40 60.35 59.68 59.86 60.14 59.98 59.47 58.14 58.27 58.64
59.63 59.52 59.77 59.65 59.96 60.04 60.72 61.42 62.47 62.82 63.07 62.64 62.44 61.85 61.71 62.27 62.17 61.04 60.68 60.73 60.98 58.53 62.00 64.04 58.68 61.11 63.59 59.73 59.96 61.34 60.48 60.01 59.33 59.74 59.27 57.88 59.53 60.08 59.92 59.93 59.99 59.96 60.04 59.60
59.13 59.22 59.86 59.81 60.66 60.94 60.42 61.25 62.14 62.37 62.14 61.97 61.62 61.44 61.01 60.89 60.92 59.43 59.25 60.71 62.08 61.75 63.57 63.24 63.71 63.15 62.30 61.45 59.24 59.64 60.83 60.23 59.19 59.49 59.80 59.08 58.61 58.43 59.26 55.33 58.59 59.29 59.45 59.71
57.75 58.52 58.93 59.45 59.08 59.52 60.55 61.85 61.37 61.06 60.86 61.64 60.78 60.10 59.91 59.29 60.32 59.84 59.49 60.24 61.47 61.35 62.05 59.55 59.95 59.13 61.50 58.67 59.52 59.47 57.98 58.65 58.40 58.93 58.63 58.59 58.44 58.26 58.04 58.15 58.17 58.25 58.35 58.18
58.80 58.24 57.70 57.02 56.50 57.27 59.08 60.81 60.70 60.29 60.20 59.82 59.71 57.64 57.40 57.40 57.88 59.38 61.25 60.73 59.84 52.18 58.92 58.44 56.71 52.97 55.89 53.00 59.76 58.17 57.82 57.41 57.45 57.47 56.99 56.65 56.38 56.22 56.15 56.37 56.36 57.12 56.96 56.84
59.00 58.98 58.22 57.18 58.60 58.00 57.80 58.14 58.45 57.34 57.33 55.92 55.78 57.22 58.03 57.40 57.17 56.42 56.56 57.89 57.06 52.29 56.39 53.43 49.07 49.55 49.69 56.95 56.68 56.08 55.98 55.48 55.21 55.11 54.71 54.48 54.61 54.74 55.31 55.65 55.75 55.99 55.93 55.00
58.25 59.00 58.79 59.24 58.66 58.53 54.53 56.39 57.20 57.12 55.32 55.38 54.81 57.31 59.64 57.65 57.26 58.21 55.32 50.35 49.38 50.74 50.18 49.06 48.39 47.13 46.64 53.03 52.87 52.74 52.38 52.47 52.65 52.40 51.19 46.22 51.36 51.29 51.83 52.40 52.43 53.28 53.90 51.82
58.21 58.29 58.42 58.23 57.94 56.54 57.29 56.34 55.06 53.96 54.87 54.33 53.05 53.71 52.21 56.48 55.55 56.03 55.47 53.35 48.04 51.51 52.59 44.54 46.73 47.55 50.81 50.38 49.63 49.77 49.70 49.63 48.97 48.65 49.42 48.77 48.59 48.87 49.26 49.50 49.56 49.58 49.27 49.84
58.87 58.76 58.02 58.64 57.27 55.74 54.49 52.72 51.47 51.15 50.66 50.09 51.87 53.32 54.37 53.47 54.03 54.30 52.88 50.91 51.48 49.78 51.04 51.17 49.79 49.21 49.07 48.84 48.54 48.96 48.88 49.02 48.90 48.79 47.74 48.76 49.08 49.08 49.13 49.33 49.45 49.52 49.61 49.61
58.70 54.89 58.74 57.58 57.42 57.88 56.50 53.79 52.84 52.89 51.49 52.20 52.40 53.58 54.03 53.87 51.88 51.52 47.83 51.14 51.00 50.81 50.63 50.20 49.84 48.23 47.92 47.87 48.48 48.41 48.44 48.72 46.08 48.12 48.45 48.45 48.53 48.55 48.49 48.50 48.51 48.39 48.48 48.47

GFSNGP_sfc_wetblb_123.txt.gz
Wetbulb
45.59 48.40 48.58 48.16 48.34 48.23 44.07 44.34 40.85 43.32 43.63 45.41 53.47 54.60 55.95 57.45 58.53 58.74 58.27 59.11 58.77 58.09 57.28 57.43 57.67 57.96 59.48 59.98 60.98 61.84 61.95 62.28 63.72 65.04 65.87 67.12 67.80 68.70 69.25 69.31 69.06 69.68 69.79 70.00
44.03 49.35 49.30 47.93 49.12 48.74 47.52 47.14 45.72 45.42 43.82 54.97 55.39 55.94 55.55 56.01 56.68 56.43 58.37 59.06 59.01 58.55 57.98 57.10 57.47 57.78 59.21 59.57 60.51 61.62 61.83 63.09 63.97 63.90 65.29 65.23 66.65 68.19 68.51 68.31 68.48 69.04 68.95 69.24
40.65 48.26 47.53 42.44 46.32 47.44 47.50 48.61 46.95 43.48 50.91 54.38 53.93 54.98 55.67 57.54 58.62 57.53 58.10 58.41 57.96 57.86 57.78 58.06 57.42 58.66 58.24 59.54 61.09 61.31 62.17 62.29 63.30 62.76 62.67 63.52 65.11 66.72 67.77 67.41 67.75 67.68 67.92 68.36
40.51 42.58 35.64 45.41 51.08 51.66 49.88 50.48 51.21 51.38 55.00 55.15 54.26 55.78 57.48 58.35 58.38 58.83 58.86 58.78 58.55 57.54 57.29 57.35 57.30 57.91 59.32 58.75 60.98 61.58 60.29 60.56 61.81 62.46 61.90 62.34 63.44 64.32 65.23 65.17 65.26 65.85 66.45 66.67
39.48 39.64 43.95 47.89 50.17 51.83 49.29 48.55 54.60 53.19 55.36 56.02 56.35 55.99 54.71 57.98 59.48 58.87 58.83 58.89 58.61 58.30 57.42 57.15 57.31 58.44 58.46 57.38 60.26 59.81 59.21 60.33 61.77 62.15 61.24 62.64 62.14 62.88 64.46 64.35 64.85 65.39 66.29 65.50
41.52 37.68 36.91 45.56 52.93 56.91 54.82 44.33 56.37 56.22 54.42 54.07 54.01 47.12 51.40 57.34 60.34 59.93 60.59 59.88 58.98 58.53 57.62 56.79 56.90 57.59 57.81 59.04 59.35 58.88 59.64 60.71 62.08 62.21 62.17 62.61 63.10 62.49 63.74 65.27 64.94 65.71 65.98 65.48
42.45 40.24 43.90 50.92 54.15 56.38 43.92 45.46 55.99 56.10 54.86 53.77 50.65 52.16 55.35 58.98 59.69 61.41 60.48 59.90 59.56 58.23 56.78 56.34 56.18 55.35 55.79 58.31 54.66 59.32 60.68 61.42 62.20 62.29 62.64 62.73 60.99 60.66 60.15 63.01 64.14 64.63 64.08 64.33
42.95 41.12 38.63 56.63 55.94 49.85 53.42 54.46 55.32 55.17 54.57 53.50 55.32 56.11 55.94 58.69 59.82 60.59 59.89 58.51 58.50 57.18 56.73 57.39 56.57 55.93 55.32 56.57 58.69 59.40 60.31 61.72 61.66 61.43 62.67 63.85 61.65 60.97 62.46 63.64 63.90 63.79 62.88 62.74
46.66 45.47 52.88 55.60 55.13 56.60 55.73 54.62 55.12 53.85 55.20 56.16 55.02 54.85 55.47 55.82 60.54 60.29 60.01 59.34 57.83 55.34 56.60 57.46 58.17 57.51 54.90 56.78 59.75 59.20 60.25 61.05 61.52 62.10 62.30 62.39 61.29 60.09 61.36 61.92 63.07 62.36 63.38 62.60
48.43 52.91 52.42 53.80 57.72 57.71 57.64 55.77 56.45 55.79 54.72 54.50 54.17 54.73 55.24 54.68 58.28 59.64 57.55 57.36 58.29 57.37 57.13 57.06 57.66 59.49 57.03 58.62 59.21 59.51 58.81 59.74 61.15 61.62 60.76 61.54 61.13 59.01 58.01 59.40 60.00 61.88 61.73 61.11
47.72 49.86 53.70 58.08 56.07 56.26 58.00 57.86 57.03 56.57 55.99 54.76 54.39 54.88 54.01 53.20 58.23 59.70 59.26 58.56 58.43 57.41 56.81 56.93 59.69 59.38 59.44 59.54 59.36 58.52 59.50 59.69 60.34 59.73 61.24 58.88 54.60 52.31 55.73 51.68 50.25 58.09 57.04 57.31
44.39 49.34 50.10 51.88 56.00 55.47 56.67 55.86 56.08 55.30 55.00 55.99 55.29 55.62 56.65 56.10 59.45 58.98 58.75 58.60 57.85 57.24 56.63 57.08 58.86 58.74 59.25 58.32 57.91 58.44 59.10 59.22 59.43 58.14 57.01 61.12 59.55 56.57 49.17 47.94 46.13 44.35 47.14 53.40
50.01 54.09 54.89 55.67 55.75 55.57 54.88 54.62 55.71 55.10 55.36 55.12 55.86 58.41 59.09 59.45 59.15 59.38 58.55 57.89 57.94 57.00 56.25 58.18 59.70 58.70 57.29 57.23 58.23 58.79 59.15 59.43 58.21 56.55 56.90 55.20 57.60 58.85 57.38 55.02 47.58 45.29 43.46 43.25
53.56 54.86 52.98 52.59 51.89 55.65 55.90 56.68 56.89 56.09 55.66 55.74 57.42 58.54 61.07 60.40 59.24 58.58 57.85 57.95 58.44 57.60 58.28 59.08 59.01 58.35 57.48 58.35 58.78 59.57 56.33 54.41 54.47 54.71 54.36 54.26 56.20 55.57 58.43 57.57 57.45 55.15 50.29 48.59
52.22 54.21 53.48 54.26 54.91 54.23 55.62 56.33 55.90 55.42 55.24 54.87 56.75 58.60 58.56 57.45 56.92 57.74 59.78 59.49 58.98 58.54 59.12 58.70 57.92 56.44 58.05 58.37 58.42 57.53 55.45 54.93 54.57 55.77 56.01 53.39 54.21 53.81 53.57 54.00 55.32 57.08 55.52 51.27
53.93 53.88 55.13 53.99 53.05 55.06 55.37 55.56 54.75 55.41 56.25 55.43 55.71 57.28 57.34 57.86 56.33 57.49 58.42 58.86 56.67 56.70 56.08 57.26 56.94 56.74 57.50 57.82 58.10 58.95 59.43 56.37 54.79 55.71 56.60 54.04 54.00 53.77 53.45 52.88 52.02 55.76 56.16 55.94
50.14 50.26 53.15 51.68 51.94 52.60 55.62 56.89 55.43 56.12 56.27 54.90 54.76 56.05 57.40 57.07 56.70 56.58 55.56 58.36 58.10 57.79 56.97 58.60 58.38 59.28 59.25 58.08 57.31 58.32 57.55 57.50 57.89 56.83 56.34 56.08 55.92 54.63 56.08 56.39 55.57 55.16 54.94 56.29
53.45 53.00 52.75 53.29 53.20 53.29 54.94 56.44 57.44 56.01 56.02 57.44 56.18 57.30 56.37 55.42 53.78 54.90 54.86 56.64 57.15 55.36 53.26 57.75 58.65 60.51 59.53 55.82 55.73 55.72 55.24 55.24 55.50 55.95 54.50 54.30 54.49 54.01 55.90 55.61 56.04 54.80 54.53 52.56
52.88 54.61 53.35 53.47 58.05 57.41 57.77 58.45 57.45 56.82 56.73 57.15 56.06 54.96 55.61 55.65 55.46 55.51 54.98 57.44 56.27 52.93 52.76 56.38 59.33 59.78 58.18 57.72 55.61 56.01 55.90 54.22 54.47 55.99 56.15 55.15 55.31 53.99 52.85 54.94 54.41 54.66 54.60 54.13
52.32 53.86 55.63 58.31 58.51 58.67 58.03 59.08 58.72 57.38 58.10 58.27 58.06 55.61 56.07 55.43 56.09 57.05 56.82 56.32 56.21 57.72 57.50 55.80 52.70 51.45 53.31 50.85 53.19 52.85 55.52 55.38 55.16 53.10 52.79 52.47 52.11 51.11 51.57 49.90 53.81 53.47 52.57 52.20
53.04 54.55 56.87 57.47 57.35 58.30 56.26 58.36 57.84 55.99 57.96 58.54 57.90 56.43 56.35 56.05 56.28 54.92 54.60 52.94 53.73 57.08 52.76 52.15 48.37 45.59 48.01 49.24 49.88 53.25 52.70 52.95 51.17 50.79 49.23 47.91 47.66 48.27 48.61 49.15 49.02 50.47 51.36 51.58
56.17 55.89 57.00 56.88 56.44 55.79 55.79 56.76 55.81 57.28 57.18 56.79 57.35 57.03 55.97 55.51 55.16 54.98 54.96 50.92 50.25 50.01 48.70 45.83 43.64 48.79 47.72 52.30 49.35 49.07 48.66 48.91 48.25 46.60 45.70 44.99 44.84 44.39 44.03 44.69 45.30 46.52 46.63 46.08
55.98 56.60 56.38 55.55 55.28 55.36 56.08 55.83 55.32 55.97 56.07 55.69 55.26 54.99 54.51 53.75 54.19 50.03 46.34 47.94 47.15 47.34 45.63 44.82 47.89 49.23 50.21 46.21 46.00 45.67 46.08 46.27 44.17 43.62 43.86 43.77 43.18 42.88 43.03 43.43 43.27 43.76 43.41 43.05
56.71 56.27 55.95 56.32 56.36 54.88 53.39 52.86 52.56 53.02 54.42 54.78 55.63 55.77 54.60 51.50 50.15 49.39 49.03 48.38 47.83 45.91 44.50 44.66 46.40 48.29 47.72 44.19 44.59 44.30 44.47 43.83 43.03 43.14 43.08 43.07 42.96 43.21 43.45 43.57 43.41 43.45 43.55 43.45
56.92 56.77 56.91 55.59 54.88 53.94 54.82 53.84 52.96 51.75 50.65 50.18 50.24 50.87 51.63 52.33 51.41 50.47 49.36 46.65 46.51 46.96 44.99 46.16 47.86 47.99 44.19 43.26 43.80 43.72 43.23 42.99 42.58 42.72 43.03 43.00 42.72 42.60 43.08 43.37 43.09 42.76 42.99 43.10
55.91 55.83 55.63 54.80 54.21 53.77 52.39 52.06 50.62 50.89 50.38 49.46 50.15 50.79 50.94 51.17 50.97 49.94 48.21 48.48 47.60 47.58 46.35 45.02 43.81 43.58 43.26 43.18 43.97 44.05 43.93 43.94 43.69 42.89 42.67 43.36 43.40 43.44 43.51 43.34 42.77 42.78 42.81 42.55
55.92 53.36 55.15 54.02 53.71 53.19 53.40 51.83 50.60 49.55 49.83 49.29 48.98 50.55 50.32 50.53 47.81 47.02 47.94 47.51 47.35 46.44 45.75 44.99 44.01 43.72 42.52 43.19 43.70 43.90 43.71 43.19 41.63 42.41 43.27 43.59 43.74 43.39 43.29 42.73 42.55 42.31 41.62 41.29